[[{"header":{"parameterUnit":"m.s-1","parameterCategory":1,"la1":30.6,"la2":28.766,"lo1":-90.7593,"lo2":-88.6598,"dy":0.0162,"dx":0.0183,"nx":116,"ny":114,"refTime":"2023-05-02T00:00:00:Z","depth":0,"parameterNumber":2,"parameterNumberName":"U-component_of_WINDS"},"data":[0.0,0.0,0.0,0.0,0.0,0.0,0.0,0.0,0.0,0.0,0.0,0.0,0.0,0.0,0.0,0.0,0.0,0.0,0.0,0.0,0.0,0.0,0.0,0.0,0.0,0.0,0.0,0.0,0.0,0.0,0.0,0.0,0.0,0.0,0.0,0.0,0.0,0.0,0.0,0.0,0.0,0.0,0.0,0.0,0.0,0.0,0.0,0.0,0.0,0.0,0.0,0.0,0.0,0.0,0.0,0.0,0.0,0.0,0.0,0.0,0.0,0.0,0.0,0.0,0.0,0.0,0.0,0.0,0.0,0.0,0.0,0.0,0.0,0.0,0.0,0.0,0.0,0.0,0.0,0.0,0.0,0.0,0.0,0.0,0.0,0.0,0.0,0.0,0.0,0.0,0.0,0.0,0.0,0.0,0.0,0.0,0.0,0.0,0.0,0.0,0.0,0.0,0.0,0.0,0.0,0.0,0.0,0.0,0.0,0.0,0.0,0.0,0.0,0.0,0.0,0.0,0.0,0.0,0.0,0.0,0.0,0.0,0.0,0.0,0.0,0.0,0.0,0.0,0.0,0.0,0.0,0.0,0.0,0.0,0.0,0.0,0.0,0.0,0.0,0.0,0.0,0.0,0.0,0.0,0.0,0.0,0.0,0.0,0.0,0.0,0.0,0.0,0.0,0.0,0.0,0.0,0.0,0.0,0.0,0.0,0.0,0.0,0.0,0.0,0.0,0.0,0.0,0.0,0.0,0.0,0.0,0.0,0.0,0.0,0.0,0.0,0.0,0.0,0.0,0.0,0.0,0.0,0.0,0.0,0.0,0.0,0.0,0.0,0.0,0.0,0.0,0.0,0.0,0.0,0.0,0.0,0.0,0.0,0.0,0.0,0.0,0.0,0.0,0.0,0.0,0.0,0.0,0.0,0.0,0.0,0.0,0.0,0.0,0.0,0.0,0.0,0.0,0.0,0.0,0.0,0.0,0.0,0.0,0.0,0.0,0.0,0.0,0.0,0.0,0.0,0.0,0.0,0.0,0.0,0.0,0.0,0.0,0.0,0.0,0.0,0.0,0.0,0.0,0.0,0.0,0.0,0.0,0.0,0.0,0.0,0.0,0.0,0.0,0.0,0.0,0.0,0.0,0.0,0.0,0.0,0.0,0.0,0.0,0.0,0.0,0.0,0.0,0.0,0.0,0.0,0.0,0.0,0.0,0.0,0.0,0.0,0.0,0.0,0.0,0.0,0.0,0.0,0.0,0.0,0.0,0.0,0.0,0.0,0.0,0.0,0.0,0.0,0.0,0.0,0.0,0.0,0.0,0.0,0.0,0.0,0.0,0.0,0.0,0.0,0.0,0.0,0.0,0.0,0.0,0.0,0.0,0.0,0.0,0.0,0.0,0.0,0.0,0.0,0.0,0.0,0.0,0.0,0.0,0.0,0.0,0.0,0.0,0.0,0.0,0.0,0.0,0.0,0.0,0.0,0.0,0.0,0.0,0.0,0.0,0.0,0.0,0.0,0.0,0.0,0.0,0.0,0.0,0.0,0.0,0.0,0.0,0.0,0.0,0.0,0.0,0.0,0.0,0.0,0.0,0.0,0.0,0.0,0.0,0.0,0.0,0.0,0.0,0.0,0.0,0.0,0.0,0.0,0.0,0.0,0.0,0.0,0.0,0.0,0.0,0.0,0.0,0.0,0.0,0.0,0.0,0.0,0.0,0.0,0.0,0.0,0.0,0.0,0.0,0.0,0.0,0.0,0.0,0.0,0.0,0.0,0.0,0.0,0.0,0.0,0.0,0.0,0.0,0.0,0.0,0.0,0.0,0.0,0.0,0.0,0.0,0.0,0.0,0.0,0.0,0.0,0.0,0.0,0.0,0.0,0.0,0.0,0.0,0.0,0.0,0.0,0.0,0.0,0.0,0.0,0.0,0.0,0.0,0.0,0.0,0.0,0.0,0.0,0.0,0.0,0.0,0.0,0.0,0.0,0.0,0.0,0.0,0.0,0.0,0.0,0.0,0.0,0.0,0.0,0.0,0.0,0.0,0.0,0.0,0.0,0.0,0.0,0.0,0.0,0.0,0.0,0.0,0.0,0.0,0.0,0.0,0.0,0.0,0.0,0.0,0.0,0.0,0.0,0.0,0.0,0.0,0.0,0.0,0.0,0.0,0.0,0.0,0.0,0.0,0.0,0.0,0.0,0.0,0.0,0.0,0.0,0.0,0.0,0.0,0.0,0.0,0.0,0.0,0.0,0.0,0.0,0.0,0.0,0.0,0.0,0.0,0.0,0.0,0.0,0.0,0.0,0.0,0.0,0.0,0.0,0.0,0.0,0.0,0.0,0.0,0.0,0.0,0.0,0.0,0.0,0.0,0.0,0.0,0.0,0.0,0.0,0.0,0.0,0.0,0.0,0.0,0.0,0.0,0.0,0.0,0.0,0.0,0.0,0.0,0.0,0.0,0.0,0.0,0.0,0.0,0.0,0.0,0.0,0.0,0.0,0.0,0.0,0.0,0.0,0.0,0.0,0.0,0.0,0.0,0.0,0.0,0.0,0.0,0.0,0.0,0.0,0.0,0.0,0.0,0.0,0.0,0.0,0.0,0.0,0.0,0.0,0.0,0.0,0.0,0.0,0.0,0.0,0.0,0.0,0.0,0.0,0.0,0.0,0.0,0.0,0.0,0.0,0.0,0.0,0.0,0.0,0.0,0.0,0.0,0.0,0.0,0.0,0.0,0.0,0.0,0.0,0.0,0.0,0.0,0.0,0.0,0.0,0.0,0.0,0.0,0.0,0.0,0.0,0.0,0.0,0.0,0.0,0.0,0.0,0.0,0.0,0.0,0.0,0.0,0.0,0.0,0.0,0.0,0.0,0.0,0.0,0.0,0.0,0.0,0.0,0.0,0.0,0.0,0.0,0.0,0.0,0.0,0.0,0.0,0.0,0.0,0.0,0.0,0.0,0.0,0.0,0.0,0.0,0.0,0.0,0.0,0.0,0.0,0.0,0.0,0.0,0.0,0.0,0.0,0.0,0.0,0.0,0.0,0.0,0.0,0.0,0.0,0.0,0.0,0.0,0.0,0.0,0.0,0.0,0.0,0.0,0.0,0.0,0.0,0.0,0.0,0.0,0.0,0.0,0.0,0.0,0.0,0.0,0.0,0.0,0.0,0.0,0.0,0.0,0.0,0.0,0.0,0.0,0.0,0.0,0.0,0.0,0.0,0.0,0.0,0.0,0.0,0.0,0.0,0.0,0.0,0.0,0.0,0.0,0.0,0.0,0.0,0.0,0.0,0.0,0.0,0.0,0.0,0.0,0.0,0.0,0.0,0.0,0.0,0.0,0.0,0.0,0.0,0.0,0.0,0.0,0.0,0.0,0.0,0.0,0.0,0.0,0.0,0.0,0.0,0.0,0.0,0.0,0.0,0.0,0.0,0.0,0.0,0.0,0.0,0.0,0.0,0.0,0.0,0.0,0.0,0.0,0.0,0.0,0.0,0.0,0.0,0.0,0.0,0.0,0.0,0.0,0.0,0.0,0.0,0.0,0.0,0.0,0.0,0.0,0.0,0.0,0.0,0.0,0.0,0.0,0.0,0.0,0.0,0.0,0.0,0.0,0.0,0.0,0.0,0.0,0.0,0.0,0.0,0.0,0.0,0.0,0.0,0.0,0.0,0.0,0.0,0.0,0.0,0.0,0.0,0.0,0.0,0.0,0.0,0.0,0.0,0.0,0.0,0.0,0.0,0.0,0.0,0.0,0.0,0.0,0.0,0.0,0.0,0.0,0.0,0.0,0.0,0.0,0.0,0.0,0.0,0.0,0.0,0.0,0.0,0.0,0.0,0.0,0.0,0.0,0.0,0.0,0.0,0.0,0.0,0.0,0.0,0.0,0.0,0.0,0.0,0.0,0.0,0.0,0.0,0.0,0.0,0.0,0.0,0.0,0.0,0.0,0.0,0.0,0.0,0.0,0.0,0.0,0.0,0.0,0.0,0.0,0.0,0.0,0.0,0.0,0.0,0.0,0.0,0.0,0.0,0.0,0.0,0.0,0.0,0.0,0.0,0.0,0.0,0.0,0.0,0.0,0.0,0.0,0.0,0.0,0.0,0.0,0.0,0.0,0.0,0.0,0.0,0.0,0.0,0.0,0.0,0.0,0.0,0.0,0.0,0.0,0.0,0.0,0.0,0.0,0.0,0.0,0.0,0.0,0.0,0.0,0.0,0.0,0.0,0.0,0.0,0.0,0.0,0.0,0.0,0.0,0.0,0.0,0.0,0.0,0.0,0.0,0.0,0.0,0.0,0.0,0.0,0.0,0.0,0.0,0.0,0.0,0.0,0.0,0.0,0.0,0.0,0.0,0.0,0.0,0.0,0.0,0.0,0.0,0.0,0.0,0.0,0.0,0.0,0.0,0.0,0.0,0.0,0.0,0.0,0.0,0.0,0.0,0.0,0.0,0.0,0.0,0.0,0.0,0.0,0.0,0.0,0.0,0.0,0.0,0.0,0.0,0.0,0.0,0.0,0.0,0.0,0.0,0.0,0.0,0.0,0.0,0.0,0.0,0.0,0.0,0.0,0.0,0.0,0.0,0.0,0.0,0.0,0.0,0.0,0.0,0.0,0.0,0.0,0.0,0.0,0.0,0.0,0.0,0.0,0.0,0.0,0.0,0.0,0.0,0.0,0.0,0.0,0.0,0.0,0.0,0.0,0.0,0.0,0.0,0.0,0.0,0.0,0.0,0.0,0.0,0.0,0.0,0.0,0.0,0.0,0.0,0.0,0.0,0.0,0.0,0.0,0.0,0.0,0.0,0.0,0.0,0.0,0.0,0.0,0.0,0.0,0.0,0.0,0.0,0.0,0.0,0.0,0.0,0.0,0.0,0.0,0.0,0.0,0.0,0.0,0.0,0.0,0.0,0.0,0.0,0.0,0.0,0.0,0.0,0.0,0.0,0.0,0.0,0.0,0.0,0.0,0.0,0.0,0.0,0.0,0.0,0.0,0.0,0.0,0.0,0.0,0.0,0.0,0.0,0.0,0.0,0.0,0.0,0.0,0.0,0.0,0.0,0.0,0.0,0.0,0.0,0.0,0.0,0.0,0.0,0.0,0.0,0.0,0.0,0.0,0.0,0.0,0.0,0.0,0.0,0.0,0.0,0.0,0.0,0.0,0.0,0.0,0.0,0.0,0.0,0.0,0.0,0.0,0.0,0.0,0.0,0.0,0.0,0.0,0.0,0.0,0.0,0.0,0.0,0.0,0.0,0.0,0.0,0.0,0.0,0.0,0.0,0.0,0.0,0.0,0.0,0.0,0.0,0.0,0.0,0.0,0.0,0.0,0.0,0.0,0.0,0.0,0.0,0.0,0.0,0.0,0.0,0.0,0.0,0.0,0.0,0.0,0.0,0.0,0.0,0.0,0.0,0.0,0.0,0.0,0.0,0.0,0.0,0.0,0.0,0.0,0.0,0.0,0.0,0.0,0.0,0.0,0.0,0.0,0.0,0.0,0.0,0.0,0.0,0.0,0.0,0.0,0.0,0.0,0.0,0.0,0.0,0.0,0.0,0.0,0.0,0.0,0.0,0.0,0.0,0.0,0.0,0.0,0.0,0.0,0.0,0.0,0.0,0.0,0.0,0.0,0.0,0.0,0.0,0.0,0.0,0.0,0.0,0.0,0.0,0.0,0.0,0.0,0.0,0.0,0.0,0.0,0.0,0.0,0.0,0.0,0.0,0.0,0.0,0.0,0.0,0.0,0.0,0.0,0.0,0.0,0.0,0.0,0.0,0.0,0.0,0.0,0.0,0.0,0.0,0.0,0.0,0.0,0.0,0.0,0.0,0.0,0.0,0.0,0.0,0.0,0.0,0.0,0.0,0.0,0.0,0.0,0.0,0.0,0.0,0.0,0.0,0.0,0.0,0.0,0.0,0.0,0.0,0.0,0.0,0.0,0.0,0.0,0.0,0.0,0.0,0.0,0.0,0.0,0.0,0.0,0.0,0.0,0.0,0.0,0.0,0.0,0.0,0.0,0.0,0.0,0.0,0.0,0.0,0.0,0.0,0.0,0.0,0.0,0.0,0.0,0.0,0.0,0.0,0.0,0.0,0.0,0.0,1.98,0.0,0.0,0.0,0.0,0.0,0.0,0.0,0.0,0.0,0.0,0.0,0.0,0.0,0.0,0.0,0.0,0.0,0.0,0.0,0.0,0.0,0.0,0.0,0.0,0.0,0.0,0.0,0.0,0.0,0.0,0.0,0.0,0.0,0.0,0.0,0.0,0.0,0.0,0.0,0.0,0.0,0.0,0.0,0.0,0.0,0.0,0.0,0.0,0.0,0.0,0.0,0.0,0.0,0.0,0.0,0.0,0.0,0.0,0.0,0.0,0.0,0.0,0.0,0.0,0.0,0.0,0.0,0.0,0.0,0.0,0.0,0.0,0.0,0.0,0.0,0.0,0.0,0.0,0.0,0.0,0.0,0.0,0.0,0.0,0.0,0.0,0.0,0.0,0.0,0.0,0.0,0.0,0.0,0.0,0.0,0.0,0.0,0.0,0.0,0.0,0.0,0.0,0.0,0.0,0.0,0.0,0.0,0.0,0.0,0.0,0.0,0.0,0.0,0.0,0.0,0.0,2.0637,0.0,0.0,0.0,0.0,0.0,0.0,0.0,0.0,0.0,0.0,0.0,0.0,0.0,0.0,0.0,0.0,0.0,0.0,0.0,0.0,0.0,0.0,0.0,0.0,0.0,0.0,0.0,0.0,0.0,0.0,0.0,0.0,0.0,0.0,0.0,0.0,0.0,0.0,0.0,0.0,0.0,0.0,0.0,0.0,0.0,0.0,0.0,0.0,0.0,0.0,0.0,0.0,0.0,0.0,0.0,0.0,0.0,0.0,0.0,0.0,0.0,0.0,0.0,0.0,0.0,0.0,0.0,0.0,0.0,0.0,0.0,0.0,0.0,0.0,0.0,0.0,0.0,0.0,0.0,0.0,0.0,0.0,0.0,0.0,0.0,0.0,0.0,0.0,0.0,0.0,0.0,0.0,0.0,0.0,0.0,0.0,0.0,0.0,0.0,0.0,0.0,0.0,0.0,0.0,0.0,0.0,0.0,0.0,2.5027,2.5472,2.6169,2.6014,2.5936,2.5762,2.2629,2.1533,2.1862,2.0985,0.0,0.0,0.0,0.0,0.0,0.0,0.0,0.0,0.0,0.0,0.0,0.0,0.0,0.0,0.0,0.0,0.0,0.0,0.0,0.0,0.0,0.0,0.0,0.0,0.0,0.0,0.0,0.0,0.0,0.0,0.0,0.0,0.0,0.0,0.0,0.0,0.0,0.0,0.0,0.0,0.0,0.0,0.0,0.0,0.0,0.0,0.0,0.0,0.0,0.0,0.0,0.0,0.0,0.0,0.0,0.0,0.0,0.0,0.0,0.0,0.0,0.0,0.0,0.0,0.0,0.0,0.0,0.0,0.0,0.0,0.0,0.0,0.0,0.0,0.0,0.0,0.0,0.0,0.0,0.0,0.0,0.0,0.0,0.0,0.0,0.0,2.4707,2.4707,0.0,0.0,0.0,0.0,0.0,0.0,0.0,0.0,0.0,0.0,0.0,0.0,0.0,2.5957,2.5313,2.6652,2.7395,2.7511,2.8257,2.8683,2.876,2.8025,2.7658,2.7569,2.565,0.0,2.2757,2.1887,0.0,0.0,0.0,0.0,0.0,0.0,0.0,0.0,0.0,0.0,0.0,0.0,0.0,0.0,0.0,0.0,0.0,0.0,0.0,0.0,0.0,0.0,0.0,0.0,0.0,0.0,0.0,0.0,0.0,0.0,0.0,0.0,0.0,0.0,0.0,0.0,0.0,0.0,0.0,0.0,0.0,0.0,0.0,0.0,0.0,0.0,0.0,0.0,0.0,0.0,0.0,0.0,0.0,0.0,0.0,0.0,0.0,0.0,0.0,0.0,0.0,0.0,0.0,0.0,0.0,0.0,0.0,0.0,0.0,0.0,0.0,0.0,0.0,0.0,0.0,0.0,0.0,0.0,0.0,0.0,0.0,0.0,0.0,0.0,0.0,2.5194,2.5337,2.4779,2.5194,2.5347,0.0,0.0,0.0,0.0,0.0,0.0,0.0,0.0,0.0,2.7518,2.7913,2.8202,2.8354,2.9089,2.9689,3.0133,3.052,3.0714,3.0752,3.0366,2.994,2.9437,2.8219,2.7011,2.5738,2.3448,2.1988,2.1191,0.0,0.0,0.0,0.0,2.1251,2.135,0.0,0.0,0.0,0.0,0.0,0.0,0.0,0.0,0.0,0.0,0.0,0.0,0.0,0.0,0.0,0.0,0.0,0.0,0.0,0.0,0.0,0.0,0.0,0.0,0.0,0.0,0.0,0.0,0.0,0.0,0.0,0.0,0.0,0.0,0.0,0.0,0.0,0.0,0.0,0.0,0.0,0.0,0.0,0.0,0.0,0.0,0.0,0.0,0.0,0.0,0.0,0.0,0.0,0.0,0.0,0.0,0.0,0.0,0.0,0.0,0.0,0.0,0.0,0.0,0.0,0.0,0.0,0.0,0.0,0.0,0.0,0.0,0.0,0.0,0.0,0.0,0.0,2.5641,2.5891,2.4917,2.5674,2.5912,0.0,0.0,0.0,0.0,0.0,0.0,2.7229,2.7297,2.8,2.9573,2.9824,3.025,3.0907,3.1139,3.1545,3.2126,3.2154,3.2058,3.1894,3.1921,3.1482,3.0668,3.0027,2.9294,2.8308,2.5315,2.3442,2.2398,2.1752,2.1374,2.1279,2.1925,2.217,2.2285,0.0,0.0,0.0,0.0,0.0,0.0,0.0,0.0,0.0,0.0,0.0,0.0,0.0,0.0,1.9101,0.0,0.0,0.0,0.0,0.0,0.0,0.0,0.0,0.0,0.0,0.0,0.0,0.0,0.0,0.0,0.0,0.0,0.0,0.0,0.0,0.0,0.0,0.0,0.0,0.0,0.0,0.0,0.0,0.0,0.0,0.0,0.0,0.0,0.0,0.0,0.0,0.0,0.0,0.0,0.0,0.0,0.0,0.0,0.0,0.0,0.0,0.0,0.0,0.0,0.0,0.0,0.0,0.0,0.0,0.0,0.0,0.0,0.0,0.0,0.0,0.0,0.0,0.0,0.0,2.5187,2.5848,0.0,0.0,0.0,0.0,2.6447,2.6515,2.7306,2.9061,2.9166,2.9592,3.0501,3.1275,3.17,3.1739,3.256,3.2986,3.3044,3.3102,3.2696,3.1894,3.1974,3.1524,3.0697,3.0715,3.024,2.9284,2.7462,2.5751,2.4258,2.4219,2.373,2.3066,2.3105,2.3085,2.3052,0.0,0.0,0.0,0.0,0.0,0.0,0.0,0.0,0.0,0.0,0.0,0.0,0.0,1.9101,1.9101,0.0,0.0,0.0,0.0,0.0,0.0,0.0,0.0,0.0,0.0,0.0,0.0,0.0,0.0,0.0,0.0,0.0,0.0,0.0,0.0,0.0,0.0,0.0,0.0,0.0,0.0,0.0,0.0,0.0,0.0,0.0,0.0,0.0,0.0,0.0,0.0,0.0,0.0,0.0,0.0,0.0,0.0,0.0,0.0,0.0,0.0,0.0,0.0,0.0,0.0,0.0,0.0,0.0,0.0,0.0,0.0,0.0,0.0,0.0,0.0,0.0,0.0,0.0,0.0,2.6821,2.8061,0.0,2.775,2.7174,2.7255,2.827,2.8328,2.91,3.083,3.0907,3.1565,3.2996,3.3325,3.346,3.346,3.3817,3.3721,3.3179,3.3237,3.284,3.2027,3.2048,3.1605,3.0832,3.0813,3.0621,3.0289,2.9626,2.8023,2.5957,2.5391,2.5002,2.4748,2.4737,2.5072,2.5479,0.0,0.0,0.0,0.0,0.0,0.0,0.0,0.0,0.0,0.0,0.0,1.9101,1.9101,1.9101,1.9101,0.0,0.0,0.0,0.0,0.0,0.0,0.0,0.0,0.0,0.0,0.0,0.0,0.0,0.0,0.0,0.0,0.0,0.0,0.0,0.0,0.0,0.0,0.0,0.0,0.0,0.0,0.0,2.2706,0.0,0.0,0.0,0.0,0.0,0.0,0.0,0.0,0.0,0.0,0.0,0.0,0.0,0.0,0.0,0.0,0.0,0.0,0.0,0.0,0.0,0.0,0.0,0.0,0.0,0.0,0.0,0.0,0.0,0.0,0.0,0.0,0.0,0.0,0.0,2.8934,2.8288,2.9778,3.0546,2.9697,2.908,2.912,3.0075,3.0133,3.0888,3.259,3.2687,3.3344,3.4795,3.4833,3.4717,3.4447,3.4475,3.3925,3.28,3.2851,3.2463,3.166,3.1656,3.136,3.0859,3.0795,3.0776,3.0762,3.069,2.9664,2.8067,2.7212,2.6547,2.6042,2.6046,2.6384,2.6695,0.0,0.0,0.0,0.0,0.0,0.0,0.0,0.0,0.0,0.0,0.0,1.9087,1.9101,1.9101,1.9101,1.9101,0.0,0.0,0.0,0.0,0.0,0.0,0.0,0.0,0.0,0.0,0.0,0.0,0.0,0.0,0.0,0.0,0.0,0.0,0.0,0.0,0.0,0.0,0.0,0.0,0.0,0.0,2.4087,0.0,0.0,0.0,0.0,0.0,0.0,0.0,0.0,0.0,0.0,0.0,0.0,0.0,0.0,0.0,0.0,0.0,0.0,0.0,0.0,0.0,0.0,0.0,0.0,0.0,0.0,0.0,0.0,0.0,0.0,0.0,0.0,0.0,2.685,2.8313,2.9437,2.9545,3.0965,3.1642,3.0888,3.0772,3.1101,3.1894,3.1971,3.2706,3.4438,3.4515,3.4902,3.5723,3.5734,3.5347,3.4513,3.4476,3.3632,3.2005,3.2046,3.1622,3.0795,3.081,3.0791,3.079,3.0736,3.0691,3.0694,3.0617,3.0569,3.0472,2.9709,2.8405,2.6968,2.6908,2.6795,2.6524,0.0,0.0,0.0,0.0,0.0,0.0,0.0,0.0,0.0,0.0,1.8538,1.8796,1.908,1.9101,1.9101,1.9101,0.0,0.0,0.0,0.0,0.0,0.0,0.0,0.0,0.0,0.0,0.0,0.0,0.0,0.0,0.0,0.0,0.0,0.0,0.0,0.0,0.0,0.0,0.0,0.0,0.0,0.0,2.4603,0.0,0.0,0.0,0.0,0.0,0.0,0.0,0.0,0.0,0.0,0.0,0.0,0.0,0.0,0.0,0.0,0.0,0.0,0.0,0.0,0.0,0.0,0.0,0.0,0.0,0.0,0.0,0.0,0.0,0.0,0.0,0.0,2.7846,2.7811,2.9797,3.1722,3.3015,3.408,3.4863,3.528,3.4787,3.4778,3.5582,3.564,3.6133,3.7237,3.7295,3.711,3.6732,3.6712,3.6034,3.46,3.3984,3.3151,3.2061,3.151,3.1073,3.0793,3.0808,3.0772,3.0723,3.0651,3.0607,3.0552,3.0477,3.0051,2.9417,2.9352,2.9033,2.8415,2.7152,2.6266,2.5725,0.0,0.0,0.0,0.0,0.0,0.0,0.0,0.0,0.0,0.0,1.8406,1.8697,1.92,1.9176,1.8999,1.8753,1.8819,0.0,0.0,0.0,0.0,0.0,0.0,0.0,0.0,0.0,0.0,0.0,0.0,0.0,0.0,0.0,0.0,0.0,0.0,0.0,0.0,0.0,0.0,0.0,0.0,0.0,2.6544,2.5541,2.5265,2.5362,2.4892,2.4967,2.5193,2.466,0.0,0.0,0.0,0.0,0.0,0.0,0.0,0.0,0.0,0.0,0.0,0.0,0.0,0.0,0.0,0.0,0.0,0.0,0.0,0.0,0.0,0.0,0.0,0.0,2.9628,3.0449,3.079,3.2137,3.373,3.548,3.6409,3.7092,3.7605,3.7225,3.7136,3.7603,3.7631,3.7812,3.8332,3.8338,3.8104,3.7631,3.7253,3.6428,3.5115,3.429,3.3255,3.2049,3.1582,3.1141,3.0766,3.0694,3.0644,3.0606,3.0527,3.0452,3.0412,3.0367,2.9824,0.0,0.0,0.0,0.0,0.0,2.5962,2.5332,0.0,0.0,0.0,0.0,0.0,0.0,0.0,0.0,0.0,0.0,0.0,1.8614,1.9233,1.9068,1.8702,1.8214,1.8288,1.8189,0.0,0.0,0.0,0.0,0.0,0.0,0.0,0.0,0.0,0.0,0.0,0.0,0.0,0.0,0.0,0.0,0.0,0.0,0.0,0.0,0.0,0.0,0.0,0.0,2.9265,2.7939,2.8004,2.8627,2.7584,2.6842,2.6359,2.5834,0.0,0.0,0.0,0.0,0.0,0.0,0.0,0.0,0.0,0.0,0.0,0.0,0.0,0.0,0.0,0.0,0.0,0.0,0.0,0.0,0.0,0.0,0.0,0.0,3.1992,3.3932,3.4931,3.5146,3.5756,3.7304,3.8112,3.8588,3.8686,3.8686,3.8686,3.8686,3.863,3.8609,3.8604,0.0,0.0,0.0,0.0,3.6843,3.5911,3.5048,3.3764,3.2102,3.201,3.1518,3.0645,3.053,3.0482,3.0463,3.0324,3.0247,3.0253,3.0207,2.9633,2.8753,2.8715,2.8203,2.7378,2.6541,2.5723,2.5146,0.0,0.0,0.0,0.0,0.0,0.0,0.0,0.0,0.0,1.7361,1.7486,1.77,1.8175,1.797,1.7844,1.7954,1.7777,1.7959,0.0,0.0,0.0,0.0,0.0,0.0,0.0,0.0,0.0,0.0,0.0,0.0,0.0,0.0,0.0,0.0,0.0,0.0,0.0,0.0,0.0,0.0,0.0,0.0,3.1191,3.0362,2.9438,2.855,2.8424,2.8403,2.8333,2.7589,2.7471,2.7448,2.6288,0.0,0.0,0.0,0.0,0.0,0.0,0.0,0.0,0.0,0.0,0.0,0.0,0.0,0.0,0.0,0.0,0.0,0.0,0.0,0.0,3.3142,3.4525,3.6102,3.8388,3.8704,3.8844,3.9179,3.934,3.9724,4.0426,4.0504,4.0504,4.0504,4.0486,4.0474,4.049,4.047,4.0095,3.9282,3.9108,3.8207,3.6537,3.5663,3.4372,3.2721,0.0,0.0,3.0393,3.0343,3.0343,3.0324,3.0075,2.9939,2.9883,2.9657,2.8649,2.7208,2.6999,2.632,2.5424,2.5205,2.4888,2.4748,0.0,0.0,0.0,0.0,0.0,0.0,0.0,0.0,0.0,0.0,1.7399,1.7499,1.8037,1.7844,1.7627,1.7423,1.7091,0.0,0.0,0.0,0.0,0.0,0.0,0.0,0.0,0.0,0.0,0.0,0.0,0.0,0.0,0.0,0.0,0.0,0.0,0.0,0.0,0.0,0.0,0.0,0.0,0.0,3.4917,3.3592,3.2403,3.1379,3.1255,3.0552,2.9662,2.9423,2.8989,2.8436,2.7809,2.7347,2.6927,0.0,0.0,0.0,0.0,0.0,0.0,0.0,0.0,0.0,0.0,0.0,0.0,0.0,0.0,2.9129,0.0,0.0,3.3751,3.5427,3.6791,3.8098,3.9405,3.9889,4.0159,4.0325,4.0354,4.0519,4.0966,4.1005,4.1005,4.1005,4.0877,4.08,4.0795,4.0694,4.0427,3.9917,3.9517,3.8774,3.7672,3.6413,3.5083,3.3631,3.2868,3.1806,3.056,3.0476,3.0002,2.9232,2.907,2.8777,2.8367,2.811,2.7472,2.6577,2.5907,2.5258,2.47,2.47,2.4639,2.4729,0.0,0.0,0.0,0.0,0.0,0.0,0.0,0.0,0.0,0.0,0.0,1.754,1.8073,1.7913,1.7547,0.0,0.0,0.0,0.0,0.0,0.0,0.0,0.0,0.0,0.0,0.0,0.0,0.0,0.0,0.0,0.0,0.0,0.0,0.0,0.0,0.0,0.0,0.0,0.0,0.0,0.0,0.0,3.8004,3.6509,3.5405,3.455,3.4072,3.2469,3.0555,3.0678,2.9848,2.8777,2.8775,2.8318,2.7643,2.7012,2.6197,0.0,0.0,0.0,0.0,0.0,0.0,0.0,0.0,0.0,2.7981,2.8636,3.015,3.1807,3.3323,3.4969,3.6389,3.7179,3.864,3.9657,3.9657,4.0116,4.0549,4.0822,4.0855,4.0855,4.0855,4.0855,4.0855,4.0855,4.0616,4.0463,4.0463,4.0266,4.0119,4.0119,3.9489,3.888,3.8329,3.7043,3.5633,3.4087,3.3365,3.2094,3.0426,3.0153,2.9219,2.7789,2.7698,2.734,2.6831,2.6606,2.6407,2.6162,2.5219,2.4584,2.4229,2.4405,2.4424,2.4596,0.0,0.0,0.0,0.0,0.0,0.0,0.0,0.0,0.0,0.0,0.0,0.0,0.0,0.0,0.0,0.0,0.0,0.0,0.0,0.0,0.0,0.0,0.0,0.0,0.0,0.0,0.0,0.0,0.0,0.0,0.0,0.0,0.0,0.0,0.0,0.0,0.0,0.0,0.0,0.0,0.0,0.0,3.7697,3.7835,3.698,3.5631,3.4913,3.3091,3.0924,3.0243,2.959,2.8917,2.8164,2.8001,2.7906,2.7114,0.0,2.5584,2.5586,2.5499,2.5571,2.6217,2.6973,2.775,0.0,0.0,3.1005,3.1101,3.2469,3.3921,3.4802,3.6389,3.7862,3.8706,3.9605,4.0216,4.0216,4.0277,4.0334,4.037,4.037,4.037,4.037,4.037,4.037,4.037,4.0138,3.9986,3.9986,3.9724,3.9524,3.9438,3.932,3.8663,3.7385,3.7172,3.5732,3.3042,3.23,3.0985,2.9071,2.8362,2.7422,2.6304,2.6149,2.617,2.6297,2.6184,2.5855,2.5368,2.4835,2.4035,2.3223,2.3771,2.3785,2.3683,0.0,0.0,0.0,0.0,0.0,0.0,0.0,0.0,0.0,0.0,0.0,0.0,0.0,0.0,0.0,0.0,0.0,0.0,1.984,2.0923,0.0,0.0,0.0,0.0,0.0,0.0,0.0,0.0,0.0,0.0,0.0,0.0,0.0,0.0,0.0,0.0,0.0,0.0,0.0,0.0,0.0,0.0,3.7795,3.7506,3.6358,3.4773,3.3694,3.1832,0.0,0.0,2.9313,2.9154,2.8819,2.8435,2.794,2.7139,2.6289,0.0,2.5505,2.5772,2.6346,0.0,2.8581,2.9538,3.0852,3.2091,3.3089,3.3555,3.4887,3.623,3.7031,3.8061,3.8914,0.0,3.9599,3.9827,3.9827,3.9347,3.885,3.8378,3.8256,3.8717,3.9948,4.0062,3.9986,3.9848,3.9656,3.9542,3.9542,3.91,3.8655,3.8155,3.8317,3.7703,3.6163,3.6111,3.5049,3.3012,3.183,3.0386,2.876,2.7718,2.6255,2.4542,2.405,2.4002,2.4288,2.4288,2.4147,2.3869,2.3539,2.2943,2.239,2.3141,2.3397,2.3465,0.0,0.0,0.0,0.0,0.0,0.0,0.0,0.0,0.0,0.0,0.0,0.0,0.0,0.0,0.0,0.0,0.0,0.0,0.0,2.1092,0.0,0.0,0.0,0.0,0.0,0.0,0.0,0.0,0.0,0.0,0.0,0.0,0.0,0.0,0.0,0.0,0.0,0.0,0.0,0.0,0.0,0.0,3.6811,3.5745,3.4139,3.2367,3.1632,3.0239,0.0,0.0,2.8333,2.8673,2.8723,2.8274,2.763,2.7048,2.6227,2.5587,2.5916,0.0,0.0,2.9375,3.0722,3.1891,3.3143,3.4433,3.5495,3.5856,3.6784,3.7724,3.8291,3.8577,3.8799,3.9024,3.9062,3.9062,3.9062,3.8203,3.7349,3.6752,3.6315,3.6712,3.8418,3.8829,3.8961,3.8871,3.8697,3.8646,3.8748,3.8272,3.7588,3.6703,3.6928,3.6272,3.4614,3.4557,3.3853,3.2479,3.1022,2.9532,2.8042,2.6173,2.4348,2.2611,2.2065,2.2057,2.2409,2.2425,2.2473,2.2473,2.2183,2.1838,2.1589,2.2283,2.266,2.2875,0.0,0.0,0.0,0.0,0.0,0.0,0.0,0.0,0.0,0.0,0.0,0.0,0.0,0.0,0.0,0.0,0.0,0.0,0.0,2.1753,0.0,0.0,0.0,0.0,0.0,0.0,0.0,0.0,0.0,0.0,0.0,0.0,0.0,0.0,0.0,0.0,0.0,0.0,0.0,0.0,0.0,0.0,3.403,3.2311,3.0177,2.8203,2.8994,0.0,0.0,0.0,2.6306,2.7069,2.7069,2.6963,0.0,2.6813,2.6081,2.564,0.0,0.0,2.891,3.1314,3.3492,3.508,3.518,3.7098,3.8628,3.7875,3.7809,3.7873,3.791,3.7303,3.7043,3.7817,3.7947,3.7947,3.7947,3.6961,3.6205,3.6141,3.5154,3.4661,0.0,3.6195,3.6939,3.7253,3.702,3.7043,3.7327,3.7082,3.6418,3.5208,3.5169,3.4384,3.269,3.2673,3.2095,3.0936,2.9524,2.8057,2.6458,2.3024,2.1119,2.0504,2.0489,2.0707,2.1137,2.1095,2.1203,2.1424,2.115,2.0911,2.0782,2.1054,2.1321,2.1628,0.0,0.0,0.0,0.0,0.0,0.0,0.0,0.0,0.0,0.0,0.0,0.0,0.0,0.0,0.0,0.0,0.0,0.0,0.0,2.1318,2.2451,0.0,0.0,0.0,0.0,0.0,0.0,0.0,0.0,0.0,0.0,0.0,0.0,0.0,0.0,0.0,0.0,0.0,0.0,0.0,0.0,0.0,3.2065,2.9199,2.7255,2.5849,0.0,0.0,0.0,0.0,2.4758,2.594,2.594,0.0,0.0,2.5534,2.555,2.5972,2.7514,2.8821,3.0453,3.3441,3.5138,3.6366,3.7487,3.8182,3.8398,3.7626,3.6307,3.5175,3.4677,3.3773,3.3352,3.4145,3.4709,3.5235,3.5705,3.4978,3.4017,3.2961,3.2657,0.0,0.0,0.0,0.0,3.5102,3.5433,3.55,3.5296,3.5377,3.4869,3.3594,3.3387,3.2497,3.0788,3.0838,3.0292,2.9073,2.6887,2.4902,2.3182,2.1614,2.0557,1.993,1.9901,1.9723,1.9545,1.9812,1.9812,1.9642,1.9848,1.9894,1.9919,2.04,2.0365,2.0243,0.0,0.0,0.0,0.0,0.0,0.0,0.0,0.0,0.0,0.0,0.0,0.0,0.0,0.0,0.0,0.0,0.0,0.0,0.0,0.0,2.0282,0.0,0.0,0.0,0.0,0.0,0.0,0.0,0.0,0.0,0.0,0.0,0.0,0.0,0.0,0.0,0.0,0.0,0.0,0.0,0.0,0.0,2.816,2.5329,2.4079,0.0,0.0,0.0,0.0,0.0,0.0,0.0,0.0,2.4885,2.5037,2.5096,2.5831,2.6989,2.8695,3.0438,3.2379,3.4932,3.6352,3.7294,3.8086,3.7917,3.7282,3.6045,3.4092,3.2413,3.1849,3.0621,3.0062,3.1194,3.1513,3.1917,3.2911,3.2262,3.1476,3.0919,3.0891,3.0656,0.0,0.0,0.0,3.3083,3.3724,3.3938,3.3582,3.3787,3.321,3.1819,3.1363,3.0417,2.8847,2.8899,2.8256,2.6828,2.4767,2.2757,2.0806,2.028,1.9595,1.8793,1.8765,1.8535,1.8198,1.85,1.8461,1.8212,1.8804,1.9151,1.9392,2.0078,2.0221,2.0161,0.0,0.0,0.0,0.0,0.0,0.0,0.0,0.0,0.0,0.0,0.0,0.0,0.0,0.0,0.0,0.0,0.0,0.0,0.0,0.0,0.0,0.0,0.0,0.0,0.0,0.0,0.0,0.0,0.0,0.0,0.0,0.0,0.0,0.0,0.0,0.0,0.0,0.0,0.0,0.0,0.0,0.0,2.2641,2.0865,0.0,0.0,0.0,0.0,0.0,0.0,0.0,0.0,0.0,2.4138,2.484,2.55,2.686,2.8579,3.0483,3.2557,3.4476,3.5794,3.6988,3.7702,3.6948,3.6354,3.5405,3.3321,3.121,2.9639,2.9382,0.0,2.7225,2.9138,2.8627,2.8459,2.9819,2.9127,2.8915,0.0,0.0,0.0,0.0,0.0,0.0,3.1271,0.0,3.2313,3.2149,3.2212,3.1507,2.9803,2.9137,2.8261,2.7011,2.6967,2.6025,2.4262,2.3294,2.1622,1.9382,1.9054,1.827,1.7238,1.7212,1.7199,1.7157,1.7199,1.7212,1.729,1.8057,1.871,1.9294,2.0077,2.0668,2.1035,0.0,0.0,0.0,0.0,0.0,0.0,0.0,0.0,0.0,0.0,0.0,0.0,0.0,0.0,0.0,0.0,0.0,0.0,0.0,0.0,0.0,0.0,0.0,0.0,0.0,0.0,0.0,0.0,0.0,0.0,0.0,0.0,0.0,0.0,0.0,0.0,0.0,0.0,0.0,0.0,0.0,0.0,2.0313,0.0,0.0,0.0,0.0,0.0,0.0,0.0,0.0,0.0,0.0,2.4395,2.4841,2.5569,2.7146,2.9005,3.0878,3.2562,3.4196,3.5705,3.5687,3.5206,3.5018,3.3437,3.1742,3.0627,2.8072,2.5917,2.5841,0.0,0.0,2.6974,2.7558,0.0,2.9874,2.9842,0.0,2.9549,0.0,2.9546,2.9189,2.9388,0.0,0.0,3.0582,3.0791,2.9946,2.9967,2.9444,2.814,2.7103,2.6228,2.5544,2.5027,2.4148,2.2817,2.2125,2.1017,1.958,1.8662,1.807,1.777,1.7382,1.6989,1.6735,1.7073,1.7235,1.7314,1.7896,1.8429,1.8967,1.9628,1.9653,1.9387,0.0,0.0,0.0,0.0,0.0,0.0,0.0,0.0,0.0,0.0,0.0,0.0,0.0,0.0,0.0,0.0,0.0,0.0,0.0,0.0,0.0,0.0,0.0,0.0,0.0,0.0,0.0,0.0,0.0,0.0,0.0,0.0,0.0,0.0,0.0,0.0,0.0,0.0,0.0,0.0,0.0,0.0,0.0,0.0,0.0,0.0,0.0,0.0,0.0,0.0,0.0,2.3703,2.4225,2.4838,2.5553,2.6616,0.0,2.9987,3.145,3.2975,3.4242,3.4633,3.4019,3.3106,3.2337,3.0481,2.8502,2.7016,2.5051,0.0,2.3401,2.2656,0.0,0.0,0.0,0.0,2.7242,2.798,2.8434,0.0,2.9402,0.0,2.8712,2.8843,2.8822,0.0,2.9276,2.9477,2.8612,2.8071,2.7409,2.6627,2.5507,2.48,2.4577,2.3942,2.2902,2.1559,2.0949,1.979,1.8248,1.7618,1.7171,1.693,0.0,1.637,1.615,1.6657,1.6886,1.7002,1.7778,1.8443,1.8964,1.9528,1.9687,1.9608,0.0,0.0,0.0,0.0,0.0,0.0,0.0,0.0,0.0,0.0,0.0,0.0,0.0,0.0,0.0,0.0,0.0,0.0,0.0,0.0,0.0,0.0,0.0,0.0,0.0,0.0,0.0,0.0,0.0,0.0,0.0,0.0,0.0,0.0,0.0,0.0,0.0,0.0,0.0,0.0,0.0,0.0,0.0,0.0,0.0,0.0,0.0,0.0,0.0,0.0,1.9925,2.3278,2.4146,2.5196,2.6372,2.7855,2.942,3.0825,3.1716,3.3108,3.4039,3.3015,3.2112,3.1085,2.9444,2.7548,2.5517,2.3409,0.0,2.1876,2.1734,2.0899,2.0803,2.2541,0.0,2.2059,2.4019,2.5296,2.6526,2.7781,2.8971,2.936,2.8559,2.8657,2.8387,2.7538,2.7958,2.8091,2.768,2.6392,2.5402,2.4874,2.387,2.3361,2.3395,2.2865,2.1823,2.0282,1.9785,1.849,1.6483,1.6407,1.6157,1.5715,1.565,1.5618,1.5618,1.6177,1.6468,1.6678,1.765,1.8476,1.9106,1.9577,2.0065,2.0462,0.0,0.0,0.0,0.0,0.0,0.0,0.0,0.0,0.0,0.0,0.0,0.0,0.0,0.0,0.0,0.0,0.0,0.0,0.0,0.0,0.0,0.0,0.0,0.0,0.0,0.0,0.0,0.0,0.0,0.0,0.0,0.0,0.0,0.0,0.0,0.0,0.0,0.0,0.0,0.0,0.0,0.0,0.0,0.0,0.0,0.0,0.0,0.0,0.0,0.0,1.9251,2.2885,2.3795,2.4695,2.577,2.7365,2.8716,2.9832,3.02,3.1319,3.2129,3.1428,3.0068,2.8493,2.7139,2.4867,0.0,0.0,0.0,2.007,2.057,2.0201,2.0378,2.2203,0.0,0.0,0.0,0.0,2.6491,0.0,0.0,0.0,0.0,0.0,0.0,0.0,0.0,2.611,2.6311,2.5242,2.3631,2.1493,2.1233,2.0876,2.0289,2.02,1.9588,1.8529,1.8594,1.801,1.686,1.6569,1.6342,1.6233,1.5791,0.0,1.5618,1.572,1.6241,1.7027,1.7225,1.8148,1.9402,1.9495,1.9717,1.989,0.0,0.0,0.0,0.0,0.0,0.0,0.0,0.0,0.0,0.0,1.1406,1.1763,0.0,0.0,0.0,0.0,0.0,0.0,0.0,0.0,0.0,0.0,0.0,0.0,0.0,0.0,0.0,0.0,0.0,0.0,0.0,0.0,0.0,0.0,0.0,0.0,0.0,0.0,0.0,0.0,0.0,0.0,0.0,0.0,0.0,0.0,0.0,0.0,0.0,0.0,1.6807,2.002,2.1883,2.3377,2.4805,2.6497,2.7683,2.8547,2.9334,3.0193,3.0687,2.9738,2.7876,2.5973,2.4496,0.0,0.0,0.0,1.8905,1.8713,1.9031,0.0,0.0,0.0,0.0,0.0,0.0,0.0,0.0,0.0,0.0,0.0,0.0,0.0,0.0,0.0,0.0,2.4174,2.5692,2.4214,2.2389,2.0268,2.0291,2.0159,1.9825,1.9581,1.887,1.7708,1.778,1.7202,1.5989,1.5822,1.5777,1.5767,1.5598,0.0,1.5495,1.5813,1.6388,1.7069,1.7413,1.8148,1.8933,1.8725,1.8712,1.8782,0.0,0.0,0.0,0.0,0.0,0.0,0.0,0.9731,0.9704,0.9349,0.9497,1.0109,1.1314,1.1015,0.0,0.0,0.0,0.0,0.0,0.0,0.0,0.0,0.0,0.0,0.0,0.0,0.0,0.0,0.0,0.0,0.0,0.0,0.0,0.0,0.0,0.0,0.0,0.0,0.0,0.0,0.0,0.0,0.0,0.0,0.0,0.0,0.0,0.0,0.0,0.0,1.4038,1.641,1.8715,2.1021,2.3234,2.4902,2.5941,2.6761,2.7862,2.8669,2.8886,2.7671,2.5721,2.3724,2.2038,2.0011,0.0,0.0,1.7398,1.764,1.764,0.0,0.0,0.0,0.0,0.0,0.0,0.0,0.0,0.0,0.0,0.0,0.0,0.0,0.0,0.0,0.0,0.0,2.4425,2.3071,2.1418,1.9802,1.9737,1.9675,1.9538,1.9163,1.8298,1.6984,1.6994,1.6302,1.497,1.5088,1.5156,1.5156,1.5254,0.0,0.0,1.5806,1.63,1.6777,1.7336,1.7839,1.8208,1.798,1.7862,1.781,0.0,0.0,0.0,0.0,0.0,0.0,0.0,1.0159,1.044,0.9973,0.9478,0.9189,0.9275,0.9674,0.0,0.0,0.0,0.0,0.0,0.0,0.0,0.0,0.0,0.0,0.0,0.0,0.0,0.0,0.0,0.0,0.0,0.0,0.0,0.0,0.0,0.0,0.0,0.0,0.0,0.0,0.0,0.0,0.0,0.0,0.0,0.0,0.0,0.0,0.0,0.0,0.0,1.2957,1.3685,1.6929,2.0676,2.1854,0.0,0.0,2.4509,2.5495,2.5993,2.4882,2.3615,2.2207,2.0276,0.0,0.0,1.6999,1.6879,1.6905,1.6905,1.6961,0.0,0.0,0.0,0.0,0.0,0.0,0.0,0.0,0.0,0.0,0.0,0.0,0.0,0.0,0.0,0.0,2.145,2.1251,2.0563,1.9291,1.8899,1.8411,1.7772,1.7372,1.6689,1.5882,1.5946,1.5579,1.4715,1.4911,1.5029,1.5029,1.5029,0.0,0.0,1.5088,1.5386,1.5798,1.6172,1.6776,1.7471,1.7785,1.776,1.7552,0.0,0.0,0.0,0.0,0.0,0.0,0.0,0.8955,0.8831,0.8152,0.8114,0.7995,0.7593,0.7977,0.8618,0.0,0.0,0.0,0.0,0.0,0.0,0.0,0.0,0.0,0.0,0.0,0.0,0.0,0.0,0.0,0.0,0.0,0.0,0.0,0.0,0.0,0.0,0.0,0.0,0.0,0.0,0.0,0.0,0.0,0.0,0.0,0.0,0.0,0.0,0.0,0.0,0.0,1.0867,1.2542,0.0,0.0,2.0398,2.1725,2.2747,2.3754,2.4249,2.3094,2.1194,1.9335,1.8328,0.0,1.5463,1.5164,1.5073,1.4971,1.4971,1.4936,1.5143,0.0,0.0,0.0,0.0,0.0,0.0,0.0,0.0,0.0,0.0,0.0,0.0,0.0,0.0,0.0,1.8774,1.9773,1.9603,1.7942,1.7914,1.7558,1.6828,1.6655,1.6184,1.5384,1.503,1.4442,1.3695,1.4038,1.424,1.424,1.4793,0.0,0.0,1.497,1.5217,1.5595,1.5756,1.6153,1.6617,1.6539,1.6471,1.6357,0.0,0.0,0.0,0.0,0.0,0.0,0.6924,0.7211,0.711,0.644,0.6655,0.6753,0.643,0.6704,0.7376,0.8559,0.0,0.0,0.0,0.0,0.0,0.0,0.0,0.0,0.0,0.0,0.0,0.0,0.0,0.0,0.0,0.0,0.0,0.0,0.0,0.0,0.0,0.0,0.0,0.0,0.0,0.0,0.0,0.0,0.0,0.0,0.0,0.0,0.0,0.0,0.0,0.0,0.0,0.0,0.0,0.0,1.7262,1.8761,1.9945,2.106,2.1572,2.0538,1.8719,1.7066,0.0,0.0,1.392,1.3884,1.3789,1.3684,1.3732,1.3714,1.3957,0.0,0.0,0.0,0.0,0.0,0.0,0.0,0.0,0.0,0.0,0.0,0.0,0.0,0.0,1.7082,1.6919,1.7882,1.7854,1.6665,1.6641,1.6383,1.5863,1.5644,1.5197,1.4643,1.4073,1.3452,1.2829,1.3157,1.3291,1.326,1.3979,0.0,0.0,1.4487,1.4753,1.5022,1.5214,1.5378,1.5482,1.52,1.5097,1.5109,0.0,0.0,0.0,0.0,0.0,0.0,0.0,0.5051,0.5698,0.536,0.5372,0.5553,0.5877,0.6077,0.6347,0.6691,0.0,0.0,0.0,0.0,0.0,0.0,0.0,0.0,0.0,0.0,0.0,0.0,0.0,0.0,0.0,0.0,0.0,0.0,0.0,0.0,0.0,0.0,0.0,0.0,0.0,0.0,0.0,0.0,0.0,0.0,0.0,0.0,0.0,0.0,0.0,0.0,0.0,0.0,0.0,0.0,1.3211,1.4545,1.5499,1.6732,1.7532,1.6569,1.6224,1.5871,0.0,0.0,1.3779,1.361,1.3515,1.342,1.3563,1.3826,1.4165,1.4623,0.0,0.0,0.0,0.0,0.0,0.0,0.0,0.0,0.0,0.0,0.0,0.0,0.0,0.0,1.6003,1.5385,1.5249,1.5571,1.495,1.4605,1.4605,1.3993,1.3585,1.3446,1.3112,1.2778,1.2444,1.2436,1.2261,1.205,0.0,0.0,0.0,1.3255,1.358,1.358,1.4267,1.4268,1.3901,1.3892,1.3892,1.3892,0.0,0.0,0.0,0.0,0.0,0.0,0.0,0.432,0.4951,0.4828,0.5092,0.5253,0.5221,0.5671,0.6029,0.6089,0.0,0.0,0.0,0.0,0.0,0.0,0.0,0.0,0.0,0.0,0.0,0.0,0.0,0.0,0.0,0.0,0.0,0.0,0.0,0.0,0.0,0.0,0.0,0.0,0.0,0.0,0.0,0.0,0.0,0.0,0.0,0.0,0.0,0.0,0.0,0.0,0.0,0.0,0.0,0.0,0.0,0.0,1.4361,1.5078,1.5432,1.4686,1.4066,1.3461,1.2915,0.0,1.2344,1.2304,1.2255,1.2255,1.2304,1.2358,1.2614,1.331,1.3301,0.0,0.0,0.0,0.0,0.0,0.0,0.0,0.0,0.0,0.0,0.0,1.4889,1.4455,1.4177,1.3353,1.3277,1.4161,1.4186,1.3848,1.32,1.3342,1.3357,1.3064,1.2255,1.1696,1.1391,1.1417,1.1416,0.0,0.0,0.0,0.0,1.2375,1.2484,1.2488,1.2497,1.268,1.2886,1.2702,1.2961,1.3368,0.0,0.0,0.0,0.0,0.0,0.0,0.0,0.3038,0.3603,0.366,0.4008,0.4257,0.4303,0.4804,0.5127,0.5119,0.0,0.0,0.0,0.0,0.0,0.0,0.0,0.0,0.0,0.0,0.0,0.0,0.0,0.0,0.0,0.0,0.0,0.0,0.0,0.0,0.0,0.0,0.0,0.0,0.0,0.0,0.6767,0.0,0.0,0.0,0.0,0.0,0.0,0.0,0.0,0.0,0.0,0.0,0.0,0.0,0.9503,0.0,0.0,1.2647,1.29,1.2187,1.1826,0.0,0.0,0.0,1.1049,1.1049,1.0998,1.0998,1.1049,1.1006,1.1137,1.1922,1.1809,0.0,0.0,0.0,0.0,0.0,0.0,0.0,0.0,0.0,0.0,0.0,1.3213,1.2885,1.2565,1.1903,1.1756,1.2269,1.268,1.2566,1.185,1.2191,1.2342,1.2198,1.1484,1.094,1.066,1.0698,1.0606,0.0,0.0,0.0,0.0,1.1529,1.1696,1.1596,1.1441,1.1608,1.1832,1.1469,1.1776,1.2455,0.0,0.0,0.0,0.0,0.0,0.0,0.0,0.0,0.0,0.0,0.2436,0.2836,0.3304,0.3656,0.3918,0.0,0.0,0.0,0.0,0.0,0.0,0.0,0.0,0.0,0.0,0.0,0.0,0.5383,0.5648,0.5884,0.6101,0.0,0.0,0.0,0.0,0.0,0.0,0.6005,0.6005,0.6019,0.6392,0.6656,0.0,0.0,0.0,0.0,0.0,0.0,0.0,0.0,0.0,0.0,0.0,0.0,0.0,0.0,0.0,0.0,0.0,0.0,0.0,0.0,0.0,0.0,0.0,0.0,0.0,0.0,0.0,0.9821,0.994,0.9747,0.9863,1.0627,0.0,0.0,0.0,0.0,0.0,0.0,0.0,0.0,0.0,0.0,0.0,1.0913,1.1124,1.1238,1.1204,1.0987,1.0627,1.0191,1.0704,1.0863,1.0623,1.0641,1.0773,1.1007,1.0743,1.0485,1.0233,1.0209,0.994,0.0,0.0,0.0,0.0,1.0718,1.0962,1.0857,1.0843,1.0869,1.077,1.0144,1.0473,1.1288,0.0,0.0,0.0,0.0,0.0,0.0,0.0,0.0,0.0,0.0,0.0,0.2699,0.3721,0.3737,0.0,0.0,0.0,0.0,0.0,0.0,0.0,0.0,0.0,0.0,0.0,0.0,0.0,0.5081,0.5428,0.5716,0.6025,0.6025,0.0,0.0,0.0,0.5858,0.5662,0.6104,0.6201,0.604,0.6474,0.6696,0.0,0.0,0.0,0.0,0.6999,0.6956,0.0,0.0,0.0,0.0,0.0,0.0,0.0,0.0,0.7391,0.7405,0.7525,0.0,0.8582,0.8585,0.8844,0.0,0.0,0.0,0.0,0.0,0.0,0.0,0.0,0.0,0.0,0.0,0.0,0.0,0.0,0.0,0.0,0.0,0.0,0.0,0.0,0.0,0.0,1.093,1.097,1.0833,1.0513,1.0364,1.0096,0.9582,0.9892,1.0072,1.0008,1.0199,1.0327,1.0385,1.013,0.9869,0.9609,0.9412,0.9261,0.0,0.0,0.0,0.9215,0.9596,0.9591,0.9371,0.9269,0.9405,0.9556,0.9231,0.9546,1.0187,0.0,0.0,0.0,0.0,0.0,0.0,0.0,0.0,0.0,0.0,0.0,0.0,0.0,0.0,0.0,0.0,0.0,0.0,0.0,0.0,0.0,0.0,0.0,0.0,0.0,0.0,0.0,0.0,0.0,0.5623,0.0,0.0,0.0,0.0,0.0,0.5764,0.4914,0.5828,0.5993,0.5689,0.592,0.0,0.0,0.0,0.0,0.0,0.6829,0.666,0.0,0.6313,0.627,0.6227,0.0,0.0,0.0,0.0,0.681,0.6683,0.681,0.7242,0.7608,0.7555,0.7776,0.8039,0.0,0.0,0.0,0.0,0.0,0.0,0.0,0.0,0.0,0.0,0.0,0.0,0.0,0.0,0.0,0.0,0.0,0.0,0.0,0.0,0.9169,0.8956,0.9175,0.9225,0.8983,0.9171,0.9193,0.8974,0.889,0.9178,0.9782,0.9919,1.0096,1.0319,0.9959,0.9708,0.9559,0.9302,0.9125,0.0,0.0,0.0,0.9017,0.9145,0.9,0.8807,0.861,0.8576,0.8583,0.8302,0.862,0.9145,0.0,0.0,0.0,0.0,0.0,0.0,0.0,0.0,0.0,0.0,0.0,0.0,0.0,0.0,0.0,0.0,0.0,0.0,0.0,0.0,0.0,0.0,0.0,0.0,0.0,0.0,0.0,0.0,0.0,0.0,0.0,0.0,0.5431,0.0,0.0,0.5547,0.4205,0.5371,0.5619,0.524,0.5236,0.0,0.0,0.0,0.0,0.0,0.0,0.0,0.0,0.5696,0.561,0.5524,0.5399,0.0,0.0,0.0,0.0,0.0,0.6386,0.6712,0.6844,0.6481,0.6758,0.711,0.0,0.0,0.0,0.0,0.0,0.0,0.0,0.0,0.0,0.0,0.0,0.0,0.0,0.0,0.0,0.0,0.0,0.0,0.0,0.6878,0.6745,0.6678,0.7118,0.7405,0.7384,0.774,0.7937,0.8006,0.772,0.8098,0.9222,0.9441,0.974,1.0096,0.9729,0.9441,0.9361,0.9107,0.8882,0.8753,0.0,0.0,0.8952,0.8952,0.8851,0.8577,0.8371,0.8097,0.7806,0.7595,0.7836,0.8262,0.0,0.0,0.0,0.0,0.0,0.0,0.0,0.0,0.0,0.0,0.0,0.0,0.0,0.0,0.0,0.0,0.0,0.0,0.0,0.0,0.0,0.0,0.0,0.0,0.0,0.0,0.0,0.0,0.0,0.0,0.517,0.5094,0.5081,0.0,0.0,0.5091,0.4411,0.4969,0.5124,0.4984,0.5214,0.0,0.0,0.0,0.0,0.0,0.0,0.0,0.0,0.5,0.4952,0.4913,0.4787,0.0,0.0,0.0,0.0,0.0,0.561,0.5647,0.5779,0.597,0.6574,0.7046,0.0,0.0,0.0,0.0,0.0,0.0,0.0,0.0,0.0,0.0,0.0,0.0,0.0,0.0,0.0,0.0,0.0,0.0,0.6574,0.6634,0.6693,0.667,0.6744,0.6757,0.6618,0.6659,0.6592,0.6406,0.6281,0.6388,0.6761,0.7678,0.822,0.8455,0.8216,0.782,0.7318,0.7323,0.7344,0.7507,0.0,0.8047,0.8576,0.877,0.8561,0.8142,0.8238,0.7995,0.7572,0.7532,0.7574,0.7622,0.0,0.0,0.0,0.0,0.0,0.0,0.0,0.0,0.0,0.0,0.0,0.0,0.0,0.0,0.0,0.0,0.0,0.0,0.0,0.0,0.0,0.0,0.0,0.0,0.0,0.0,0.0,0.0,0.0,0.4332,0.5015,0.4933,0.4678,0.4373,0.4934,0.4626,0.3709,0.4471,0.4607,0.431,0.0,0.0,0.0,0.0,0.0,0.0,0.0,0.0,0.0,0.0,0.4172,0.4176,0.4005,0.0,0.0,0.0,0.0,0.0,0.4648,0.4709,0.4785,0.4578,0.5304,0.6029,0.0,0.0,0.0,0.0,0.0,0.0,0.0,0.0,0.0,0.0,0.0,0.0,0.0,0.0,0.0,0.0,0.0,0.4958,0.4961,0.4984,0.4989,0.4919,0.4982,0.5027,0.4971,0.4963,0.496,0.5044,0.4845,0.4806,0.5008,0.5413,0.6177,0.7291,0.6933,0.6709,0.6515,0.641,0.6396,0.6527,0.0,0.7125,0.7772,0.7856,0.7861,0.7903,0.7841,0.7627,0.73,0.73,0.7306,0.7419,0.0,0.0,0.0,0.0,0.0,0.0,0.0,0.0,0.0,0.0,0.0,0.0,0.0,0.0,0.0,0.0,0.0,0.0,0.0,0.0,0.0,0.0,0.0,0.0,0.0,0.0,0.3791,0.4306,0.3704,0.3842,0.459,0.4556,0.429,0.0,0.4427,0.4117,0.3157,0.3932,0.4035,0.3703,0.0,0.0,0.0,0.0,0.0,0.0,0.0,0.0,0.0,0.0,0.0,0.0,0.0,0.0,0.0,0.3957,0.4089,0.4212,0.3822,0.3871,0.3929,0.3354,0.0,0.0,0.0,0.0,0.0,0.0,0.0,0.0,0.0,0.0,0.0,0.0,0.0,0.0,0.0,0.0,0.3535,0.3977,0.3652,0.3448,0.3583,0.3445,0.3295,0.3297,0.3289,0.3358,0.3428,0.3423,0.3515,0.3804,0.3502,0.345,0.3595,0.3452,0.4316,0.616,0.5738,0.5621,0.5761,0.561,0.5522,0.5556,0.5727,0.6155,0.6839,0.6809,0.7054,0.74,0.7229,0.7133,0.7085,0.7085,0.7144,0.7257,0.0,0.0,0.0,0.0,0.0,0.0,0.0,0.0,0.0,0.0,0.0,0.0,0.0,0.0,0.0,0.0,0.0,0.0,0.0,0.0,0.0,0.0,0.0,0.0,0.0,0.304,0.325,0.3134,0.2927,0.304,0.3448,0.3738,0.381,0.3719,0.3623,0.3506,0.3361,0.3454,0.3416,0.3347,0.3543,0.0,0.0,0.0,0.0,0.0,0.0,0.0,0.0,0.0,0.0,0.0,0.0,0.0,0.3303,0.3258,0.3605,0.3822,0.3388,0.3265,0.317,0.2778,0.0,0.0,0.0,0.0,0.0,0.0,0.0,0.0,0.0,0.0,0.0,0.0,0.0,0.0,0.0,0.0,0.3479,0.357,0.3493,0.3495,0.3507,0.3139,0.2875,0.287,0.2592,0.2385,0.2385,0.238,0.2381,0.246,0.2323,0.229,0.2362,0.229,0.3133,0.4746,0.4546,0.4417,0.4461,0.4408,0.4424,0.451,0.476,0.5182,0.5722,0.5751,0.6046,0.6425,0.6411,0.6677,0.7085,0.7085,0.7085,0.7139,0.0,0.0,0.0,0.0,0.0,0.0,0.0,0.0,0.0,0.0,0.0,0.0,0.0,0.0,0.0,0.0,0.0,0.0,0.0,0.0,0.0,0.0,0.0,0.2083,0.2181,0.2537,0.2805,0.2924,0.2811,0.2593,0.2391,0.2713,0.0,0.0,0.0,0.2509,0.2467,0.2467,0.2636,0.2903,0.3075,0.335,0.0,0.0,0.0,0.0,0.0,0.0,0.0,0.0,0.264,0.2551,0.0,0.2682,0.2951,0.2726,0.2901,0.3081,0.2684,0.2599,0.2565,0.2182,0.0,0.0,0.0,0.0,0.0,0.0,0.0,0.0,0.0,0.0,0.0,0.0,0.0,0.0,0.307,0.3037,0.3004,0.2835,0.2802,0.2777,0.2777,0.257,0.246,0.246,0.205,0.1845,0.1845,0.164,0.1571,0.1571,0.1556,0.1547,0.1547,0.1547,0.1941,0.272,0.2943,0.2971,0.3001,0.2969,0.3109,0.3288,0.3579,0.4126,0.4846,0.481,0.5157,0.5746,0.5632,0.594,0.6534,0.6534,0.6756,0.7085,0.0,0.0,0.0,0.0,0.0,0.0,0.0,0.0,0.0,0.0,0.0,0.0,0.0,0.0,0.0,0.0,0.0,0.0,0.0,0.0,0.0,0.0,0.0,0.1759,0.1621,0.1726,0.2098,0.2674,0.2593,0.2277,0.1803,0.0,0.0,0.0,0.0,0.0,0.0,0.1953,0.212,0.2396,0.2587,0.2901,0.0,0.0,0.0,0.0,0.0,0.0,0.0,0.0,0.1967,0.0,0.0,0.0,0.0,0.0,0.1876,0.2014,0.1792,0.1753,0.1716,0.0,0.0,0.0,0.0,0.0,0.0,0.0,0.0,0.0,0.0,0.0,0.0,0.0,0.2629,0.271,0.2378,0.2475,0.2567,0.2313,0.2297,0.2286,0.2286,0.2111,0.2018,0.2018,0.1681,0.1412,0.1413,0.1212,0.1072,0.1063,0.1072,0.1067,0.1048,0.1057,0.1178,0.1399,0.1703,0.1926,0.2192,0.2192,0.2289,0.242,0.2596,0.3071,0.3567,0.3527,0.4025,0.4735,0.4979,0.5332,0.5769,0.5769,0.6154,0.6642,0.0,0.0,0.0,0.0,0.0,0.0,0.0,0.0,0.0,0.0,0.0,0.0,0.0,0.0,0.0,0.0,0.0,0.0,0.0,0.0,0.0,0.0,0.0,0.0943,0.0799,0.0589,0.1057,0.2187,0.218,0.2058,0.1794,0.2148,0.0,0.0,0.0,0.0,0.0,0.2017,0.2004,0.189,0.2063,0.2279,0.2595,0.0,0.0,0.0,0.0,0.0,0.0,0.0,0.0805,0.0671,0.0,0.0,0.0,0.0537,0.0582,0.0716,0.0716,0.0692,0.0672,0.0,0.0,0.0,0.0,0.0,0.0,0.0,0.0,0.0,0.0,0.0,0.0,0.1269,0.1634,0.1808,0.1347,0.1785,0.2131,0.2071,0.2117,0.2154,0.2154,0.1817,0.1547,0.1614,0.1277,0.1076,0.1079,0.1079,0.1065,0.097,0.1063,0.105,0.0989,0.1018,0.1018,0.0988,0.1019,0.1355,0.2063,0.2064,0.203,0.1971,0.2036,0.1964,0.1797,0.1857,0.2475,0.34,0.4453,0.4897,0.4897,0.4897,0.5167,0.5601,0.0,0.0,0.0,0.0,0.0,0.0,0.0,0.0,0.0,0.0,0.0,0.0,0.0,0.0,0.0,0.0,0.0,0.0,0.0,0.0,0.0,0.0,0.0,0.0,0.0,0.0,0.0708,0.1094,0.1385,0.1375,0.0,0.0,0.0,0.1121,0.0,0.0,0.0,0.1116,0.1379,0.176,0.1782,0.2012,0.2235,0.0,0.0,0.0,0.0,0.0,0.0,0.0,0.0,0.0,0.0,0.0,0.0,0.0447,0.0492,0.0582,0.0582,0.0646,0.0,0.0,0.0,0.0,0.0,0.0,0.0,0.0,0.0,0.0,0.0,0.0,0.0,0.0643,0.0779,0.0787,0.0464,0.0869,0.1005,0.0332,0.0602,0.0874,0.0874,0.0134,0.0134,0.1146,0.0336,0.0202,0.1079,0.086,0.0652,0.0646,0.0065,0.0192,0.105,0.0254,0.0191,0.0988,0.1019,0.1086,0.1316,0.1369,0.1359,0.13,0.1612,0.184,0.1916,0.1891,0.2075,0.246,0.3019,0.3516,0.4012,0.4177,0.4618,0.5167,0.0,0.0,0.0,0.0,0.0,0.0,0.0,0.0,0.0,0.0,0.0,0.0,0.0,0.0,0.0,0.0,0.0,0.0,0.0,0.0,0.0,0.0,0.0,0.0,0.0,0.0248,0.0265,0.0,0.0,0.0,0.0,0.0,0.0,0.0719,0.0,0.0629,0.0,0.0,0.0718,0.1032,0.1032,0.1256,0.1523,0.0,0.0,0.0,0.0,0.0,0.0,0.0,0.0,0.0,0.0,0.0,0.0,-0.0224,-0.0224,-0.0134,-0.009,0.0,0.0,0.0,0.0,0.0,0.0,0.0,0.0,0.0,0.0,0.0,0.0,-0.0587,0.0,-0.0458,-0.0329,-0.033,-0.0924,-0.0462,-0.0263,-0.0845,-0.059,-0.0394,-0.0325,-0.0928,-0.0936,0.0066,-0.0594,-0.0594,0.033,0.0065,-0.0256,-0.0634,-0.1152,-0.0946,0.0061,-0.0616,-0.0616,-0.0,-0.0,0.0251,0.0741,0.0907,0.0975,0.107,0.1289,0.1457,0.1571,0.1661,0.1732,0.1737,0.2073,0.2516,0.2903,0.3178,0.3624,0.4177,0.0,0.0,0.0,0.0,0.0,0.0,0.0,0.0,0.0,0.0,0.0,0.0,0.0,0.0,0.0,0.0,0.0,0.0,0.0,0.0,0.0,0.0,0.0,0.0,0.0,0.0,0.0,0.0,0.0,0.0,0.0,0.0,0.0584,0.0584,0.0,0.0404,0.0,0.0135,0.0045,-0.009,-0.009,0.018,0.0494,0.0494,0.0,0.0,0.0,0.0,0.0,0.0,0.0,0.0,-0.1075,-0.1076,-0.1033,-0.1256,-0.1254,-0.1165,-0.0988,0.0,0.0,0.0,0.0,0.0,0.0,0.0,0.0,0.0,0.0,0.0,0.0,-0.1094,-0.1073,-0.1862,-0.1573,-0.1545,-0.2444,-0.1922,-0.1519,-0.1601,-0.151,-0.1456,-0.1358,-0.1614,-0.1712,-0.1474,-0.1599,-0.147,-0.1087,-0.1212,-0.1701,-0.2397,-0.2461,-0.2243,-0.1705,-0.1595,-0.1599,-0.1719,-0.1766,-0.111,-0.0,0.0383,0.0713,0.0971,0.094,0.0913,0.0891,0.1237,0.1328,0.1296,0.1625,0.1734,0.179,0.2071,0.2462,0.285,0.0,0.0,0.0,0.0,0.0,0.0,0.0,0.0,0.0,0.0,0.0,0.0,0.0,0.0,0.0,0.0,0.0,0.0,0.0,0.0,0.0,0.0,0.0,0.0,0.0,0.0,0.0,0.0,0.0,0.0,0.0,0.0,0.0,-0.0179,0.0,-0.0313,-0.0493,-0.0493,-0.0672,-0.0941,-0.0672,-0.0716,-0.0986,-0.1162,-0.1385,0.0,0.0,0.0,0.0,0.0,0.0,0.0,-0.1569,-0.1611,-0.1564,-0.1433,-0.1566,-0.1698,0.0,-0.1218,0.0,0.0,0.0,0.0,0.0,0.0,0.0,0.0,0.0,0.0,-0.2342,-0.2327,-0.2383,-0.2817,-0.2754,-0.2638,-0.2895,-0.2331,-0.2103,-0.2523,-0.2225,-0.1918,-0.1906,-0.2615,-0.2754,-0.2178,-0.2987,-0.3361,-0.2991,-0.3045,-0.3237,-0.352,-0.3681,-0.361,-0.3365,-0.3463,-0.3479,-0.3416,-0.3566,-0.3448,-0.2937,-0.1183,-0.0133,0.0266,0.0316,0.0374,0.0377,0.0819,0.0975,0.0989,0.1303,0.1402,0.1457,0.1792,0.1958,0.2125,0.0,0.0,0.0,0.0,0.0,0.0,0.0,0.0,0.0,0.0,0.0,0.0,0.0,0.0,0.0,0.0,0.0,0.0,0.0,0.0,0.0,0.0,0.0,0.0,0.0,0.0,0.0,0.0,0.0,0.0,0.0,0.0,0.0,-0.0403,0.0,-0.0626,-0.0985,-0.0985,-0.1299,-0.1748,-0.1569,-0.1792,-0.2286,-0.2415,-0.2368,-0.2235,-0.2504,0.0,0.0,0.0,0.0,0.0,0.0,0.0,-0.2099,-0.1834,-0.2055,-0.2322,0.0,0.0,0.0,0.0,0.0,0.0,0.0,0.0,0.0,0.0,0.0,0.0,-0.2764,-0.2772,-0.2902,-0.3226,-0.3249,-0.3277,-0.34,-0.3127,-0.3004,-0.3308,-0.3064,-0.2926,-0.2941,-0.3445,-0.361,-0.3255,-0.3735,-0.398,-0.38,-0.3741,-0.3765,-0.3826,-0.3946,-0.3949,-0.3829,-0.3835,-0.3835,-0.3827,-0.4014,-0.3952,-0.3712,-0.2194,-0.1111,-0.0452,-0.0381,-0.0125,0.0246,0.0528,0.0747,0.0921,0.1035,0.1081,0.1125,0.1484,0.1591,0.1624,0.0,0.0,0.0,0.0,0.0,0.0,0.0,0.0,0.0,0.0,0.0,0.0,0.0,0.0,0.0,0.0,0.0,0.0,0.0,0.0,0.0,0.0,0.0,0.0,0.0,0.0,0.0,0.0,0.0,0.0,0.0,0.0,0.0,-0.0582,0.0,0.0,-0.1433,-0.1433,-0.1837,-0.2469,-0.2514,-0.2781,-0.3141,-0.323,-0.3001,-0.2729,-0.2773,-0.2593,-0.2366,-0.2366,0.0,0.0,0.0,0.0,-0.2549,-0.2322,-0.2588,-0.2898,0.0,0.0,0.0,0.0,0.0,0.0,0.0,0.0,0.0,0.0,0.0,-0.2934,-0.295,-0.3015,-0.3077,-0.3447,-0.3496,-0.3542,-0.3843,-0.3859,-0.3782,-0.3782,-0.384,-0.3855,-0.3863,-0.4051,-0.4192,-0.4143,-0.4076,-0.4016,-0.4016,-0.3897,-0.384,-0.384,-0.3859,-0.387,-0.387,-0.3795,-0.3806,-0.3842,-0.3823,-0.3688,-0.3505,-0.2828,-0.2116,-0.1349,-0.1193,-0.0681,-0.0,0.0117,0.0404,0.068,0.0753,0.0808,0.0851,0.116,0.1269,0.1302,0.0,0.0,0.0,0.0,0.0,0.0,0.0,0.0,0.0,0.0,0.0,0.0,0.0,0.0,0.0,0.0,0.0,0.0,0.0,0.0,0.0,0.0,0.0,0.0,0.0,0.0,0.0,0.0,0.0,0.0,0.0,0.0,0.0,-0.1254,0.0,0.0,-0.1975,-0.1975,-0.2333,-0.2823,-0.2904,-0.2907,-0.2957,-0.3268,-0.3262,-0.317,-0.3398,-0.3445,-0.3398,-0.3398,-0.3126,0.0,0.0,0.0,-0.3081,-0.2854,-0.312,-0.3385,0.0,0.0,0.0,0.0,0.0,0.0,0.0,0.0,0.0,0.0,-0.3345,-0.292,-0.3247,-0.3326,-0.3447,-0.3753,-0.3787,-0.3778,-0.3834,-0.3786,-0.3822,-0.3822,-0.3878,-0.3987,-0.3968,-0.3999,-0.4014,-0.4051,-0.3993,-0.3993,-0.3993,-0.3878,-0.3878,-0.3993,-0.3989,-0.4051,-0.4167,-0.4261,-0.4258,-0.4157,-0.3924,-0.3642,-0.3324,-0.3411,-0.3127,-0.2608,-0.1902,-0.1504,-0.1281,-0.0578,-0.0286,-0.0175,0.0171,0.0344,0.0409,0.0797,0.0975,0.0996,0.0,0.0,0.0,0.0,0.0,0.0,0.0,0.0,0.0,0.0,0.0,0.0,0.0,0.0,0.0,0.0,0.0,0.0,0.0,0.0,0.0,-0.5813,-0.3582,-0.261,0.0,0.0,0.0,0.0,0.0,0.0,0.0,-0.2322,-0.1923,0.0,0.0,0.0,0.0,0.0,-0.2551,-0.2948,-0.2951,-0.3084,-0.3347,-0.348,-0.3524,-0.3615,-0.3707,-0.3711,-0.3581,-0.3581,-0.3442,-0.3306,-0.3527,0.0,0.0,0.0,-0.3609,0.0,0.0,0.0,0.0,0.0,0.0,0.0,0.0,0.0,0.0,0.0,-0.4061,-0.3948,-0.3837,-0.3848,-0.3903,-0.4019,-0.4029,-0.3934,-0.3716,-0.3669,-0.3691,-0.3691,-0.3749,-0.3802,-0.3855,-0.391,-0.3965,-0.4079,-0.4024,-0.4024,-0.4079,-0.3965,-0.3965,-0.4021,-0.4023,-0.4056,-0.4113,-0.4168,-0.4082,-0.3964,-0.3784,-0.3586,-0.3369,-0.3358,-0.3179,-0.279,-0.2554,-0.2132,-0.1574,-0.119,-0.0791,-0.0401,-0.023,-0.0,0.0287,0.0461,0.069,0.0917,0.0,0.0,0.0,0.0,0.0,0.0,0.0,0.0,0.0,0.0,0.0,0.0,0.0,0.0,0.0,0.0,0.0,0.0,0.0,0.0,0.0,-0.8827,-0.5483,-0.3999,-0.4757,0.0,0.0,0.0,0.0,0.0,-0.3075,-0.3208,-0.2721,0.0,-0.237,0.0,0.0,0.0,0.0,0.0,-0.3341,-0.353,-0.3778,-0.389,-0.396,-0.3965,-0.4056,-0.3968,-0.3884,-0.3928,-0.3972,-0.3972,-0.4056,-0.41,0.0,0.0,0.0,0.0,0.0,0.0,0.0,0.0,0.0,0.0,0.0,0.0,0.0,0.0,-0.4641,-0.4794,-0.4666,-0.4508,-0.4398,-0.4398,-0.4398,-0.4236,-0.3802,-0.3802,-0.3805,-0.3805,-0.3749,-0.3802,-0.4021,-0.3965,-0.3965,-0.4193,-0.4135,-0.4187,-0.4245,-0.4135,-0.4079,-0.4135,-0.4079,-0.4079,-0.4132,-0.4079,-0.4024,-0.3907,-0.3707,-0.3593,-0.3453,-0.3308,-0.3108,-0.2876,-0.3004,-0.2662,-0.1958,-0.179,-0.1399,-0.0843,-0.0634,-0.0403,-0.0114,0.0058,0.0403,0.0738,0.0,0.0,0.0,0.0,0.0,0.0,0.0,0.0,0.0,0.0,0.0,0.0,0.0,0.0,0.0,-1.2613,-1.1559,-1.0941,-1.1175,-1.1059,-1.1053,-1.1213,-0.865,0.0,-0.7952,0.0,0.0,0.0,0.0,0.0,-0.3561,-0.4005,-0.3741,-0.281,-0.2946,-0.312,-0.3337,0.0,0.0,0.0,-0.4456,-0.4386,-0.397,0.0,0.0,0.0,0.0,-0.4574,-0.4574,-0.4836,-0.4923,-0.4879,-0.4661,-0.4574,-0.453,0.0,0.0,0.0,0.0,0.0,0.0,0.0,0.0,0.0,0.0,0.0,0.0,0.0,-0.4923,-0.4881,-0.5747,-0.534,-0.4846,-0.4846,-0.4846,-0.4677,-0.4233,-0.4349,-0.4463,-0.4463,-0.4187,-0.4135,-0.4632,-0.4359,-0.4193,-0.4193,-0.4356,-0.4463,-0.4463,-0.4301,-0.4301,-0.4463,-0.4301,-0.4301,-0.4463,-0.4301,-0.4193,-0.4193,-0.3904,-0.3727,-0.3564,-0.3448,-0.3395,-0.3348,-0.3086,-0.3037,-0.2963,-0.2406,-0.2127,-0.2017,-0.1348,-0.1031,-0.0996,-0.0512,-0.0057,0.0353,0.0,0.0,0.0,0.0,0.0,0.0,0.0,0.0,0.0,0.0,0.0,0.0,0.0,0.0,-1.5119,-1.4935,-1.5526,-1.6169,-1.6809,-1.5124,-1.3625,-1.2602,-0.9591,-0.7536,-0.6598,-0.5528,0.0,0.0,0.0,-0.4578,-0.3928,-0.4188,-0.414,-0.3785,-0.3748,-0.3609,-0.3426,-0.3697,0.0,0.0,-0.4043,-0.4208,-0.4629,0.0,0.0,0.0,0.0,0.0,-0.4618,-0.4705,-0.4879,-0.5005,-0.4923,-0.4966,-0.5048,-0.5178,0.0,0.0,0.0,0.0,0.0,0.0,0.0,0.0,0.0,0.0,0.0,-0.5277,-0.5371,-0.5566,-0.6111,-0.5855,-0.5664,-0.5819,-0.5873,-0.571,-0.5277,-0.5281,-0.5336,-0.5336,-0.5226,-0.5226,-0.5395,-0.5285,-0.5117,-0.4783,-0.4838,-0.4787,-0.4519,-0.4408,-0.4408,-0.4519,-0.4408,-0.4408,-0.4519,-0.4408,-0.4301,-0.4193,-0.4024,-0.3831,-0.373,-0.3599,-0.3554,-0.3515,-0.3436,-0.325,-0.3074,-0.2852,-0.2573,-0.2183,-0.1905,-0.1525,-0.1084,-0.0902,-0.0565,-0.0171,0.0,0.0,0.0,0.0,0.0,0.0,0.0,0.0,0.0,0.0,0.0,0.0,0.0,0.0,-1.7457,-1.7202,-1.8268,-1.9197,-1.98,-1.7368,-1.54,-1.4278,-1.0542,-0.8066,-0.7082,-0.5996,0.0,0.0,0.0,0.0,0.0,-0.4666,-0.4666,-0.453,-0.4495,-0.4224,0.0,0.0,0.0,-0.4699,0.0,-0.4641,-0.5084,0.0,0.0,0.0,0.0,0.0,0.0,0.0,-0.5514,-0.5587,-0.5545,0.0,0.0,0.0,0.0,0.0,0.0,0.0,0.0,0.0,0.0,0.0,0.0,0.0,-0.5377,-0.5301,-0.5553,-0.5917,-0.6243,-0.6338,-0.6401,-0.6627,-0.6637,-0.6475,-0.6041,-0.5987,-0.5987,-0.5987,-0.5878,-0.5828,-0.5987,-0.5932,-0.571,-0.5433,-0.5433,0.0,-0.5062,-0.5066,-0.5066,-0.5066,-0.5066,-0.5066,-0.5066,-0.5066,-0.5011,-0.4849,-0.4732,-0.4618,-0.4505,-0.4196,-0.3993,-0.3962,-0.3929,-0.367,-0.3244,-0.313,-0.2852,-0.2462,-0.2294,-0.1905,-0.1457,-0.1346,-0.1066,-0.0617,0.0,0.0,0.0,0.0,0.0,0.0,0.0,0.0,0.0,0.0,0.0,0.0,0.0,0.0,0.0,-1.943,-1.9499,-1.949,-1.9499,-1.7554,-1.6364,-1.6306,-1.1741,-0.9399,-0.9787,-0.7128,0.0,0.0,0.0,0.0,0.0,0.0,-0.5313,-0.5048,-0.5221,-0.5091,-0.4661,0.0,-0.5285,-0.5333,0.0,-0.567,-0.5392,0.0,0.0,0.0,-0.6155,-0.6459,0.0,-0.7041,0.0,0.0,0.0,0.0,0.0,0.0,0.0,0.0,0.0,0.0,0.0,0.0,0.0,0.0,0.0,0.0,-0.5086,-0.5281,-0.5462,-0.5764,-0.6315,-0.6762,-0.7115,-0.7079,-0.7128,-0.6972,-0.6524,-0.6465,-0.6465,-0.6465,-0.6095,-0.6041,-0.6411,-0.6195,-0.6032,-0.6032,-0.615,-0.6209,-0.6209,-0.6209,-0.6209,-0.6209,-0.6209,-0.6209,-0.6209,-0.6209,-0.6209,-0.6209,-0.6036,-0.5977,-0.5977,-0.5222,-0.4842,-0.4725,-0.457,-0.4187,-0.3638,-0.3299,-0.313,-0.3074,-0.2462,-0.224,-0.2184,-0.1908,-0.1515,-0.1122,0.0,0.0,0.0,0.0,0.0,0.0,0.0,0.0,0.0,0.0,0.0,0.0,0.0,0.0,0.0,-1.9462,-1.9513,-1.9467,-1.9423,-1.902,-1.8017,-1.6366,-1.3577,-1.1362,-0.9834,-0.7494,0.0,0.0,0.0,0.0,0.0,0.0,0.0,0.0,-0.5739,-0.5782,-0.575,-0.5415,0.0,0.0,-0.567,-0.5843,0.0,0.0,0.0,0.0,0.0,-0.6811,-0.6683,0.0,-0.6932,-0.7058,0.0,0.0,0.0,0.0,0.0,0.0,-0.6258,0.0,0.0,0.0,0.0,0.0,0.0,0.0,0.0,-0.5706,-0.5979,-0.6259,-0.6203,-0.6501,-0.6887,-0.711,-0.7436,-0.7628,-0.7515,-0.7461,-0.7461,-0.7461,-0.7408,-0.7354,-0.7461,-0.7408,-0.7187,0.0,-0.681,-0.6647,-0.6209,-0.6209,-0.6209,-0.6209,-0.6209,-0.6209,-0.6209,-0.6209,-0.6209,-0.6209,-0.6036,-0.5878,-0.5723,-0.5508,-0.5175,-0.4842,-0.4901,-0.4794,-0.4515,-0.407,-0.3793,-0.3574,-0.3074,-0.2573,-0.2184,-0.2128,-0.1906,-0.1628,0.0,0.0,0.0,0.0,0.0,0.0,0.0,0.0,0.0,0.0,0.0,0.0,0.0,0.0,0.0,-1.9326,-1.9341,-1.9292,-1.9246,-1.8523,-1.7503,-1.6148,-1.4092,-1.2371,-1.1043,-0.8878,0.0,0.0,0.0,0.0,0.0,0.0,0.0,0.0,0.0,0.0,0.0,0.0,0.0,0.0,-0.6085,0.0,0.0,-0.6782,-0.6732,0.0,0.0,0.0,-0.7244,-0.738,-0.7516,0.0,0.0,0.0,0.0,0.0,0.0,0.0,0.0,0.0,0.0,0.0,0.0,0.0,-0.6106,-0.6017,-0.5791,0.0,-0.5376,-0.5556,-0.5367,-0.593,-0.6466,-0.6651,-0.7194,-0.7659,-0.7768,-0.7689,-0.7659,-0.7774,-0.7689,-0.7665,-0.7774,-0.7786,-0.767,-0.7456,-0.7413,-0.73,-0.6918,-0.6918,-0.6918,-0.6918,-0.6918,-0.6918,-0.6918,-0.6918,-0.6918,-0.6918,-0.6696,-0.6534,-0.6381,-0.6,-0.5668,-0.534,-0.5403,-0.5293,-0.5175,-0.4897,-0.4567,-0.4181,-0.3461,-0.2959,-0.2627,-0.2184,-0.1908,-0.1797,0.0,0.0,0.0,0.0,0.0,0.0,0.0,0.0,0.0,0.0,0.0,0.0,0.0,0.0,0.0,0.0,-1.9087,-1.9089,-1.911,-1.7327,-1.6281,-1.6305,-1.4238,-1.3061,-1.3073,-1.0942,-0.9724,0.0,0.0,0.0,0.0,0.0,0.0,0.0,0.0,0.0,0.0,0.0,0.0,-0.7029,-0.6774,-0.6971,0.0,0.0,-0.7127,-0.7418,-0.8089,-0.825,-0.8098,-0.8379,-0.8364,0.0,0.0,0.0,0.0,0.0,-0.763,0.0,0.0,0.0,0.0,0.0,0.0,0.0,-0.5861,-0.5599,-0.5319,0.0,-0.4671,-0.471,-0.4577,-0.5405,-0.608,-0.604,-0.6597,-0.7164,-0.751,-0.7346,-0.7291,-0.7522,-0.7346,-0.7291,-0.7528,-0.7552,-0.7656,-0.7793,-0.7841,-0.7871,-0.7895,-0.7901,-0.7901,-0.7901,-0.7901,-0.7901,-0.7901,-0.7901,-0.7901,-0.7848,-0.7628,-0.7467,-0.7413,-0.6593,-0.6159,-0.6005,-0.59,-0.5791,-0.5677,-0.5677,-0.5399,-0.4897,-0.3843,-0.3453,-0.3289,-0.2296,-0.1964,-0.1908,0.0,0.0,0.0,0.0,0.0,0.0,0.0,0.0,0.0,0.0,0.0,0.0,0.0,0.0,0.0,0.0,0.0,-1.9254,-1.9849,-1.9047,-1.8835,-1.9481,-1.6887,-1.5403,-1.5353,-1.3161,-1.118,0.0,0.0,0.0,0.0,0.0,0.0,0.0,0.0,0.0,0.0,0.0,0.0,-0.7811,-0.7002,0.0,-0.7447,-0.7295,-0.7556,-0.806,-0.8475,-0.8594,-0.859,-0.8675,-0.866,-0.8599,0.0,0.0,0.0,0.0,0.0,0.0,0.0,0.0,0.0,0.0,0.0,0.0,-0.7257,-0.7311,-0.7275,0.0,-0.6934,-0.6854,-0.6204,-0.6422,-0.6619,-0.6373,-0.6286,-0.6462,-0.7164,-0.7236,-0.7218,-0.7273,-0.7236,-0.7218,-0.7273,-0.7279,-0.7297,-0.7352,-0.7559,-0.7719,-0.7889,-0.7901,-0.7901,-0.7901,-0.7901,-0.7901,-0.7901,-0.7901,-0.7794,-0.7574,-0.7521,-0.7246,-0.6864,-0.6701,-0.6436,-0.6173,-0.6119,-0.6123,-0.6064,-0.6064,-0.5841,-0.5399,-0.4842,-0.4343,-0.3956,-0.3234,-0.2792,-0.246,0.0,0.0,0.0,0.0,0.0,0.0,0.0,0.0,0.0,0.0,0.0,0.0,0.0,0.0,0.0,0.0,0.0,0.0,0.0,0.0,-2.0063,-2.0916,-1.9513,-1.8706,-1.8745,-1.6519,-1.4382,0.0,0.0,0.0,0.0,0.0,0.0,0.0,0.0,0.0,0.0,0.0,-0.8111,-0.8226,-0.7764,0.0,-0.7514,-0.8033,-0.8452,-0.8729,-0.9036,-0.9058,-0.9051,-0.9739,-0.9575,0.0,0.0,-0.9468,-0.9324,0.0,-0.9001,-0.8937,0.0,0.0,0.0,-0.8113,0.0,0.0,0.0,-0.7236,-0.7146,-0.6865,-0.6714,-0.6576,-0.6339,-0.6532,-0.6633,-0.6322,-0.6123,-0.6233,-0.695,-0.653,-0.6337,-0.6765,-0.652,-0.6524,-0.6963,-0.7006,-0.706,-0.7194,-0.7322,-0.7516,-0.7737,-0.775,-0.781,-0.7895,-0.7901,-0.7901,-0.7901,-0.7901,-0.7788,-0.7521,-0.7521,-0.73,-0.6918,-0.6756,-0.6598,-0.644,-0.6282,-0.6178,-0.6178,-0.6178,-0.6064,-0.5841,-0.5226,-0.4835,-0.456,-0.3846,-0.3403,-0.3128,0.0,0.0,0.0,0.0,0.0,0.0,0.0,0.0,0.0,0.0,0.0,0.0,0.0,0.0,0.0,0.0,0.0,0.0,0.0,0.0,0.0,-2.1603,-2.1435,-2.1417,-2.1586,-1.9722,-1.7614,0.0,0.0,0.0,0.0,0.0,0.0,0.0,0.0,0.0,0.0,0.0,0.0,-0.8391,0.0,-0.8172,-0.7747,-0.8822,-0.9253,-0.943,-0.9849,-0.9807,-0.976,-1.0738,-1.0596,-0.9963,-1.0154,-1.0199,0.0,0.0,0.0,0.0,0.0,0.0,0.0,0.0,0.0,-0.8601,0.0,0.0,0.0,-0.6557,-0.626,0.0,0.0,0.0,0.0,0.0,0.0,0.0,0.0,-0.5803,0.0,-0.6408,-0.5872,-0.5791,-0.6564,-0.6642,-0.675,-0.7008,-0.708,-0.7243,-0.7504,-0.7571,-0.7698,-0.7817,-0.7871,-0.7901,-0.7901,-0.7901,-0.7788,-0.7521,-0.7521,-0.7359,-0.7085,-0.681,-0.6701,-0.6707,-0.6337,-0.6178,-0.6178,-0.6178,-0.6178,-0.6123,-0.5555,-0.5273,-0.5164,-0.4343,-0.4015,-0.3849,-1.231,-1.4101,0.0,0.0,0.0,0.0,0.0,0.0,0.0,0.0,0.0,0.0,0.0,0.0,0.0,0.0,0.0,0.0,-2.22,0.0,0.0,-2.2104,-2.171,-2.1617,-2.1949,-2.1334,-1.9131,0.0,0.0,0.0,0.0,0.0,0.0,0.0,-0.804,0.0,0.0,0.0,-0.8159,0.0,-0.8495,-0.849,0.0,-0.9076,-0.9536,-1.006,-1.1073,-1.126,-1.0987,0.0,-1.1113,-1.099,0.0,-1.0503,-1.0746,-1.0637,0.0,0.0,0.0,0.0,0.0,0.0,-0.8838,0.0,0.0,0.0,-0.7595,-0.7673,0.0,0.0,0.0,0.0,0.0,0.0,0.0,0.0,-0.5714,-0.5554,-0.5866,-0.6735,-0.5925,-0.5538,-0.6039,-0.6108,-0.6211,-0.6458,-0.6711,-0.6969,-0.723,-0.7467,-0.7613,-0.7638,-0.7828,-0.7901,-0.7901,-0.7901,-0.7788,-0.7521,-0.7521,-0.7359,-0.7085,-0.681,-0.6701,-0.6707,-0.6337,-0.6178,-0.6178,-0.6178,-0.6178,-0.6178,-0.6119,-0.6005,-0.5832,-0.5164,-0.478,-0.4508,0.0,0.0,0.0,0.0,0.0,0.0,0.0,0.0,0.0,0.0,0.0,0.0,0.0,0.0,0.0,0.0,0.0,-1.9595,0.0,0.0,0.0,0.0,-2.2901,-2.2862,-2.3102,-2.2821,-2.1298,-1.8494,-1.82,0.0,0.0,0.0,0.0,0.0,-0.9011,0.0,-0.9505,0.0,-0.9358,0.0,0.0,0.0,0.0,-1.0058,-1.0518,-1.132,-1.2126,-1.2005,-1.1587,0.0,-1.1836,0.0,0.0,0.0,0.0,0.0,0.0,0.0,0.0,0.0,0.0,0.0,0.0,0.0,-0.904,0.0,-0.8723,0.0,0.0,0.0,0.0,0.0,0.0,0.0,-0.6734,0.0,0.0,0.0,-0.5657,0.0,0.0,0.0,-0.5933,-0.5642,-0.5453,-0.5375,-0.5948,-0.6386,-0.6495,-0.6908,-0.7279,-0.7583,-0.7704,-0.7792,-0.7901,-0.7901,-0.7788,-0.7521,-0.7681,-0.7521,-0.7085,-0.6977,-0.6864,-0.6707,-0.6337,-0.6178,-0.6178,-0.6178,-0.6178,-0.6178,-0.6178,-0.6173,-0.6064,-0.5673,-0.5504,-0.5336,0.0,0.0,0.0,0.0,0.0,0.0,0.0,0.0,0.0,0.0,0.0,0.0,-2.104,-2.1087,0.0,0.0,-2.0443,-2.064,0.0,0.0,-2.1862,0.0,0.0,0.0,0.0,-2.3458,-2.275,-2.0853,0.0,0.0,0.0,0.0,0.0,0.0,0.0,-1.0354,-1.0565,0.0,0.0,-1.0216,-0.9996,-1.068,-1.1841,-1.1342,-1.1745,-1.2605,-1.3046,-1.2813,-1.2373,-1.307,-1.2501,0.0,-1.2069,0.0,0.0,0.0,0.0,0.0,-1.1927,0.0,0.0,0.0,0.0,0.0,0.0,0.0,0.0,0.0,0.0,0.0,0.0,0.0,0.0,0.0,0.0,-0.6622,0.0,-0.5903,0.0,0.0,0.0,0.0,0.0,-0.547,-0.5189,-0.4856,-0.548,-0.5886,-0.5954,-0.6367,-0.6829,-0.7364,-0.7522,-0.7641,-0.7682,-0.7966,-0.7949,-0.7622,-0.7836,-0.7836,-0.7568,-0.73,-0.7192,-0.7133,-0.6815,-0.6657,-0.6657,-0.6657,-0.6603,-0.6445,-0.6445,-0.6337,-0.6178,-0.5959,-0.59,-0.5841,-1.8679,-1.8216,0.0,0.0,0.0,0.0,0.0,0.0,0.0,0.0,0.0,0.0,0.0,0.0,0.0,0.0,0.0,-2.1881,-2.41,0.0,-2.3143,0.0,0.0,-2.3087,0.0,0.0,-2.2955,-2.0993,0.0,0.0,0.0,0.0,0.0,0.0,0.0,-1.1126,-1.1277,-1.1332,-1.1125,-1.0793,-1.0895,-1.1733,-1.2853,0.0,-1.3178,-1.3694,-1.3953,0.0,0.0,-1.3235,-1.3084,0.0,0.0,0.0,0.0,0.0,0.0,0.0,0.0,0.0,0.0,-1.1524,0.0,0.0,0.0,0.0,-1.0152,0.0,0.0,0.0,0.0,0.0,0.0,0.0,0.0,0.0,0.0,0.0,0.0,0.0,0.0,0.0,0.0,-0.5694,-0.5819,-0.5409,-0.5456,-0.5589,-0.5813,-0.5941,-0.627,-0.6817,-0.7328,-0.7449,-0.711,-0.8072,-0.8362,-0.7871,-0.8025,-0.8302,-0.8699,-0.7895,-0.7783,-0.8315,-0.7984,-0.7818,-0.7818,-0.7818,-0.7557,-0.7085,-0.7085,-0.6712,-0.6178,-0.6178,-0.6014,-0.5795,0.0,0.0,0.0,0.0,0.0,0.0,0.0,-2.1594,0.0,0.0,0.0,0.0,0.0,-2.2098,-2.2662,0.0,0.0,-2.2536,-2.4381,-2.3405,0.0,0.0,0.0,-2.369,0.0,0.0,0.0,0.0,0.0,0.0,0.0,0.0,0.0,0.0,0.0,-1.2107,0.0,0.0,0.0,0.0,0.0,-1.3183,-1.3226,0.0,-1.407,-1.4228,-1.4329,-1.4197,0.0,-1.3599,-1.321,-1.2814,-1.2594,-1.2175,-1.1927,-1.2382,-1.2332,0.0,0.0,0.0,-1.2393,-1.2203,0.0,0.0,0.0,0.0,0.0,0.0,0.0,0.0,0.0,0.0,0.0,0.0,0.0,0.0,0.0,0.0,0.0,0.0,0.0,0.0,0.0,0.0,0.0,-0.4514,-0.5151,-0.5569,-0.5544,-0.6246,-0.6761,-0.6995,-0.7519,-0.7741,-0.7641,-0.8376,-0.8639,-0.848,-0.8527,-0.8533,-0.8533,-0.8209,-0.8103,-0.8037,-0.7925,-0.7925,-0.7925,-0.7925,-0.7717,-0.7509,-0.761,-0.7241,-0.6608,-0.6223,-0.6005,-0.5896,-1.9795,0.0,0.0,0.0,0.0,0.0,0.0,0.0,0.0,0.0,-2.2336,0.0,-2.1456,0.0,-2.3154,0.0,-2.3088,-2.3625,-2.467,-2.3645,0.0,-2.364,-2.4038,0.0,0.0,0.0,0.0,0.0,0.0,-2.2327,0.0,0.0,0.0,0.0,0.0,0.0,-1.2934,0.0,-1.3195,0.0,0.0,-1.3893,0.0,0.0,-1.4293,-1.4549,0.0,-1.4144,-1.4193,-1.382,-1.3415,-1.3033,-1.294,-1.2529,-1.2224,-1.2627,-1.2578,-1.2372,-1.2431,-1.248,0.0,-1.2421,-1.248,0.0,-1.2274,0.0,-1.2177,0.0,0.0,0.0,0.0,0.0,0.0,0.0,0.0,0.0,0.0,-0.7233,0.0,0.0,0.0,0.0,0.0,0.0,-0.4863,-0.4055,-0.5061,-0.5681,0.0,-0.6327,-0.6813,-0.7067,-0.7602,-0.784,-0.775,-0.858,-0.8956,-0.8798,-0.8844,-0.8844,-0.8837,-0.8626,-0.8514,-0.8508,-0.8508,-0.8508,-0.8508,-0.8508,-0.8349,-0.809,-0.8143,-0.7777,-0.7144,-0.6598,-0.6218,-0.5946,0.0,0.0,0.0,0.0,-2.1843,0.0,0.0,0.0,-2.3012,0.0,-2.2386,-2.166,-2.0849,-2.245,-2.3259,-2.2479,-2.4076,-2.508,-2.5019,-2.5006,0.0,0.0,-2.3949,-2.4098,-2.2388,0.0,0.0,0.0,0.0,0.0,0.0,0.0,0.0,0.0,-1.4522,0.0,-1.3673,-1.3411,-1.37,-1.4316,-1.4307,-1.3955,-1.3378,-1.3325,-1.3922,-1.4685,-1.3664,-1.3823,-1.4423,-1.3904,-1.373,-1.3597,-1.3081,-1.2929,-1.2881,-1.2881,-1.2881,-1.2832,-1.2421,-1.2529,-1.2627,-1.2372,-1.2529,0.0,0.0,0.0,-1.3004,0.0,0.0,0.0,0.0,0.0,0.0,0.0,0.0,0.0,0.0,0.0,0.0,0.0,0.0,0.0,0.0,-0.622,-0.5593,-0.4176,-0.5239,-0.5978,0.0,-0.617,-0.6498,-0.6985,-0.7602,-0.7814,-0.7554,-0.8802,-0.9197,-0.8823,-0.8981,-0.9242,-0.9562,-0.9093,-0.9145,-0.9614,-0.9614,-0.9614,-0.9614,-0.9614,-0.9295,-0.883,-0.8679,-0.8256,-0.767,-0.7241,-0.6598,-0.6005,-2.1498,-2.2293,-2.2824,0.0,-2.2903,-2.3386,0.0,0.0,0.0,0.0,-2.1916,-2.1142,-2.044,-2.1904,-2.2843,-2.2642,-2.4234,0.0,0.0,0.0,0.0,-2.4487,-2.4645,-2.4593,-2.4288,-2.4179,0.0,-2.4416,0.0,0.0,-2.2168,0.0,0.0,0.0,0.0,0.0,-1.3703,-1.347,-1.3758,-1.4397,-1.4657,-1.4734,-1.4618,0.0,-1.4034,-1.4805,-1.3712,-1.3823,-1.4451,-1.4116,-1.3856,-1.3628,-1.3302,-1.3052,-1.2881,-1.2881,-1.2881,-1.2881,-1.2774,-1.2783,-1.2832,-1.2783,-1.3007,-1.3286,0.0,0.0,0.0,0.0,0.0,0.0,0.0,0.0,0.0,0.0,0.0,0.0,0.0,0.0,0.0,-0.7781,0.0,0.0,-0.6346,-0.5226,-0.4677,-0.5079,-0.6149,-0.6599,-0.6176,0.0,-0.7383,-0.724,-0.8038,-0.8351,-0.8075,-0.9052,-0.951,-0.9406,-0.9458,-0.9503,-0.9614,-0.9458,-0.9458,-0.9614,-0.9614,-0.9614,-0.9614,-0.9614,-0.9458,-0.9256,-0.9302,-0.8935,-0.8196,-0.7025,-0.6436,-0.6218,-2.2758,0.0,0.0,-2.4002,0.0,0.0,-2.4515,-2.4016,0.0,-2.2634,-2.1866,0.0,-2.085,-2.1987,-2.2945,-2.3311,-2.4604,0.0,-2.5348,0.0,0.0,-2.5346,-2.5149,-2.5091,-2.5225,-2.4018,0.0,-2.4765,0.0,0.0,-2.2943,0.0,0.0,0.0,0.0,-1.3335,0.0,-1.3758,-1.4051,-1.4396,-1.4788,-1.478,0.0,-1.3752,-1.4346,-1.5437,-1.4802,-1.4539,-1.4443,-1.4056,-1.3832,-1.3637,-1.3259,-1.3001,-1.2881,-1.2881,-1.2881,-1.2881,-1.2881,-1.2881,-1.2881,-1.2881,-1.3065,-1.319,-1.3296,-1.3478,-1.3716,0.0,-1.3636,-1.3313,0.0,0.0,0.0,0.0,0.0,0.0,0.0,0.0,0.0,0.0,-0.7822,0.0,-0.6724,-0.5365,-0.5096,-0.6512,-0.6929,-0.7062,-0.6996,0.0,-0.8154,-0.7478,-0.8512,-0.8852,-0.8498,-0.9293,-0.9673,-0.9614,-0.9614,-0.9614,-0.9614,-0.9614,-0.9614,-0.9614,-0.9614,-0.9614,-0.9614,-0.9614,-0.9562,-0.9465,-0.9517,-0.9249,-0.8732,-0.767,-0.7079,-0.6815,0.0,0.0,0.0,0.0,0.0,0.0,0.0,-2.3907,0.0,-2.27,0.0,-2.1647,-2.1751,-2.2546,-2.3366,-2.4129,0.0,-2.5466,-2.5415,-2.5473,-2.5479,-2.5428,-2.5479,-2.551,-2.551,-2.3794,-2.363,0.0,0.0,0.0,0.0,0.0,0.0,0.0,0.0,0.0,0.0,-1.4642,-1.4795,-1.4761,-1.4963,-1.4557,-1.384,-1.404,-1.5068,-1.6411,-1.6614,-1.606,-1.515,-1.4672,-1.4328,-1.3979,-1.3517,-1.3152,-1.2881,-1.2881,-1.2881,-1.2881,-1.2881,-1.2881,-1.2881,-1.2881,-1.2929,-1.2968,-1.2968,-1.3017,-1.321,-1.361,-1.3392,-1.3137,0.0,0.0,0.0,0.0,0.0,0.0,0.0,0.0,0.0,0.0,0.0,0.0,-0.7473,-0.6364,-0.6334,-0.7922,-0.7624,-0.754,-0.8022,0.0,-0.8814,-0.7919,-0.9004,-0.9368,-0.8911,-0.9615,-0.9888,-0.971,-0.9769,-0.9718,-0.9614,-0.9666,-0.9718,-0.9718,-0.9614,-0.9666,-0.9821,-0.9718,-0.9718,-0.9666,-0.9562,-0.9413,-0.9159,-0.8685,-0.8209,-0.7676,0.0,0.0,0.0,0.0,0.0,-2.2777,-2.309,-2.2436,-2.2114,-2.275,-2.2159,-2.1946,-2.2591,-2.3396,-2.3945,-2.4099,-2.491,0.0,0.0,0.0,0.0,-2.5551,-2.5581,-2.5581,-2.5581,-2.5189,-2.5124,0.0,0.0,0.0,0.0,0.0,0.0,0.0,0.0,0.0,-1.844,-1.751,0.0,-1.7072,-1.5761,-1.5124,-1.5059,-1.6385,-1.7081,-1.7527,-1.8868,-1.9219,-1.9018,-1.8927,-1.7573,-1.5906,-1.5834,-1.4462,-1.2881,-1.2881,-1.2881,-1.2881,-1.2881,-1.2881,-1.2881,-1.2881,-1.32,-1.3478,-1.3478,-1.38,-1.4071,-1.4165,-1.4118,-1.3956,-1.3601,0.0,0.0,0.0,0.0,0.0,0.0,0.0,0.0,0.0,0.0,-0.9412,0.0,-0.8185,-0.7767,-0.7779,-0.8289,-0.8518,0.0,0.0,-0.9128,0.0,-0.9569,0.0,0.0,0.0,-1.0795,-1.0415,-1.0736,-1.0438,-0.9614,-1.0035,-1.0241,-1.0241,-0.9769,-1.0072,-1.0897,-1.0446,-1.0241,-1.0241,-1.0249,-0.988,-0.9361,-0.9256,-0.9099,-0.8732,0.0,0.0,0.0,0.0,0.0,0.0,0.0,-2.1818,-2.1879,-2.2771,-2.2952,-2.3133,-2.3527,-2.392,-2.4331,-2.4784,-2.5217,-2.5471,-2.5499,-2.5499,-2.5523,-2.5605,-2.56,-2.561,-2.5593,-2.4686,-2.4652,-2.559,0.0,0.0,0.0,0.0,0.0,0.0,0.0,-1.8381,0.0,0.0,0.0,-1.8831,-1.8239,-1.7956,-1.797,-1.8757,-1.9598,-2.0462,-2.1227,-2.2092,-2.2527,-2.0482,-1.9019,-1.8046,-1.7884,-1.7086,-1.597,-1.4808,-1.4497,-1.4282,-1.3195,-1.2881,-1.2881,-1.2881,-1.3065,-1.3248,-1.3248,-1.343,-1.3573,-1.3573,-1.3573,-1.3478,-1.3296,-1.2792,0.0,0.0,0.0,0.0,0.0,0.0,0.0,0.0,0.0,0.0,0.0,0.0,0.0,0.0,0.0,0.0,0.0,0.0,-0.9778,0.0,0.0,0.0,-1.0458,0.0,-1.1209,-1.0846,-1.1099,-1.0947,-1.0431,-1.0702,-1.0804,-1.0804,-1.0541,-1.0744,-1.12,-1.0905,-1.0804,-1.0804,-1.0804,-1.0446,-0.9932,-0.9932,-0.9673,-0.9204,0.0,-2.2691,0.0,0.0,-2.1828,0.0,-2.1532,-2.1745,-2.211,-2.281,-2.3654,-2.4273,-2.4462,-2.445,-2.4728,-2.5413,-2.5478,-2.5479,-2.5492,-2.5505,-2.5529,-2.5605,-2.5595,-2.5605,-2.5605,-2.4241,-2.4066,0.0,0.0,0.0,0.0,0.0,0.0,0.0,0.0,0.0,0.0,0.0,-1.9332,-2.0557,-2.0527,-2.0467,-2.0438,-2.0806,-2.1771,-2.297,-2.333,-2.4331,-2.5018,-2.1905,-2.0552,-2.0125,-1.993,-1.9574,-1.8872,-1.7168,-1.6678,-1.6246,-1.4261,-1.3754,-1.3657,-1.3304,-1.3113,-1.3065,-1.3065,-1.2978,-1.2881,-1.2881,-1.2881,-1.2881,-1.2881,-1.2651,0.0,0.0,0.0,0.0,0.0,0.0,0.0,0.0,0.0,0.0,-1.0189,0.0,0.0,0.0,0.0,0.0,-0.9524,0.0,0.0,0.0,0.0,-1.1232,-1.1075,0.0,-1.1628,-1.1318,-1.151,-1.1451,-1.125,-1.1351,-1.1451,-1.1451,-1.1292,-1.1301,-1.136,-1.151,-1.146,-1.136,-1.136,-1.1057,-1.0557,-1.0557,-1.0138,-0.951,0.0,0.0,0.0,0.0,0.0,-2.0587,-2.1393,-2.2169,-2.2747,-2.2888,-2.3656,-2.4508,-2.5291,-2.531,-2.5327,-2.5404,-2.5406,-2.544,-2.5492,-2.5498,-2.5525,-2.5605,-2.5605,-2.561,-2.5595,-2.5435,-2.4665,0.0,0.0,-2.4666,0.0,0.0,0.0,0.0,0.0,0.0,0.0,-2.256,-2.2625,-2.259,-2.1091,-2.0461,-2.058,-2.2156,-2.2848,-2.3185,-2.4714,-2.5362,-2.5441,-2.5065,-2.3657,-2.2027,-2.2007,-2.0715,-1.9143,-1.8943,-1.8885,-1.8531,-1.6886,-1.6411,-1.6087,-1.4541,-1.3847,-1.3525,-1.3525,-1.32,-1.2881,-1.2881,-1.2881,-1.2881,-1.2735,-1.2472,-1.2483,0.0,0.0,0.0,0.0,0.0,-1.1073,-1.0812,0.0,0.0,0.0,-1.0981,0.0,0.0,-0.9906,0.0,0.0,0.0,0.0,-1.1032,-1.1851,-1.2387,-1.2574,-1.2704,-1.252,-1.2107,-1.252,-1.2255,-1.1416,-1.1891,-1.2187,-1.2267,-1.1665,-1.1534,-1.1868,-1.248,-1.2372,-1.1877,-1.1977,-1.166,-1.1099,-1.1065,-1.0643,-1.0115,0.0,0.0,0.0,0.0,0.0,0.0,0.0,-2.2677,-2.3598,-2.3632,-2.437,-2.5045,-2.5398,-2.5412,-2.5406,-2.5406,-2.5395,-2.5412,-2.5441,-2.5434,-2.5468,-2.5538,-2.5492,-2.5506,-2.5549,-2.5549,-2.5221,0.0,0.0,0.0,0.0,0.0,0.0,0.0,0.0,-2.4271,-2.451,-2.3524,-2.3673,-2.4499,-2.3821,-2.3547,-2.3592,-2.4307,-2.4563,-2.4657,-2.5323,-2.5549,-2.5565,-2.5562,-2.4989,-2.4265,-2.4232,-2.3681,-2.2797,-2.1498,-2.1128,-2.0714,-1.876,-1.8277,-1.8142,-1.7427,-1.7073,-1.6897,-1.6957,-1.5778,-1.4728,-1.4731,-1.376,-1.2881,-1.2832,-1.2604,-1.2393,-1.2345,0.0,0.0,0.0,0.0,0.0,0.0,0.0,0.0,0.0,0.0,0.0,0.0,0.0,0.0,0.0,0.0,0.0,-1.2021,0.0,-1.2483,-1.2845,-1.289,-1.2774,-1.252,-1.2774,-1.2666,-1.2304,-1.252,-1.2666,-1.2706,-1.2403,-1.2363,-1.2529,-1.2783,-1.2735,-1.248,-1.248,-1.2126,-1.1619,-1.1528,-1.1108,-1.0541,-2.2728,0.0,-2.2794,0.0,-2.2158,-2.2667,-2.2321,-2.3311,-2.4184,-2.445,-2.502,-2.5406,-2.5423,-2.5432,-2.5432,-2.5432,-2.5412,-2.5401,-2.5429,-2.5401,-2.5437,-2.5507,-2.5461,0.0,-2.5493,-2.5493,-2.5278,-2.4812,-2.5368,0.0,0.0,0.0,0.0,0.0,-2.4156,-2.4251,-2.4889,-2.4161,-2.4537,-2.5601,-2.5609,-2.5609,-2.559,-2.5605,-2.5595,-2.5607,-2.5579,-2.5581,-2.5595,-2.56,-2.5613,-2.5619,-2.5547,-2.5571,-2.5309,-2.3794,-2.3348,-2.2918,-2.0922,-2.0424,-2.0312,-1.9799,-1.9532,-1.9377,-1.9361,-1.8068,-1.6698,-1.6089,-1.4819,-1.3602,-1.2986,-1.2651,-1.2423,-1.2233,0.0,0.0,0.0,-1.085,0.0,0.0,-1.1721,-1.1976,-1.2734,-1.2106,0.0,0.0,0.0,0.0,0.0,0.0,0.0,0.0,0.0,0.0,-1.3007,-1.292,-1.2832,-1.2783,-1.2832,-1.2929,-1.2978,-1.2968,-1.2968,-1.2978,-1.2978,-1.2929,-1.2832,-1.2881,-1.2881,-1.2832,-1.2783,-1.2529,-1.2175,-1.1977,-1.1569,-1.1065,-2.5264,-2.462,-2.4091,-2.4052,-2.3358,-2.3097,-2.3953,-2.4086,-2.4411,-2.5266,-2.5382,-2.5429,-2.5484,-2.5511,-2.5511,-2.5511,-2.5429,-2.5429,-2.5484,-2.5429,-2.5434,0.0,0.0,-2.5492,-2.5499,-2.5499,-2.4664,-2.2926,0.0,0.0,-2.3072,0.0,-2.4711,-2.3198,-2.4915,-2.4724,-2.3242,-2.4941,-2.5634,-2.5601,-2.5603,-2.559,-2.5605,-2.5609,-2.5599,-2.5593,-2.5512,-2.554,-2.5593,-2.5604,-2.5648,-2.5696,-2.5629,-2.5604,-2.5589,-2.5574,-2.5566,-2.5211,-2.3594,-2.3145,-2.2768,-2.1177,-2.0398,-1.9961,-1.9812,-1.9412,-1.8466,-1.6342,-1.5867,-1.5257,-1.3268,-1.2529,-1.2503,-1.3433,0.0,0.0,0.0,0.0,0.0,-1.2162,-1.2289,-1.2641,-1.3506,-1.3167,0.0,0.0,0.0,0.0,0.0,0.0,0.0,-1.3165,-1.3558,0.0,-1.3218,-1.3007,-1.2881,-1.2881,-1.2881,-1.2988,-1.3085,-1.318,-1.3142,-1.3085,-1.3085,-1.2929,-1.2725,-1.2832,-1.2832,-1.2725,-1.2832,-1.2881,-1.2881,-1.2578,-1.2116,-1.1601,-2.4581,-2.4282,-2.3925,-2.3383,-2.3507,-2.3777,-2.4066,-2.4596,-2.5087,-2.5363,-2.5401,-2.5418,-2.549,-2.5507,-2.5511,0.0,-2.5484,-2.5484,0.0,-2.5484,-2.5492,-2.5488,-2.5495,-2.5503,-2.5492,-2.5499,-2.5247,-2.4736,0.0,0.0,0.0,-2.624,-2.6204,-2.569,-2.5701,-2.5383,-2.4902,-2.5469,-2.5661,-2.5603,-2.5607,-2.5603,-2.5593,-2.5659,-2.5648,-2.5609,-2.5632,-2.5629,-2.5598,-2.5604,-2.5632,-2.5701,-2.5671,-2.5676,-2.567,-2.5676,-2.5677,-2.5554,-2.504,-2.4896,-2.4764,-2.4215,-2.3902,-2.3755,-2.3742,-2.2508,-2.0723,-1.8529,-1.8079,-1.7872,-1.7124,-1.5785,-1.4905,-1.5176,-1.333,0.0,-1.1871,0.0,-1.1417,-1.1853,-1.2118,-1.2721,-1.3789,-1.35,0.0,0.0,0.0,0.0,0.0,0.0,0.0,0.0,-1.4228,0.0,-1.4236,-1.3658,-1.3392,-1.3382,-1.3065,-1.2929,-1.2978,-1.2968,-1.2968,-1.2978,-1.2978,-1.2929,-1.2832,-1.2881,-1.2881,-1.2832,-1.2783,-1.2783,-1.2735,-1.2578,-1.2323,-1.2017,-2.4685,-2.4598,-2.4433,-2.3921,-2.4257,-2.4593,-2.4593,-2.5065,-2.544,-2.5429,-2.5429,-2.5445,-2.551,-2.5507,0.0,-2.5495,-2.5499,-2.5511,-2.5511,-2.5511,-2.5499,-2.5495,-2.5495,-2.551,-2.5492,-2.5499,0.0,-2.5564,-2.5599,-2.5887,-2.6403,-2.6403,-2.6422,-2.6428,-2.5909,-2.5676,-2.5696,-2.5696,-2.5682,-2.5643,-2.5643,-2.562,-2.5593,-2.5657,-2.5633,-2.562,-2.5646,-2.5642,-2.5632,-2.5632,-2.5673,-2.5698,-2.5707,-2.5691,-2.5694,-2.5702,-2.5703,-2.5703,-2.5701,-2.5703,-2.5681,-2.5657,-2.5603,-2.5564,-2.5564,-2.4492,-2.2882,-2.0737,-2.0292,-2.0054,-1.9193,-1.8023,-1.6968,-1.6378,-1.4822,-1.338,-1.2568,0.0,-1.2006,0.0,0.0,0.0,0.0,-1.3678,-1.3803,0.0,0.0,0.0,0.0,0.0,0.0,-1.5028,-1.4766,-1.4582,-1.4571,-1.4071,-1.3884,-1.392,-1.3467,-1.3238,-1.3296,-1.3017,-1.2929,-1.2978,-1.2929,-1.2881,-1.2832,-1.2832,-1.2783,-1.2735,-1.2676,-1.2676,-1.2686,-1.2382,-1.2274,-1.2175,-2.5369,-2.5406,-2.5395,-2.5415,-2.5412,-2.5401,-2.5401,-2.5456,-2.5511,-2.5511,-2.5511,-2.5492,-2.5492,-2.5492,-2.5507,-2.5492,0.0,0.0,-2.5519,-2.5499,-2.5495,-2.5492,-2.5492,-2.5492,-2.5499,-2.5499,-2.5499,-2.5518,-2.5628,-2.5696,-2.5683,-2.5696,-2.5712,-2.5773,-2.5658,-2.5648,-2.5691,-2.5691,-2.5696,-2.5698,-2.5698,-2.5664,-2.5619,-2.5619,-2.5616,-2.5613,-2.5613,-2.5637,-2.5681,-2.5681,-2.5697,-2.5693,-2.5699,-2.5693,-2.5683,-2.5697,-2.5702,-2.5703,-2.5703,-2.5703,-2.57,-2.57,-2.57,-2.5675,-2.5531,-2.5426,-2.4793,-2.2911,-2.2525,-2.1962,-2.0075,-1.9515,-1.891,-1.7451,-1.6697,-1.5723,-1.4132,-1.3166,-1.2872,0.0,0.0,0.0,-1.3696,-1.374,-1.374,0.0,0.0,0.0,0.0,0.0,-1.5457,-1.54,-1.5232,-1.496,-1.4444,-1.4398,-1.4433,-1.4457,-1.405,-1.3873,-1.3931,-1.3296,-1.3027,-1.3085,-1.3027,-1.2881,-1.2676,-1.2725,-1.2676,-1.252,-1.2529,-1.2578,-1.2676,-1.2126,-1.1977,-1.2076,0.0,0.0,-2.5421,-2.5476,-2.5476,-2.5484,-2.5484,-2.5484,-2.5511,-2.5511,-2.5511,-2.5499,-2.5498,-2.5488,-2.5507,-2.5492,-2.5505,-2.5511,-2.5577,-2.5538,-2.5505,-2.5492,-2.5503,-2.5503,-2.5492,-2.5499,-2.5525,-2.557,-2.626,-2.6576,-2.652,-2.6576,-2.6592,-2.6583,-2.5959,-2.5695,-2.5703,-2.5703,-2.5694,-2.571,-2.571,-2.5698,-2.567,-2.567,-2.5679,-2.5683,-2.5683,-2.5644,-2.5622,-2.5622,-2.5624,-2.5625,-2.5624,-2.5621,-2.564,-2.5681,-2.5697,-2.5698,-2.5701,-2.5703,-2.5703,-2.5703,-2.5702,-2.5699,-2.5654,-2.562,-2.5437,-2.4852,-2.4734,-2.456,-2.3982,-2.294,-2.2032,-2.1676,-2.0084,-1.8245,-1.6403,-1.5819,-1.5128,0.0,-1.386,-1.4034,-1.4281,-1.4326,-1.4326,0.0,0.0,0.0,-1.4835,-1.5209,-1.5623,-1.612,-1.6001,-1.5881,-1.5736,-1.5311,-1.4801,-1.434,-1.4247,-1.4025,-1.3705,-1.3894,-1.3573,-1.2978,-1.3658,-1.3478,-1.2725,-1.3094,-1.3084,-1.2832,-1.2618,-1.2666,-1.288,-1.251,-1.2175,-1.1927,-2.5283,-2.5331,-2.5385,-2.5484,-2.5511,-2.5511,-2.5511,-2.5511,-2.5511,-2.5511,-2.5511,-2.5499,-2.5503,-2.5507,-2.5507,-2.5492,-2.5498,-2.5524,-2.5557,-2.5893,-2.6087,-2.6081,-2.6081,-2.6093,-2.6081,-2.5693,-2.5525,-2.5538,-2.6051,-2.6295,-2.624,-2.6295,-2.6311,-2.632,-2.5857,-2.5671,-2.5699,-2.5699,-2.5703,-2.5707,-2.5707,-2.5694,-2.5701,-2.5701,-2.5696,-2.5691,-2.5691,-2.5676,-2.5641,-2.5641,-2.5641,-2.5641,-2.5658,-2.5615,-2.5613,-2.5643,-2.5644,-2.5664,-2.5683,-2.5703,-2.5703,-2.5703,-2.5703,-2.5702,-2.5702,-2.5699,-2.5675,-2.5618,-2.559,-2.558,-2.5503,-2.4779,-2.3962,-2.3257,-2.2121,-2.0688,-1.8917,-1.8365,-1.7773,-1.6718,-1.6564,-1.6285,-1.5618,-1.5337,-1.4841,-1.3967,-1.3967,0.0,-1.3685,-1.4211,-1.494,-1.592,-1.6088,-1.62,-1.62,-1.5957,-1.5623,-1.5254,-1.4937,-1.4709,-1.4536,-1.4351,-1.4071,-1.3668,-1.4118,-1.3931,-1.343,-1.3658,-1.3647,-1.3399,-1.2939,-1.289,-1.3016,-1.2363,-1.2026,-1.1877,-2.5212,-2.5264,-2.5321,-2.5476,-2.5511,-2.5511,-2.5511,-2.5511,-2.5511,-2.5511,-2.5511,-2.5511,-2.5511,-2.5511,-2.5507,-2.5505,-2.5495,-2.5495,-2.5499,-2.632,-2.6741,-2.6611,-2.6747,-2.6735,-2.6618,-2.5893,-2.5525,-2.5525,-2.5565,-2.561,-2.561,-2.561,-2.5643,-2.5699,-2.5643,-2.5643,-2.5699,-2.5699,-2.5699,-2.5699,-2.5699,-2.5703,-2.5691,-2.5691,-2.5697,-2.5704,-2.5704,-2.5704,-2.5704,-2.5704,-2.5681,-2.5673,-2.5683,-2.5646,-2.5593,-2.5603,-2.5595,-2.5618,-2.5662,-2.5683,-2.5681,-2.5683,-2.5683,-2.5682,-2.5702,-2.5701,-2.5699,-2.5701,-2.57,-2.57,-2.57,-2.562,-2.5092,-2.3792,-2.3502,-2.2915,-2.1389,0.0,-2.0336,-1.9961,-1.9525,-1.8635,-1.7049,-1.6501,-1.5477,-1.3662,-1.3628,-1.3376,-1.2778,-1.3379,-1.4139,-1.5014,-1.5604,-1.5928,-1.61,-1.6175,-1.6219,-1.6219,-1.5656,-1.5344,-1.5266,-1.4628,-1.4305,-1.4269,-1.4351,-1.4305,-1.4082,-1.4222,-1.4212,-1.4014,-1.3304,-1.3112,-1.3122,-1.2107,-1.1719,-1.1728,-2.5038,-2.5126,-2.5284,-2.5468,-2.5511,-2.5511,-2.5511,-2.5511,-2.5511,-2.5511,-2.5511,-2.5511,-2.5511,-2.5511,-2.5492,-2.5499,-2.5492,-2.5522,-2.5589,-2.6353,-2.6488,-2.5815,-2.6436,-2.6475,-2.5809,-2.5653,-2.5576,-2.5576,-2.559,-2.561,-2.561,-2.5667,-2.5695,-2.5699,-2.5695,-2.5695,-2.5699,-2.5699,-2.5699,-2.5699,-2.5699,-2.5699,-2.5699,-2.5699,-2.5703,-2.5703,-2.5703,-2.5703,-2.5703,-2.5703,-2.566,-2.5613,-2.5628,-2.561,-2.5595,-2.56,-2.5595,-2.5605,-2.5609,-2.5615,-2.5629,-2.562,-2.5612,-2.5632,-2.5681,-2.5696,-2.5709,-2.5703,-2.5702,-2.57,-2.57,-2.5677,-2.5581,-2.5351,-2.5208,-2.4588,-2.3035,0.0,-2.1862,-1.9823,-1.9503,-1.8887,-1.7446,-1.7261,-1.6924,-1.6084,-1.6083,-1.5451,-1.3912,-1.4787,-1.4765,-1.3518,-1.4093,-1.4792,-1.5522,-1.549,-1.549,-1.549,-1.5355,-1.4801,-1.3941,-1.4165,-1.3894,-1.321,-1.4455,-1.4398,-1.36,-1.4444,-1.4663,-1.4318,-1.3484,-1.3314,-1.3372,-1.2166,-1.1528,-1.1175,-2.4837,-2.498,-2.5118,-2.5217,-2.5262,-2.5293,-2.5341,-2.536,-2.5415,-2.5484,-2.5511,-2.5511,-2.5511,-2.5511,-2.5743,-2.6362,-2.6246,-2.6359,-2.6861,-2.6831,-2.6638,-2.6262,-2.6592,-2.6417,-2.5621,-2.5601,-2.5601,-2.5601,-2.5595,-2.561,-2.561,-2.5639,-2.5667,-2.5699,-2.5667,-2.5671,-2.5699,-2.5699,-2.5699,-2.5699,-2.5699,-2.5699,-2.5699,-2.5699,-2.5671,-2.5643,-2.5643,-2.5643,-2.5643,-2.5644,-2.5654,-2.5643,-2.5615,-2.5604,-2.5604,-2.5593,-2.5609,-2.5595,-2.5601,-2.5597,-2.5603,-2.5603,-2.5597,-2.5616,-2.5637,-2.5651,-2.5645,-2.5642,-2.5646,-2.567,-2.5691,-2.5694,-2.5697,-2.5697,-2.5648,0.0,-2.4658,-2.4115,-2.3392,-2.2275,-2.1713,-2.084,-1.9315,-1.893,-1.8206,-1.6825,-1.6467,-1.5867,-1.4837,-1.5235,-1.5205,-1.4634,-1.4475,-1.462,-1.5017,-1.4765,-1.4628,-1.4628,-1.4583,-1.4272,-1.3788,-1.4139,-1.4071,-1.3705,-1.4351,-1.4351,-1.3931,-1.4398,-1.4479,-1.4329,-1.3589,-1.3362,-1.3372,-1.2461,-1.2026,-1.1828,-2.4707,-2.4861,-2.501,-2.501,-2.5006,-2.5037,-2.5171,-2.5212,-2.5283,-2.5415,-2.5744,-2.5976,-2.6013,-2.6013,-2.6418,-2.7412,-2.7151,-2.7218,-2.7894,-2.7359,-2.704,-2.7104,-2.709,-2.6728,-2.5912,-2.5873,-2.5795,-2.5601,-2.5595,-2.561,-2.561,-2.5615,-2.5643,-2.5699,-2.5639,-2.5639,-2.5699,-2.5675,-2.5695,-2.5699,-2.5699,-2.5699,-2.5699,-2.5699,-2.5671,-2.5615,-2.5615,-2.5615,-2.5605,-2.5599,-2.5634,-2.5678,-2.5613,-2.5599,-2.5595,-2.5582,-2.5585,-2.5576,-2.5586,-2.5585,-2.5586,-2.5574,-2.5585,-2.5585,-2.5593,-2.5589,-2.5589,-2.5601,-2.5597,-2.5626,-2.5671,-2.5679,-2.5687,-2.5672,0.0,-2.5697,-2.5696,-2.5113,-2.4626,-2.4411,-2.3633,-2.2544,-2.1105,-2.0413,-1.9385,-1.7772,-1.7276,-1.6747,-1.6045,-1.604,-1.6061,-1.6078,-1.5451,-1.5157,-1.5283,-1.4618,-1.431,-1.4269,-1.38,-1.3554,-1.3498,-1.3739,-1.3871,-1.3978,-1.4071,-1.4118,-1.4165,-1.4258,-1.4305,-1.4258,-1.3647,-1.342,-1.3324,-1.2666,-1.2382,-1.2323,-2.4707,-2.4861,-2.501,-2.501,-2.4861,-2.4851,-2.5149,-2.5094,-2.5063,-2.5212,-2.6479,-2.7399,-2.7508,-2.7551,-2.7776,-2.8364,-2.7936,-2.7647,-2.7723,-2.7666,-2.7738,-2.7985,-2.8009,-2.7595,-2.6741,-2.6722,-2.6353,-2.5601,-2.5595,-2.561,-2.561,-2.5667,-2.5699,-2.5699,-2.5639,-2.5639,-2.5699,-2.5639,-2.5643,-2.5699,-2.5699,-2.5699,-2.5699,-2.5699,-2.5699,-2.5695,-2.5695,-2.5648,-2.561,-2.5605,-2.5609,-2.5607,-2.5601,-2.5601,-2.5601,-2.5531,-2.5506,-2.5506,-2.5506,-2.5506,-2.5512,-2.5512,-2.5498,-2.5524,-2.5591,-2.5556,-2.5526,-2.5586,-2.5609,-2.5605,-2.5605,-2.5605,-2.5605,-2.5617,0.0,0.0,-2.5696,-2.5636,-2.5291,-2.4509,-2.363,-2.2734,-2.1803,-2.1012,-2.0459,-2.0243,-2.0195,-1.9472,-1.7884,-1.8096,-1.7766,-1.669,-1.6337,-1.645,-1.7,-1.5579,-1.4852,-1.4816,-1.3299,-1.2513,-1.2319,-1.2348,-1.2584,-1.3017,-1.3478,-1.3658,-1.3705,-1.4118,-1.4305,-1.4247,-1.3752,-1.3515,-1.3314,-1.2461,-1.2076,-1.1877,-2.6231,-2.5669,-2.501,-2.501,-2.4936,-2.4931,-2.5063,-2.5031,-2.5397,-2.6472,-2.7443,-2.8268,-2.8988,-2.854,-2.8561,-2.9464,-2.8919,-2.8746,-2.9283,-2.9302,-2.889,-2.7892,-2.7885,-2.7759,-2.7422,-2.7419,-2.7031,-2.6227,-2.6262,-2.6004,-2.5485,-2.559,-2.561,-2.5576,-2.5586,-2.5639,-2.5699,-2.5671,-2.5648,-2.5643,-2.5675,-2.5671,-2.5643,-2.5675,-2.5671,-2.5639,-2.5639,-2.5615,-2.5605,-2.5604,-2.5634,-2.5644,-2.555,-2.5562,-2.5585,-2.5576,-2.5564,-2.5538,-2.5499,-2.5531,-2.5551,-2.551,-2.5503,-2.5517,-2.5525,-2.5511,-2.5505,-2.5538,-2.5537,-2.5535,-2.554,-2.5566,-2.5604,-2.5604,0.0,-2.6259,-2.571,-2.5632,-2.5334,-2.4497,-2.362,-2.2963,-2.2637,-2.2322,-2.1932,-2.1403,-2.1831,-2.139,-1.9694,-1.9645,-1.9448,-1.8946,-1.8794,-1.8142,-1.6898,-1.6026,-1.5555,-1.5505,-1.4941,-1.4596,-1.4443,-1.5332,-1.5819,-1.6026,-1.6771,-1.706,-1.7076,-1.7131,-1.6445,-1.5324,-1.5057,-1.493,-1.4828,-1.4411,-1.427,-1.4267,-2.6475,-2.5787,-2.501,-2.501,-2.501,-2.501,-2.501,-2.4964,-2.5367,-2.655,-2.765,-2.8582,-2.932,-2.911,-2.926,-3.0037,-2.9603,-2.9555,-3.0147,-3.0166,-2.9677,-2.8574,-2.8572,-2.8449,-2.818,-2.8179,-2.7652,-2.6564,-2.6635,-2.6215,-2.5374,-2.5453,-2.5486,-2.5467,-2.548,-2.5549,-2.5615,-2.5604,-2.5585,-2.5576,-2.5625,-2.5634,-2.5639,-2.5667,-2.5648,-2.5639,-2.5639,-2.5615,-2.5605,-2.5604,-2.5634,-2.5649,-2.555,-2.5556,-2.5579,-2.5576,-2.557,-2.5557,-2.5505,-2.5551,-2.5583,-2.5526,-2.5495,-2.551,-2.5499,-2.5484,-2.5464,-2.5511,-2.5468,-2.5471,-2.5466,-2.5732,-2.5957,-2.5943,-2.6456,-2.6671,-2.6062,-2.5757,-2.5405,-2.4846,-2.401,-2.3495,-2.3511,-2.3254,-2.2864,-2.2324,-2.2793,-2.248,-2.1054,-2.0914,-2.0718,-2.037,-2.0336,-1.9538,-1.7946,-1.7009,-1.6539,-1.6495,-1.6028,-1.5977,-1.633,-1.7255,-1.7894,-1.8319,-1.8889,-1.9127,-1.9129,-1.9014,-1.816,-1.6904,-1.6812,-1.6749,-1.6716,-1.6612,-1.6596,-1.6644,-2.4969,-2.501,-2.501,-2.4996,-2.4996,-2.501,-2.501,-2.4894,-2.4846,-2.4996,-2.6929,-2.8297,-2.8297,-2.9263,-2.9888,-2.9888,-2.9888,-2.9888,-2.9888,-2.9888,-3.0034,-3.0299,-3.0312,-2.9877,-2.9034,-2.9006,-2.8184,-2.6523,-2.6574,-2.6168,-2.5329,-2.5329,-2.5337,-2.5421,-2.5359,-2.5357,-2.5406,-2.5404,-2.5441,-2.5498,-2.5506,-2.5574,-2.5695,-2.5615,-2.5639,-2.5699,-2.5699,-2.5648,-2.5605,-2.5605,-2.5609,-2.5601,-2.5601,-2.5538,-2.5492,-2.5492,-2.5492,-2.5505,-2.5499,-2.555,-2.5583,-2.5526,-2.5511,-2.5511,-2.5511,-2.5456,-2.5429,-2.5484,-2.5456,-2.5401,-2.5401,-2.6114,-2.6693,-2.6696,-2.6759,-2.6817,-2.6799,-2.6121,-2.5629,-2.5621,-2.4838,-2.4342,-2.4415,-2.3634,-2.3116,-2.3105,-2.3105,-2.2734,-2.187,-2.1875,-2.1464,-2.0541,-2.0566,-2.0601,-2.0601,-1.8751,-1.782,-1.7807,-1.6197,-1.6128,-1.7418,-1.7304,-1.7945,-1.9137,-1.9066,-1.9036,-1.9053,-1.9184,-1.9121,-1.8932,-1.8932,-1.8838,-1.8724,-1.8724,-1.8639,-1.8529,-2.6324,-2.5702,-2.4922,-2.4698,-2.485,-2.501,-2.501,-2.4983,-2.5215,-2.602,-2.7062,-2.7953,-2.8506,-2.9358,-2.9888,-2.9888,-2.9888,-2.9888,-2.9888,-2.9888,-2.9956,-3.0019,-3.0034,-2.9901,-2.9639,-2.9679,-2.9165,-2.8051,-2.8154,-2.7738,-2.6836,-2.6984,-2.7045,-2.702,-2.7045,-2.6738,-2.6244,-2.6244,-2.5895,-2.5352,-2.5422,-2.5456,-2.5483,-2.5464,-2.5471,-2.5478,-2.5452,-2.5418,-2.5391,-2.5391,-2.5413,-2.5473,-2.5506,-2.5524,-2.5507,-2.5507,-2.5507,-2.5507,-2.5492,-2.5507,-2.5541,-2.5499,-2.5495,-2.551,-2.5499,-2.5484,-2.5484,-2.5511,-2.5484,-2.5464,-2.5464,-2.6152,-2.6511,-2.5884,-2.7348,-2.812,-2.69,-2.7089,-2.7343,-2.7349,-2.609,-2.5454,-2.6089,-2.5371,-2.4628,-2.4053,-2.3456,-2.3242,-2.3613,-2.2539,-2.1777,-2.1484,-2.0917,-2.0603,-2.0601,-2.0004,-1.9668,-1.9627,-1.9188,-1.9148,-1.9489,-2.075,-2.1512,-2.1909,-2.3115,-2.3584,-2.3476,-2.3376,-2.2472,-2.1132,-2.0933,-2.0906,-2.0927,-2.0675,-2.0686,-2.0783,-2.7915,-2.6465,-2.4955,-2.4726,-2.4787,-2.4908,-2.4996,-2.5253,-2.5697,-2.6435,-2.7358,-2.8115,-2.8609,-2.9399,-2.9888,-2.9888,-2.9888,-2.9888,-2.9888,-2.9888,-2.9888,-2.9888,-2.9888,-2.9888,-2.9888,-2.994,-2.939,-2.8237,-2.8313,-2.7717,-2.6517,-2.6644,-2.6661,-2.6632,-2.6665,-2.6431,-2.6011,-2.6002,-2.5716,-2.5255,-2.5303,-2.5359,-2.5404,-2.5404,-2.5401,-2.539,-2.5354,-2.5346,-2.5337,-2.5309,-2.5324,-2.5376,-2.541,-2.5418,-2.5415,-2.5415,-2.5406,-2.5397,-2.5404,-2.5412,-2.5421,-2.5484,-2.5488,-2.5503,-2.5499,-2.5484,-2.5553,-2.589,-2.5967,-2.5978,-2.5978,-2.6655,-2.7033,-2.6502,-2.7758,-2.8415,-2.7352,-2.7417,-2.7423,-2.7071,-2.6428,-2.623,-2.6779,-2.6337,-2.5703,-2.4937,-2.4399,-2.4175,-2.4391,-2.3437,-2.2734,-2.2383,-2.1894,-2.1621,-2.1581,-2.1543,-2.1346,-2.0992,-2.1033,-2.1171,-2.1424,-2.2162,-2.268,-2.3012,-2.4044,-2.4631,-2.4844,-2.4389,-2.3825,-2.323,-2.271,-2.2717,-2.3017,-2.2766,-2.2766,-2.286,-2.9476,-2.7361,-2.5348,-2.5229,-2.4926,-2.4753,-2.495,-2.5555,-2.6042,-2.6252,-2.7509,-2.8393,-2.8393,-2.9174,-2.968,-2.968,-2.9737,-2.9794,-2.9794,-2.9851,-2.9888,-2.9888,-2.9888,-2.9888,-2.9888,-2.9924,-2.9185,-2.7721,-2.7721,-2.6944,-2.5432,-2.5356,-2.5327,-2.5335,-2.5259,-2.5215,-2.5203,-2.5203,-2.5201,-2.5171,-2.5187,-2.5253,-2.5376,-2.5378,-2.5367,-2.5382,-2.5376,-2.5367,-2.5367,-2.5292,-2.5292,-2.5292,-2.5292,-2.5283,-2.5303,-2.5303,-2.5243,-2.5214,-2.5265,-2.5283,-2.5321,-2.544,-2.5476,-2.5476,-2.5503,-2.5456,-2.5622,-2.6431,-2.6655,-2.6696,-2.6696,-2.7409,-2.7997,-2.799,-2.8067,-2.8125,-2.8125,-2.7431,-2.665,-2.5936,-2.6418,-2.6831,-2.6916,-2.6788,-2.6385,-2.5654,-2.5668,-2.5359,-2.4544,-2.4506,-2.4121,-2.3242,-2.3281,-2.3281,-2.3223,-2.3281,-2.2889,-2.2018,-2.2003,-2.2387,-2.3071,-2.2157,-2.2175,-2.2901,-2.2844,-2.3268,-2.3944,-2.3201,-2.3746,-2.4912,-2.4119,-2.4227,-2.4823,-2.4657,-2.461,-2.4591,-2.9383,-2.8988,-2.8073,-2.6916,-2.5603,-2.4738,-2.4832,-2.4982,-2.5144,-2.5277,-2.6124,-2.6711,-2.6711,-2.7498,-2.8025,-2.8025,-2.8597,-2.896,-2.896,-2.9547,-2.9888,-2.9888,-2.9888,-2.9888,-2.9888,-2.9956,-2.9785,-2.9393,-2.9425,-2.9254,-2.8825,-2.8199,-2.7896,-2.7858,-2.7247,-2.6598,-2.5953,-2.6018,-2.5646,-2.5057,-2.5094,-2.513,-2.5164,-2.5164,-2.5172,-2.516,-2.5118,-2.5094,-2.5101,-2.5122,-2.5145,-2.5157,-2.5203,-2.5224,-2.5233,-2.5233,-2.5203,-2.5192,-2.5214,-2.5224,-2.5224,-2.5264,-2.5264,-2.5313,-2.5468,-2.5484,-2.5522,-2.5724,-2.6257,-2.6693,-2.6693,-2.7409,-2.7999,-2.8009,-2.8569,-2.9014,-2.9023,-2.8858,-2.8897,-2.9332,-2.8405,-2.7969,-2.8599,-2.7473,-2.6364,-2.5577,-2.6197,-2.6236,-2.5386,-2.5385,-2.5019,-2.4141,-2.4121,-2.4121,-2.4121,-2.4803,-2.4353,-2.2849,-2.2848,-2.2923,-2.3093,-2.2867,-2.289,-2.3061,-2.3034,-2.3076,-2.3188,-2.3632,-2.3944,-2.4192,-2.4569,-2.4879,-2.5072,-2.4794,-2.467,-2.4632,-2.9092,-2.9326,-2.8981,-2.7662,-2.6332,-2.5295,-2.4782,-2.5027,-2.5321,-2.5416,-2.6359,-2.7038,-2.71,-2.735,-2.738,-2.7096,-2.7657,-2.8058,-2.8123,-2.8521,-2.8768,-2.8768,-2.8768,-2.8768,-2.8768,-2.9162,-2.9352,-2.932,-2.9352,-2.9162,-2.8749,-2.8313,-2.8123,-2.8085,-2.7266,-2.6641,-2.6186,-2.5839,-2.5422,-2.4999,-2.5038,-2.5044,-2.5063,-2.5095,-2.5095,-2.5101,-2.5025,-2.4999,-2.501,-2.5044,-2.5038,-2.5051,-2.5082,-2.5106,-2.5106,-2.5106,-2.5106,-2.5118,-2.5134,-2.5145,-2.5157,-2.5182,-2.5192,-2.5339,-2.5907,-2.6022,-2.6271,-2.7127,-2.7658,-2.7948,-2.7948,-2.8307,-2.8626,-2.8626,-2.8975,-2.9255,-2.9294,-2.9284,-2.9245,-2.9265,-2.885,-2.8734,-2.9158,-2.8405,-2.7544,-2.671,-2.6735,-2.6612,-2.6155,-2.5792,-2.541,-2.4991,-2.497,-2.4993,-2.5018,-2.5466,-2.5446,-2.4957,-2.4549,-2.4115,-2.3714,-2.3714,-2.3488,-2.303,-2.2606,-2.262,-2.2934,-2.2878,-2.3289,-2.3986,-2.4305,-2.4736,-2.516,-2.4847,-2.4734,-2.467,-2.8797,-2.9048,-2.8929,-2.7875,-2.6971,-2.6079,-2.5089,-2.537,-2.5759,-2.5899,-2.6725,-2.7376,-2.7549,-2.7233,-2.6839,-2.6361,-2.6681,-2.7021,-2.7266,-2.7418,-2.7494,-2.7494,-2.7494,-2.7494,-2.7494,-2.8294,-2.8695,-2.8695,-2.8828,-2.8559,-2.7911,-2.7778,-2.7627,-2.7456,-2.6603,-2.6129,-2.5958,-2.5294,-2.501,-2.501,-2.4999,-2.4993,-2.5012,-2.507,-2.5101,-2.5089,-2.5025,-2.4999,-2.501,-2.501,-2.501,-2.501,-2.501,-2.501,-2.5029,-2.5162,-2.5219,-2.5251,-2.5444,-2.5514,-2.552,-2.5585,-2.5589,-2.5841,-2.6773,-2.6785,-2.7046,-2.8695,-2.9149,-2.9245,-2.9264,-2.9148,-2.9157,-2.9476,-2.9236,-2.912,-2.9467,-2.9467,-2.9109,-2.8222,-2.8762,-2.9177,-2.9206,-2.9205,-2.8848,-2.7972,-2.7301,-2.6858,-2.6718,-2.6073,-2.5682,-2.5584,-2.5876,-2.5986,-2.5888,-2.6047,-2.6417,-2.698,-2.6403,-2.5676,-2.4812,-2.4664,-2.4102,-2.3173,-2.2299,-2.233,-2.2927,-2.2245,-2.2769,-2.4033,-2.4058,-2.4514,-2.5179,-2.4893,-2.4753,-2.4692,-2.8797,-2.8749,-2.847,-2.7725,-2.7219,-2.6763,-2.6319,-2.5754,-2.552,-2.593,-2.5386,-2.5073,-2.539,-2.5209,-2.5118,-2.5205,-2.5281,-2.5622,-2.6337,-2.7077,-2.7494,-2.7494,-2.7494,-2.7494,-2.7494,-2.8294,-2.8695,-2.8695,-2.9396,-2.968,-2.9564,-2.8862,-2.8161,-2.7456,-2.6603,-2.5825,-2.5162,-2.5048,-2.501,-2.501,-2.4999,-2.4993,-2.5012,-2.507,-2.507,-2.5025,-2.4993,-2.4999,-2.501,-2.501,-2.501,-2.501,-2.501,-2.501,-2.5143,-2.5844,-2.6053,-2.6205,-2.6977,-2.7186,-2.7167,-2.7196,-2.7196,-2.7433,-2.8368,-2.7503,-2.6776,-2.7727,-2.8514,-2.9068,-2.9126,-2.8559,-2.8608,-3.0163,-2.9147,-2.8693,-3.0211,-3.0376,-2.9998,-2.9139,-2.9068,-2.9135,-2.9187,-2.9205,-2.8837,-2.7961,-2.7843,-2.7493,-2.6745,-2.6656,-2.6281,-2.5541,-2.6977,-2.7391,-2.6665,-2.7452,-2.7543,-2.6925,-2.7627,-2.7468,-2.6536,-2.5775,-2.4966,-2.408,-2.3209,-2.2863,-2.2963,-2.3586,-2.3937,-2.4154,-2.4822,-2.5135,-2.5164,-2.4837,-2.4707,-2.4707,-2.8466,-2.8518,-2.8316,-2.7562,-2.7374,-2.7118,-2.6476,-2.5905,-2.5625,-2.5893,-2.5095,-2.4629,-2.495,-2.4922,-2.4889,-2.4996,-2.5333,-2.5499,-2.5314,-2.6022,-2.6249,-2.5796,-2.5778,-2.5778,-2.5778,-2.6666,-2.7358,-2.7865,-2.9231,-2.9661,-2.9207,-2.8866,-2.8275,-2.7456,-2.6603,-2.6015,-2.5655,-2.52,-2.501,-2.501,-2.4999,-2.4999,-2.5004,-2.5025,-2.5031,-2.5004,-2.5004,-2.4991,-2.501,-2.501,-2.501,-2.501,-2.501,-2.501,-2.5162,-2.5958,-2.6205,-2.6394,-2.7266,-2.7494,-2.7494,-2.7494,-2.7494,-2.7736,-2.8582,-2.8246,-2.7992,-2.8951,-2.9455,-2.9749,-2.9766,-2.949,-2.9502,-3.0298,-2.9407,-2.8887,-2.966,-2.939,-2.8965,-2.857,-2.8492,-2.8483,-2.8473,-2.8472,-2.8308,-2.7923,-2.7933,-2.7778,-2.7392,-2.7409,-2.7257,-2.6914,-2.7639,-2.7873,-2.7523,-2.7448,-2.7464,-2.7586,-2.7994,-2.7764,-2.6988,-2.7574,-2.7339,-2.6432,-2.5551,-2.4865,-2.4372,-2.4776,-2.4609,-2.4191,-2.4986,-2.5241,-2.5134,-2.4981,-2.4921,-2.4903]},{"header":{"parameterUnit":"m.s-1","parameterCategory":1,"la1":30.6,"la2":28.766,"lo1":-90.7593,"lo2":-88.6598,"dy":0.0162,"dx":0.0183,"nx":116,"ny":114,"refTime":"2023-05-02T00:00:00:Z","depth":0,"parameterNumber":3,"parameterNumberName":"V-component_of_WINDS"},"data":[0.0,0.0,0.0,0.0,0.0,0.0,0.0,0.0,0.0,0.0,0.0,0.0,0.0,0.0,0.0,0.0,0.0,0.0,0.0,0.0,0.0,0.0,0.0,0.0,0.0,0.0,0.0,0.0,0.0,0.0,0.0,0.0,0.0,0.0,0.0,0.0,0.0,0.0,0.0,0.0,0.0,0.0,0.0,0.0,0.0,0.0,0.0,0.0,0.0,0.0,0.0,0.0,0.0,0.0,0.0,0.0,0.0,0.0,0.0,0.0,0.0,0.0,0.0,0.0,0.0,0.0,0.0,0.0,0.0,0.0,0.0,0.0,0.0,0.0,0.0,0.0,0.0,0.0,0.0,0.0,0.0,0.0,0.0,0.0,0.0,0.0,0.0,0.0,0.0,0.0,0.0,0.0,0.0,0.0,0.0,0.0,0.0,0.0,0.0,0.0,0.0,0.0,0.0,0.0,0.0,0.0,0.0,0.0,0.0,0.0,0.0,0.0,0.0,0.0,0.0,0.0,0.0,0.0,0.0,0.0,0.0,0.0,0.0,0.0,0.0,0.0,0.0,0.0,0.0,0.0,0.0,0.0,0.0,0.0,0.0,0.0,0.0,0.0,0.0,0.0,0.0,0.0,0.0,0.0,0.0,0.0,0.0,0.0,0.0,0.0,0.0,0.0,0.0,0.0,0.0,0.0,0.0,0.0,0.0,0.0,0.0,0.0,0.0,0.0,0.0,0.0,0.0,0.0,0.0,0.0,0.0,0.0,0.0,0.0,0.0,0.0,0.0,0.0,0.0,0.0,0.0,0.0,0.0,0.0,0.0,0.0,0.0,0.0,0.0,0.0,0.0,0.0,0.0,0.0,0.0,0.0,0.0,0.0,0.0,0.0,0.0,0.0,0.0,0.0,0.0,0.0,0.0,0.0,0.0,0.0,0.0,0.0,0.0,0.0,0.0,0.0,0.0,0.0,0.0,0.0,0.0,0.0,0.0,0.0,0.0,0.0,0.0,0.0,0.0,0.0,0.0,0.0,0.0,0.0,0.0,0.0,0.0,0.0,0.0,0.0,0.0,0.0,0.0,0.0,0.0,0.0,0.0,0.0,0.0,0.0,0.0,0.0,0.0,0.0,0.0,0.0,0.0,0.0,0.0,0.0,0.0,0.0,0.0,0.0,0.0,0.0,0.0,0.0,0.0,0.0,0.0,0.0,0.0,0.0,0.0,0.0,0.0,0.0,0.0,0.0,0.0,0.0,0.0,0.0,0.0,0.0,0.0,0.0,0.0,0.0,0.0,0.0,0.0,0.0,0.0,0.0,0.0,0.0,0.0,0.0,0.0,0.0,0.0,0.0,0.0,0.0,0.0,0.0,0.0,0.0,0.0,0.0,0.0,0.0,0.0,0.0,0.0,0.0,0.0,0.0,0.0,0.0,0.0,0.0,0.0,0.0,0.0,0.0,0.0,0.0,0.0,0.0,0.0,0.0,0.0,0.0,0.0,0.0,0.0,0.0,0.0,0.0,0.0,0.0,0.0,0.0,0.0,0.0,0.0,0.0,0.0,0.0,0.0,0.0,0.0,0.0,0.0,0.0,0.0,0.0,0.0,0.0,0.0,0.0,0.0,0.0,0.0,0.0,0.0,0.0,0.0,0.0,0.0,0.0,0.0,0.0,0.0,0.0,0.0,0.0,0.0,0.0,0.0,0.0,0.0,0.0,0.0,0.0,0.0,0.0,0.0,0.0,0.0,0.0,0.0,0.0,0.0,0.0,0.0,0.0,0.0,0.0,0.0,0.0,0.0,0.0,0.0,0.0,0.0,0.0,0.0,0.0,0.0,0.0,0.0,0.0,0.0,0.0,0.0,0.0,0.0,0.0,0.0,0.0,0.0,0.0,0.0,0.0,0.0,0.0,0.0,0.0,0.0,0.0,0.0,0.0,0.0,0.0,0.0,0.0,0.0,0.0,0.0,0.0,0.0,0.0,0.0,0.0,0.0,0.0,0.0,0.0,0.0,0.0,0.0,0.0,0.0,0.0,0.0,0.0,0.0,0.0,0.0,0.0,0.0,0.0,0.0,0.0,0.0,0.0,0.0,0.0,0.0,0.0,0.0,0.0,0.0,0.0,0.0,0.0,0.0,0.0,0.0,0.0,0.0,0.0,0.0,0.0,0.0,0.0,0.0,0.0,0.0,0.0,0.0,0.0,0.0,0.0,0.0,0.0,0.0,0.0,0.0,0.0,0.0,0.0,0.0,0.0,0.0,0.0,0.0,0.0,0.0,0.0,0.0,0.0,0.0,0.0,0.0,0.0,0.0,0.0,0.0,0.0,0.0,0.0,0.0,0.0,0.0,0.0,0.0,0.0,0.0,0.0,0.0,0.0,0.0,0.0,0.0,0.0,0.0,0.0,0.0,0.0,0.0,0.0,0.0,0.0,0.0,0.0,0.0,0.0,0.0,0.0,0.0,0.0,0.0,0.0,0.0,0.0,0.0,0.0,0.0,0.0,0.0,0.0,0.0,0.0,0.0,0.0,0.0,0.0,0.0,0.0,0.0,0.0,0.0,0.0,0.0,0.0,0.0,0.0,0.0,0.0,0.0,0.0,0.0,0.0,0.0,0.0,0.0,0.0,0.0,0.0,0.0,0.0,0.0,0.0,0.0,0.0,0.0,0.0,0.0,0.0,0.0,0.0,0.0,0.0,0.0,0.0,0.0,0.0,0.0,0.0,0.0,0.0,0.0,0.0,0.0,0.0,0.0,0.0,0.0,0.0,0.0,0.0,0.0,0.0,0.0,0.0,0.0,0.0,0.0,0.0,0.0,0.0,0.0,0.0,0.0,0.0,0.0,0.0,0.0,0.0,0.0,0.0,0.0,0.0,0.0,0.0,0.0,0.0,0.0,0.0,0.0,0.0,0.0,0.0,0.0,0.0,0.0,0.0,0.0,0.0,0.0,0.0,0.0,0.0,0.0,0.0,0.0,0.0,0.0,0.0,0.0,0.0,0.0,0.0,0.0,0.0,0.0,0.0,0.0,0.0,0.0,0.0,0.0,0.0,0.0,0.0,0.0,0.0,0.0,0.0,0.0,0.0,0.0,0.0,0.0,0.0,0.0,0.0,0.0,0.0,0.0,0.0,0.0,0.0,0.0,0.0,0.0,0.0,0.0,0.0,0.0,0.0,0.0,0.0,0.0,0.0,0.0,0.0,0.0,0.0,0.0,0.0,0.0,0.0,0.0,0.0,0.0,0.0,0.0,0.0,0.0,0.0,0.0,0.0,0.0,0.0,0.0,0.0,0.0,0.0,0.0,0.0,0.0,0.0,0.0,0.0,0.0,0.0,0.0,0.0,0.0,0.0,0.0,0.0,0.0,0.0,0.0,0.0,0.0,0.0,0.0,0.0,0.0,0.0,0.0,0.0,0.0,0.0,0.0,0.0,0.0,0.0,0.0,0.0,0.0,0.0,0.0,0.0,0.0,0.0,0.0,0.0,0.0,0.0,0.0,0.0,0.0,0.0,0.0,0.0,0.0,0.0,0.0,0.0,0.0,0.0,0.0,0.0,0.0,0.0,0.0,0.0,0.0,0.0,0.0,0.0,0.0,0.0,0.0,0.0,0.0,0.0,0.0,0.0,0.0,0.0,0.0,0.0,0.0,0.0,0.0,0.0,0.0,0.0,0.0,0.0,0.0,0.0,0.0,0.0,0.0,0.0,0.0,0.0,0.0,0.0,0.0,0.0,0.0,0.0,0.0,0.0,0.0,0.0,0.0,0.0,0.0,0.0,0.0,0.0,0.0,0.0,0.0,0.0,0.0,0.0,0.0,0.0,0.0,0.0,0.0,0.0,0.0,0.0,0.0,0.0,0.0,0.0,0.0,0.0,0.0,0.0,0.0,0.0,0.0,0.0,0.0,0.0,0.0,0.0,0.0,0.0,0.0,0.0,0.0,0.0,0.0,0.0,0.0,0.0,0.0,0.0,0.0,0.0,0.0,0.0,0.0,0.0,0.0,0.0,0.0,0.0,0.0,0.0,0.0,0.0,0.0,0.0,0.0,0.0,0.0,0.0,0.0,0.0,0.0,0.0,0.0,0.0,0.0,0.0,0.0,0.0,0.0,0.0,0.0,0.0,0.0,0.0,0.0,0.0,0.0,0.0,0.0,0.0,0.0,0.0,0.0,0.0,0.0,0.0,0.0,0.0,0.0,0.0,0.0,0.0,0.0,0.0,0.0,0.0,0.0,0.0,0.0,0.0,0.0,0.0,0.0,0.0,0.0,0.0,0.0,0.0,0.0,0.0,0.0,0.0,0.0,0.0,0.0,0.0,0.0,0.0,0.0,0.0,0.0,0.0,0.0,0.0,0.0,0.0,0.0,0.0,0.0,0.0,0.0,0.0,0.0,0.0,0.0,0.0,0.0,0.0,0.0,0.0,0.0,0.0,0.0,0.0,0.0,0.0,0.0,0.0,0.0,0.0,0.0,0.0,0.0,0.0,0.0,0.0,0.0,0.0,0.0,0.0,0.0,0.0,0.0,0.0,0.0,0.0,0.0,0.0,0.0,0.0,0.0,0.0,0.0,0.0,0.0,0.0,0.0,0.0,0.0,0.0,0.0,0.0,0.0,0.0,0.0,0.0,0.0,0.0,0.0,0.0,0.0,0.0,0.0,0.0,0.0,0.0,0.0,0.0,0.0,0.0,0.0,0.0,0.0,0.0,0.0,0.0,0.0,0.0,0.0,0.0,0.0,0.0,0.0,0.0,0.0,0.0,0.0,0.0,0.0,0.0,0.0,0.0,0.0,0.0,0.0,0.0,0.0,0.0,0.0,0.0,0.0,0.0,0.0,0.0,0.0,0.0,0.0,0.0,0.0,0.0,0.0,0.0,0.0,0.0,0.0,0.0,0.0,0.0,0.0,0.0,0.0,0.0,0.0,0.0,0.0,0.0,0.0,0.0,0.0,0.0,0.0,0.0,0.0,0.0,0.0,0.0,0.0,0.0,0.0,0.0,0.0,0.0,0.0,0.0,0.0,0.0,0.0,0.0,0.0,0.0,0.0,0.0,0.0,0.0,0.0,0.0,0.0,0.0,0.0,0.0,0.0,0.0,0.0,0.0,0.0,0.0,0.0,0.0,0.0,0.0,0.0,0.0,0.0,0.0,0.0,0.0,0.0,0.0,0.0,0.0,0.0,0.0,0.0,0.0,0.0,0.0,0.0,0.0,0.0,0.0,0.0,0.0,0.0,0.0,0.0,0.0,0.0,0.0,0.0,0.0,0.0,0.0,0.0,0.0,0.0,0.0,0.0,0.0,0.0,0.0,0.0,0.0,0.0,0.0,0.0,0.0,0.0,0.0,0.0,0.0,0.0,0.0,0.0,0.0,0.0,0.0,0.0,0.0,0.0,0.0,0.0,0.0,0.0,0.0,0.0,0.0,0.0,0.0,0.0,0.0,0.0,0.0,0.0,0.0,0.0,0.0,0.0,0.0,0.0,0.0,0.0,0.0,0.0,0.0,0.0,0.0,0.0,0.0,0.0,0.0,0.0,0.0,0.0,0.0,0.0,0.0,0.0,0.0,0.0,0.0,0.0,0.0,0.0,0.0,0.0,0.0,0.0,0.0,0.0,0.0,0.0,0.0,0.0,0.0,0.0,0.0,0.0,0.0,0.0,0.0,0.0,0.0,0.0,0.0,0.0,0.0,0.0,0.0,0.0,0.0,0.0,0.0,0.0,0.0,0.0,0.0,0.0,0.0,0.0,0.0,0.0,0.0,0.0,0.0,0.0,0.0,0.0,0.0,0.0,0.0,0.0,0.0,0.0,0.0,0.0,0.0,0.0,0.0,0.0,0.0,0.0,0.0,0.0,0.0,0.0,0.0,0.0,0.0,0.0,0.0,0.0,0.0,0.0,0.0,0.0,0.0,0.0,0.0,0.0,0.0,0.0,0.0,0.0,0.0,0.0,0.0,0.0,0.0,0.0,0.0,0.0,0.0,0.0,0.0,0.0,0.0,0.0,0.0,0.0,0.0,0.0,0.0,0.0,0.0,0.0,0.0,0.0,0.0,0.0,0.0,0.0,0.0,0.0,0.0,0.0,0.0,0.0,0.0,0.0,0.0,0.0,0.0,0.2959,0.0,0.0,0.0,0.0,0.0,0.0,0.0,0.0,0.0,0.0,0.0,0.0,0.0,0.0,0.0,0.0,0.0,0.0,0.0,0.0,0.0,0.0,0.0,0.0,0.0,0.0,0.0,0.0,0.0,0.0,0.0,0.0,0.0,0.0,0.0,0.0,0.0,0.0,0.0,0.0,0.0,0.0,0.0,0.0,0.0,0.0,0.0,0.0,0.0,0.0,0.0,0.0,0.0,0.0,0.0,0.0,0.0,0.0,0.0,0.0,0.0,0.0,0.0,0.0,0.0,0.0,0.0,0.0,0.0,0.0,0.0,0.0,0.0,0.0,0.0,0.0,0.0,0.0,0.0,0.0,0.0,0.0,0.0,0.0,0.0,0.0,0.0,0.0,0.0,0.0,0.0,0.0,0.0,0.0,0.0,0.0,0.0,0.0,0.0,0.0,0.0,0.0,0.0,0.0,0.0,0.0,0.0,0.0,0.0,0.0,0.0,0.0,0.0,0.0,0.0,0.0,0.29,0.0,0.0,0.0,0.0,0.0,0.0,0.0,0.0,0.0,0.0,0.0,0.0,0.0,0.0,0.0,0.0,0.0,0.0,0.0,0.0,0.0,0.0,0.0,0.0,0.0,0.0,0.0,0.0,0.0,0.0,0.0,0.0,0.0,0.0,0.0,0.0,0.0,0.0,0.0,0.0,0.0,0.0,0.0,0.0,0.0,0.0,0.0,0.0,0.0,0.0,0.0,0.0,0.0,0.0,0.0,0.0,0.0,0.0,0.0,0.0,0.0,0.0,0.0,0.0,0.0,0.0,0.0,0.0,0.0,0.0,0.0,0.0,0.0,0.0,0.0,0.0,0.0,0.0,0.0,0.0,0.0,0.0,0.0,0.0,0.0,0.0,0.0,0.0,0.0,0.0,0.0,0.0,0.0,0.0,0.0,0.0,0.0,0.0,0.0,0.0,0.0,0.0,0.0,0.0,0.0,0.0,0.0,0.0,0.3517,0.358,0.3678,0.3656,0.3645,0.3621,0.318,0.2978,0.3024,0.2949,0.0,0.0,0.0,0.0,0.0,0.0,0.0,0.0,0.0,0.0,0.0,0.0,0.0,0.0,0.0,0.0,0.0,0.0,0.0,0.0,0.0,0.0,0.0,0.0,0.0,0.0,0.0,0.0,0.0,0.0,0.0,0.0,0.0,0.0,0.0,0.0,0.0,0.0,0.0,0.0,0.0,0.0,0.0,0.0,0.0,0.0,0.0,0.0,0.0,0.0,0.0,0.0,0.0,0.0,0.0,0.0,0.0,0.0,0.0,0.0,0.0,0.0,0.0,0.0,0.0,0.0,0.0,0.0,0.0,0.0,0.0,0.0,0.0,0.0,0.0,0.0,0.0,0.0,0.0,0.0,0.0,0.0,0.0,0.0,0.0,0.0,0.7085,0.7085,0.0,0.0,0.0,0.0,0.0,0.0,0.0,0.0,0.0,0.0,0.0,0.0,0.0,0.4286,0.3727,0.3746,0.3789,0.3805,0.3971,0.4031,0.4042,0.3939,0.3887,0.3813,0.3434,0.0,0.3249,0.3125,0.0,0.0,0.0,0.0,0.0,0.0,0.0,0.0,0.0,0.0,0.0,0.0,0.0,0.0,0.0,0.0,0.0,0.0,0.0,0.0,0.0,0.0,0.0,0.0,0.0,0.0,0.0,0.0,0.0,0.0,0.0,0.0,0.0,0.0,0.0,0.0,0.0,0.0,0.0,0.0,0.0,0.0,0.0,0.0,0.0,0.0,0.0,0.0,0.0,0.0,0.0,0.0,0.0,0.0,0.0,0.0,0.0,0.0,0.0,0.0,0.0,0.0,0.0,0.0,0.0,0.0,0.0,0.0,0.0,0.0,0.0,0.0,0.0,0.0,0.0,0.0,0.0,0.0,0.0,0.0,0.0,0.0,0.0,0.0,0.0,0.6869,0.6789,0.7047,0.6869,0.6673,0.0,0.0,0.0,0.0,0.0,0.0,0.0,0.0,0.0,0.4297,0.4296,0.4215,0.3985,0.4088,0.4172,0.4235,0.4289,0.4317,0.4322,0.4268,0.4208,0.4137,0.3966,0.3856,0.3789,0.262,0.2117,0.204,0.0,0.0,0.0,0.0,0.1813,0.1259,0.0,0.0,0.0,0.0,0.0,0.0,0.0,0.0,0.0,0.0,0.0,0.0,0.0,0.0,0.0,0.0,0.0,0.0,0.0,0.0,0.0,0.0,0.0,0.0,0.0,0.0,0.0,0.0,0.0,0.0,0.0,0.0,0.0,0.0,0.0,0.0,0.0,0.0,0.0,0.0,0.0,0.0,0.0,0.0,0.0,0.0,0.0,0.0,0.0,0.0,0.0,0.0,0.0,0.0,0.0,0.0,0.0,0.0,0.0,0.0,0.0,0.0,0.0,0.0,0.0,0.0,0.0,0.0,0.0,0.0,0.0,0.0,0.0,0.0,0.0,0.0,0.0,0.6393,0.6276,0.6618,0.6342,0.6102,0.0,0.0,0.0,0.0,0.0,0.0,0.4496,0.4446,0.4372,0.4156,0.4191,0.4251,0.4344,0.4376,0.4433,0.4515,0.4591,0.4577,0.4482,0.4132,0.3866,0.3766,0.4153,0.4313,0.4168,0.2605,0.1588,0.1027,0.1045,0.1495,0.2143,0.2159,0.0871,-0.0924,0.0,0.0,0.0,0.0,0.0,0.0,0.0,0.0,0.0,0.0,0.0,0.0,0.0,0.0,1.7199,0.0,0.0,0.0,0.0,0.0,0.0,0.0,0.0,0.0,0.0,0.0,0.0,0.0,0.0,0.0,0.0,0.0,0.0,0.0,0.0,0.0,0.0,0.0,0.0,0.0,0.0,0.0,0.0,0.0,0.0,0.0,0.0,0.0,0.0,0.0,0.0,0.0,0.0,0.0,0.0,0.0,0.0,0.0,0.0,0.0,0.0,0.0,0.0,0.0,0.0,0.0,0.0,0.0,0.0,0.0,0.0,0.0,0.0,0.0,0.0,0.0,0.0,0.0,0.0,0.5411,0.5494,0.0,0.0,0.0,0.0,0.4663,0.4616,0.4508,0.4149,0.4099,0.4159,0.4287,0.4395,0.4455,0.4461,0.4649,0.4709,0.4718,0.4726,0.4668,0.4482,0.3149,0.2481,0.2281,0.3703,0.4317,0.4246,0.3737,0.214,0.0053,0.0053,0.0104,0.0151,0.0151,-0.1361,-0.3394,0.0,0.0,0.0,0.0,0.0,0.0,0.0,0.0,0.0,0.0,0.0,0.0,0.0,1.7199,1.7199,0.0,0.0,0.0,0.0,0.0,0.0,0.0,0.0,0.0,0.0,0.0,0.0,0.0,0.0,0.0,0.0,0.0,0.0,0.0,0.0,0.0,0.0,0.0,0.0,0.0,0.0,0.0,0.0,0.0,0.0,0.0,0.0,0.0,0.0,0.0,0.0,0.0,0.0,0.0,0.0,0.0,0.0,0.0,0.0,0.0,0.0,0.0,0.0,0.0,0.0,0.0,0.0,0.0,0.0,0.0,0.0,0.0,0.0,0.0,0.0,0.0,0.0,0.0,0.0,0.5518,0.5391,0.0,0.5143,0.5036,0.4806,0.4288,0.4297,0.4284,0.4333,0.4344,0.4436,0.4637,0.4683,0.4703,0.4703,0.4828,0.4814,0.4737,0.4745,0.4762,0.4786,0.4362,0.2904,0.0673,-0.0672,-0.1203,-0.119,-0.0388,-0.1162,-0.2671,-0.172,-0.1365,-0.1351,-0.1188,-0.1808,-0.2734,0.0,0.0,0.0,0.0,0.0,0.0,0.0,0.0,0.0,0.0,0.0,1.7199,1.7199,1.7199,1.7199,0.0,0.0,0.0,0.0,0.0,0.0,0.0,0.0,0.0,0.0,0.0,0.0,0.0,0.0,0.0,0.0,0.0,0.0,0.0,0.0,0.0,0.0,0.0,0.0,0.0,0.0,0.0,1.3442,0.0,0.0,0.0,0.0,0.0,0.0,0.0,0.0,0.0,0.0,0.0,0.0,0.0,0.0,0.0,0.0,0.0,0.0,0.0,0.0,0.0,0.0,0.0,0.0,0.0,0.0,0.0,0.0,0.0,0.0,0.0,0.0,0.0,0.0,0.0,0.4842,0.5243,0.5117,0.4906,0.477,0.4671,0.4547,0.4227,0.4235,0.4341,0.458,0.4594,0.4686,0.489,0.4896,0.4879,0.4841,0.4922,0.4617,0.4027,0.4544,0.4779,0.4732,0.277,0.0684,-0.155,-0.2965,-0.3847,-0.4255,-0.3226,-0.3445,-0.4195,-0.3221,-0.2849,-0.2795,-0.2565,-0.2715,-0.3101,0.0,0.0,0.0,0.0,0.0,0.0,0.0,0.0,0.0,0.0,0.0,1.7186,1.7199,1.7199,1.7199,1.7199,0.0,0.0,0.0,0.0,0.0,0.0,0.0,0.0,0.0,0.0,0.0,0.0,0.0,0.0,0.0,0.0,0.0,0.0,0.0,0.0,0.0,0.0,0.0,0.0,0.0,0.0,1.433,0.0,0.0,0.0,0.0,0.0,0.0,0.0,0.0,0.0,0.0,0.0,0.0,0.0,0.0,0.0,0.0,0.0,0.0,0.0,0.0,0.0,0.0,0.0,0.0,0.0,0.0,0.0,0.0,0.0,0.0,0.0,0.0,0.0,0.3595,0.3853,0.4137,0.4481,0.449,0.4447,0.4341,0.4325,0.4371,0.4482,0.4493,0.4597,0.4763,0.4774,0.4828,0.5021,0.4943,0.4889,0.4927,0.4769,0.3981,0.2589,0.4077,0.4585,0.3849,-0.1749,-0.4327,-0.419,-0.2757,-0.3023,-0.4314,-0.4303,-0.4364,-0.435,-0.4308,-0.4309,-0.4271,-0.4021,-0.4244,-0.4677,0.0,0.0,0.0,0.0,0.0,0.0,0.0,0.0,0.0,0.0,1.6186,1.6484,1.7105,1.7199,1.7199,1.7199,0.0,0.0,0.0,0.0,0.0,0.0,0.0,0.0,0.0,0.0,0.0,0.0,0.0,0.0,0.0,0.0,0.0,0.0,0.0,0.0,0.0,0.0,0.0,0.0,0.0,0.0,1.3708,0.0,0.0,0.0,0.0,0.0,0.0,0.0,0.0,0.0,0.0,0.0,0.0,0.0,0.0,0.0,0.0,0.0,0.0,0.0,0.0,0.0,0.0,0.0,0.0,0.0,0.0,0.0,0.0,0.0,0.0,0.0,0.0,0.262,0.3476,0.2935,0.2915,0.42,0.4638,0.4822,0.4801,0.4657,0.4579,0.4606,0.4613,0.4757,0.4902,0.491,0.4968,0.4999,0.3859,0.3153,0.3179,0.4323,0.4512,0.3795,0.2134,0.0203,-0.2018,-0.3578,-0.4325,-0.425,-0.3899,-0.4233,-0.5113,-0.4964,-0.5029,-0.5253,-0.4452,-0.4339,-0.4628,-0.4361,-0.4454,-0.471,0.0,0.0,0.0,0.0,0.0,0.0,0.0,0.0,0.0,0.0,1.5651,1.6181,1.6912,1.7115,1.7107,1.6885,1.6723,0.0,0.0,0.0,0.0,0.0,0.0,0.0,0.0,0.0,0.0,0.0,0.0,0.0,0.0,0.0,0.0,0.0,0.0,0.0,0.0,0.0,0.0,0.0,0.0,0.0,1.4638,1.3867,1.3222,1.2645,1.1873,1.1247,1.0629,0.9714,0.0,0.0,0.0,0.0,0.0,0.0,0.0,0.0,0.0,0.0,0.0,0.0,0.0,0.0,0.0,0.0,0.0,0.0,0.0,0.0,0.0,0.0,0.0,0.0,0.0259,0.0066,0.0806,0.1403,0.1989,0.2481,0.3346,0.398,0.3952,0.383,0.3739,0.3786,0.3044,0.2727,0.2849,0.2765,0.2748,0.2796,0.1952,0.1113,0.0383,0.1347,0.1743,0.161,-0.0069,-0.1768,-0.3437,-0.4314,-0.4785,-0.4779,-0.4903,-0.5233,-0.5568,-0.5491,-0.5528,0.0,0.0,0.0,0.0,0.0,-0.4929,-0.5096,0.0,0.0,0.0,0.0,0.0,0.0,0.0,0.0,0.0,0.0,0.0,1.5828,1.6426,1.6796,1.6766,1.6257,1.5967,1.5604,0.0,0.0,0.0,0.0,0.0,0.0,0.0,0.0,0.0,0.0,0.0,0.0,0.0,0.0,0.0,0.0,0.0,0.0,0.0,0.0,0.0,0.0,0.0,0.0,1.5972,1.4934,1.4346,1.3885,1.2426,1.1394,1.0516,0.9595,0.0,0.0,0.0,0.0,0.0,0.0,0.0,0.0,0.0,0.0,0.0,0.0,0.0,0.0,0.0,0.0,0.0,0.0,0.0,0.0,0.0,0.0,0.0,0.0,-0.2237,-0.3193,-0.321,-0.0844,0.0624,-0.0244,0.0998,0.1854,0.1858,0.1858,0.1858,0.1858,0.0421,-0.059,-0.0842,0.0,0.0,0.0,0.0,-0.1528,-0.2984,-0.2989,-0.288,-0.2597,-0.2519,-0.255,-0.2681,-0.4631,-0.5512,-0.5509,-0.5826,-0.6017,-0.6086,-0.6214,-0.6096,-0.5915,-0.5712,-0.5482,-0.5322,-0.5521,-0.5703,-0.5863,0.0,0.0,0.0,0.0,0.0,0.0,0.0,0.0,0.0,1.3564,1.3784,1.4205,1.4983,1.5348,1.5376,1.5065,1.5183,1.5271,0.0,0.0,0.0,0.0,0.0,0.0,0.0,0.0,0.0,0.0,0.0,0.0,0.0,0.0,0.0,0.0,0.0,0.0,0.0,0.0,0.0,0.0,0.0,0.0,1.4215,1.3439,1.2724,1.2119,1.1556,1.0974,1.0383,0.9973,0.9058,0.7871,0.686,0.0,0.0,0.0,0.0,0.0,0.0,0.0,0.0,0.0,0.0,0.0,0.0,0.0,0.0,0.0,0.0,0.0,0.0,0.0,0.0,-0.4437,-0.4699,-0.4993,-0.5139,-0.4667,-0.374,-0.2482,-0.2062,-0.1821,-0.1853,-0.1857,-0.1857,-0.1857,-0.221,-0.3008,-0.4524,-0.47,-0.519,-0.6309,-0.6282,-0.6222,-0.6032,-0.6048,-0.5829,-0.5402,0.0,0.0,-0.5564,-0.6036,-0.6036,-0.5826,-0.6461,-0.6981,-0.7381,-0.7947,-0.8147,-0.793,-0.6171,-0.5715,-0.6045,-0.6284,-0.6727,-0.7155,0.0,0.0,0.0,0.0,0.0,0.0,0.0,0.0,0.0,0.0,1.3291,1.3672,1.4347,1.4709,1.4726,1.4299,1.3964,0.0,0.0,0.0,0.0,0.0,0.0,0.0,0.0,0.0,0.0,0.0,0.0,0.0,0.0,0.0,0.0,0.0,0.0,0.0,0.0,0.0,0.0,0.0,0.0,0.0,1.2451,1.3572,1.3588,1.2998,1.2154,1.1196,1.0141,0.956,0.8518,0.7288,0.6038,0.5378,0.4869,0.0,0.0,0.0,0.0,0.0,0.0,0.0,0.0,0.0,0.0,0.0,0.0,0.0,0.0,-0.2741,0.0,0.0,-0.527,-0.5295,-0.5416,-0.5524,-0.5626,-0.5961,-0.5733,-0.4416,-0.433,-0.4259,-0.4306,-0.431,-0.431,-0.431,-0.4748,-0.5371,-0.637,-0.6627,-0.7037,-0.7759,-0.7771,-0.7801,-0.7922,-0.774,-0.7698,-0.7919,-0.7664,-0.7489,-0.7407,-0.7669,-0.755,-0.7085,-0.7721,-0.7981,-0.8067,-0.8661,-0.8992,-0.9022,-0.7983,-0.7362,-0.6966,-0.6966,-0.7182,-0.7561,0.0,0.0,0.0,0.0,0.0,0.0,0.0,0.0,0.0,0.0,0.0,1.3038,1.3435,1.3808,1.3833,0.0,0.0,0.0,0.0,0.0,0.0,0.0,0.0,0.0,0.0,0.0,0.0,0.0,0.0,0.0,0.0,0.0,0.0,0.0,0.0,0.0,0.0,0.0,0.0,0.0,0.0,0.0,1.1438,1.3559,1.4036,1.3436,1.2317,1.0864,0.9415,0.858,0.7442,0.6182,0.5074,0.4612,0.4255,0.272,0.1947,0.0,0.0,0.0,0.0,0.0,0.0,0.0,0.0,0.0,-0.462,-0.4728,-0.491,-0.518,-0.5352,-0.5695,-0.5845,-0.5722,-0.5861,-0.5927,-0.5927,-0.6533,-0.6786,-0.6192,-0.6106,-0.6106,-0.6106,-0.6106,-0.6106,-0.6106,-0.6979,-0.7499,-0.7499,-0.8009,-0.8436,-0.8528,-0.8484,-0.8887,-0.9912,-0.958,-0.9715,-1.0421,-1.0042,-0.9659,-0.9302,-0.9652,-0.9494,-0.9029,-0.9605,-0.9682,-0.9304,-0.9816,-1.007,-1.0108,-0.9998,-0.9314,-0.8343,-0.7812,-0.7818,-0.811,0.0,0.0,0.0,0.0,0.0,0.0,0.0,0.0,0.0,0.0,0.0,0.0,0.0,0.0,0.0,0.0,0.0,0.0,0.0,0.0,0.0,0.0,0.0,0.0,0.0,0.0,0.0,0.0,0.0,0.0,0.0,0.0,0.0,0.0,0.0,0.0,0.0,0.0,0.0,0.0,0.0,0.0,1.2158,1.1657,1.1042,1.0301,0.9682,0.8635,0.7567,0.7052,0.5819,0.4451,0.4209,0.3686,0.2995,0.1718,0.0,0.0279,-0.1733,-0.3074,-0.4107,-0.4623,-0.4938,-0.5143,0.0,0.0,-0.6874,-0.6328,-0.6459,-0.667,-0.6844,-0.7073,-0.7274,-0.7436,-0.7519,-0.7544,-0.7544,-0.7647,-0.7658,-0.7573,-0.7573,-0.7573,-0.7573,-0.7573,-0.7573,-0.7573,-0.844,-0.8956,-0.8956,-0.9812,-1.059,-1.1123,-1.1182,-1.182,-1.3147,-1.3163,-1.3182,-1.3266,-1.2805,-1.2519,-1.249,-1.2112,-1.1924,-1.1987,-1.2683,-1.2906,-1.2826,-1.3055,-1.275,-1.21,-1.1253,-1.089,-1.0645,-0.9304,-0.9429,-1.0236,0.0,0.0,0.0,0.0,0.0,0.0,0.0,0.0,0.0,0.0,0.0,0.0,0.0,0.0,0.0,0.0,0.0,0.0,1.1339,1.208,0.0,0.0,0.0,0.0,0.0,0.0,0.0,0.0,0.0,0.0,0.0,0.0,0.0,0.0,0.0,0.0,0.0,0.0,0.0,0.0,0.0,0.0,0.8726,0.8229,0.7811,0.7471,0.8323,0.7203,0.0,0.0,0.4577,0.3257,0.3093,0.2613,0.1954,0.0711,-0.0115,0.0,-0.285,-0.4082,-0.5002,0.0,-0.5685,-0.5876,-0.6277,-0.6748,-0.7033,-0.6903,-0.7495,-0.8032,-0.8209,-0.8787,-0.9342,0.0,-0.9416,-0.947,-0.947,-0.9628,-0.9686,-0.948,-0.9805,-0.9653,-0.8674,-0.8607,-0.8865,-0.9383,-1.0163,-1.0595,-1.0595,-1.1861,-1.256,-1.2582,-1.3381,-1.4378,-1.5724,-1.5795,-1.6158,-1.6821,-1.6131,-1.5566,-1.5052,-1.4047,-1.3305,-1.2708,-1.272,-1.31,-1.3671,-1.3671,-1.3523,-1.3299,-1.325,-1.2915,-1.222,-1.073,-1.0356,-1.0632,0.0,0.0,0.0,0.0,0.0,0.0,0.0,0.0,0.0,0.0,0.0,0.0,0.0,0.0,0.0,0.0,0.0,0.0,0.0,1.0573,0.0,0.0,0.0,0.0,0.0,0.0,0.0,0.0,0.0,0.0,0.0,0.0,0.0,0.0,0.0,0.0,0.0,0.0,0.0,0.0,0.0,0.0,0.4846,0.4865,0.4494,0.4189,0.6364,0.5536,0.0,0.0,0.2853,0.1817,0.1631,0.1234,0.0603,-0.0413,-0.1489,-0.2633,-0.4047,0.0,0.0,-0.6647,-0.7234,-0.7804,-0.811,-0.8346,-0.8522,-0.8526,-0.9171,-0.9756,-0.9903,-1.0427,-1.0942,-1.1006,-1.1017,-1.1017,-1.1017,-1.1316,-1.1508,-1.1324,-1.1799,-1.184,-1.0926,-1.0314,-1.0349,-1.133,-1.2108,-1.265,-1.2965,-1.4309,-1.4996,-1.4736,-1.5675,-1.6722,-1.8019,-1.8085,-1.8573,-1.9515,-1.864,-1.8009,-1.7522,-1.6275,-1.5141,-1.4198,-1.3855,-1.4052,-1.4622,-1.4563,-1.4524,-1.4524,-1.4682,-1.4318,-1.3622,-1.2415,-1.1796,-1.1592,0.0,0.0,0.0,0.0,0.0,0.0,0.0,0.0,0.0,0.0,0.0,0.0,0.0,0.0,0.0,0.0,0.0,0.0,0.0,0.8241,0.0,0.0,0.0,0.0,0.0,0.0,0.0,0.0,0.0,0.0,0.0,0.0,0.0,0.0,0.0,0.0,0.0,0.0,0.0,0.0,0.0,0.0,0.1486,0.1835,0.1054,0.0123,0.292,0.0,0.0,0.0,0.0344,-0.0295,-0.0295,-0.0706,0.0,-0.1816,-0.2972,-0.4406,0.0,0.0,-0.8085,-0.9127,-1.056,-1.1738,-1.1686,-1.2233,-1.2644,-1.2306,-1.2194,-1.2123,-1.2135,-1.1851,-1.1768,-1.2105,-1.2147,-1.2147,-1.2147,-1.2457,-1.2732,-1.2798,-1.3056,-1.3741,0.0,-1.2995,-1.2091,-1.3284,-1.4303,-1.5249,-1.6424,-1.739,-1.7959,-1.8231,-1.8308,-1.8864,-2.0032,-2.0022,-2.025,-2.0671,-1.9727,-1.9555,-2.0028,-1.8895,-1.8037,-1.7435,-1.7422,-1.707,-1.644,-1.6556,-1.6417,-1.5998,-1.4947,-1.471,-1.4892,-1.4538,-1.4179,-1.3779,0.0,0.0,0.0,0.0,0.0,0.0,0.0,0.0,0.0,0.0,0.0,0.0,0.0,0.0,0.0,0.0,0.0,0.0,0.0,0.4726,0.5029,0.0,0.0,0.0,0.0,0.0,0.0,0.0,0.0,0.0,0.0,0.0,0.0,0.0,0.0,0.0,0.0,0.0,0.0,0.0,0.0,0.0,-0.2805,-0.1083,-0.0773,-0.1242,0.0,0.0,0.0,0.0,-0.1514,-0.1985,-0.17,0.0,0.0,-0.433,-0.5489,-0.6596,-0.7566,-0.8606,-0.9675,-1.0785,-1.1502,-1.208,-1.2361,-1.3054,-1.3503,-1.3048,-1.3484,-1.3767,-1.3485,-1.3645,-1.39,-1.4231,-1.4554,-1.4866,-1.5156,-1.5118,-1.4879,-1.4418,-1.5141,0.0,0.0,0.0,0.0,-1.6275,-1.6901,-1.77,-1.857,-1.9812,-2.0539,-2.0687,-2.1167,-2.1816,-2.2782,-2.2715,-2.2827,-2.3125,-2.1292,-1.9897,-1.8856,-1.8056,-1.7402,-1.6872,-1.6847,-1.6995,-1.714,-1.6921,-1.6921,-1.6999,-1.6362,-1.6182,-1.6275,-1.652,-1.6345,-1.5744,0.0,0.0,0.0,0.0,0.0,0.0,0.0,0.0,0.0,0.0,0.0,0.0,0.0,0.0,0.0,0.0,0.0,0.0,0.0,0.0,0.1107,0.0,0.0,0.0,0.0,0.0,0.0,0.0,0.0,0.0,0.0,0.0,0.0,0.0,0.0,0.0,0.0,0.0,0.0,0.0,0.0,0.0,-0.6437,-0.4809,-0.4029,0.0,0.0,0.0,0.0,0.0,0.0,0.0,0.0,-0.3941,-0.498,-0.6315,-0.7346,-0.8251,-0.9462,-1.0704,-1.1945,-1.3147,-1.3863,-1.4409,-1.4525,-1.5223,-1.5538,-1.4747,-1.5001,-1.5201,-1.4514,-1.4605,-1.4906,-1.5215,-1.5541,-1.6,-1.6589,-1.6616,-1.656,-1.6526,-1.7389,-1.7878,0.0,0.0,0.0,-1.8432,-1.8886,-1.9693,-2.0781,-2.1629,-2.2295,-2.2592,-2.2891,-2.334,-2.3991,-2.3928,-2.3815,-2.3735,-2.2202,-2.0581,-1.8982,-1.8747,-1.8193,-1.7449,-1.7422,-1.7666,-1.804,-1.7787,-1.7828,-1.8054,-1.7922,-1.7781,-1.7692,-1.8157,-1.7969,-1.7295,0.0,0.0,0.0,0.0,0.0,0.0,0.0,0.0,0.0,0.0,0.0,0.0,0.0,0.0,0.0,0.0,0.0,0.0,0.0,0.0,0.0,0.0,0.0,0.0,0.0,0.0,0.0,0.0,0.0,0.0,0.0,0.0,0.0,0.0,0.0,0.0,0.0,0.0,0.0,0.0,0.0,0.0,-0.9494,-0.9126,0.0,0.0,0.0,0.0,0.0,0.0,0.0,0.0,0.0,-0.5962,-0.683,-0.7979,-0.8727,-0.9562,-1.1549,-1.3319,-1.4901,-1.6124,-1.7543,-1.849,-1.8121,-1.8523,-1.8529,-1.7161,-1.677,-1.6345,-1.5295,0.0,-1.4859,-1.5088,-1.5221,-1.5694,-1.6785,-1.7243,-1.7893,0.0,0.0,0.0,0.0,0.0,0.0,-2.0018,0.0,-2.1388,-2.3037,-2.3083,-2.342,-2.4242,-2.37,-2.3504,-2.3793,-2.3754,-2.3433,-2.2724,-2.2495,-2.1716,-2.0514,-2.0793,-2.0291,-1.9145,-1.9116,-1.9101,-1.9139,-1.9101,-1.9116,-1.9203,-1.9534,-1.9374,-1.9043,-1.9388,-1.9189,-1.861,0.0,0.0,0.0,0.0,0.0,0.0,0.0,0.0,0.0,0.0,0.0,0.0,0.0,0.0,0.0,0.0,0.0,0.0,0.0,0.0,0.0,0.0,0.0,0.0,0.0,0.0,0.0,0.0,0.0,0.0,0.0,0.0,0.0,0.0,0.0,0.0,0.0,0.0,0.0,0.0,0.0,0.0,-1.3509,0.0,0.0,0.0,0.0,0.0,0.0,0.0,0.0,0.0,0.0,-0.9425,-0.9785,-1.1855,-1.2586,-1.3218,-1.506,-1.6413,-1.7424,-1.8291,-1.8875,-1.9315,-1.9211,-1.8918,-1.8419,-1.7772,-1.6951,-1.6352,-1.6069,0.0,0.0,-1.7019,-1.7557,0.0,-2.0151,-2.051,0.0,-2.1666,0.0,-2.3188,-2.301,-2.4011,0.0,0.0,-2.3893,-2.4165,-2.4685,-2.5481,-2.5936,-2.6126,-2.5945,-2.6114,-2.6567,-2.6143,-2.5335,-2.4255,-2.3726,-2.2836,-2.1556,-2.0727,-2.0157,-1.9822,-1.9304,-1.9288,-1.9508,-1.9213,-1.9566,-2.0272,-2.005,-2.02,-2.0608,-2.1141,-2.0984,-2.0429,0.0,0.0,0.0,0.0,0.0,0.0,0.0,0.0,0.0,0.0,0.0,0.0,0.0,0.0,0.0,0.0,0.0,0.0,0.0,0.0,0.0,0.0,0.0,0.0,0.0,0.0,0.0,0.0,0.0,0.0,0.0,0.0,0.0,0.0,0.0,0.0,0.0,0.0,0.0,0.0,0.0,0.0,0.0,0.0,0.0,0.0,0.0,0.0,0.0,0.0,0.0,-1.0865,-1.1815,-1.2384,-1.309,-1.483,0.0,-1.6197,-1.8066,-1.9134,-1.987,-2.0401,-2.0441,-2.0288,-2.001,-1.9512,-1.8865,-1.8137,-1.7786,0.0,-1.7002,-1.6764,0.0,0.0,0.0,0.0,-2.1188,-2.1861,-2.2516,0.0,-2.4453,0.0,-2.529,-2.6314,-2.7113,0.0,-2.6593,-2.6194,-2.6565,-2.7108,-2.7529,-2.7694,-2.7115,-2.6946,-2.7176,-2.6591,-2.6,-2.5354,-2.4745,-2.4008,-2.3044,-2.2348,-2.1879,-2.1572,0.0,-2.1142,-2.1335,-2.0941,-2.1133,-2.1664,-2.1566,-2.1594,-2.1816,-2.2464,-2.2351,-2.1873,0.0,0.0,0.0,0.0,0.0,0.0,0.0,0.0,0.0,0.0,0.0,0.0,0.0,0.0,0.0,0.0,0.0,0.0,0.0,0.0,0.0,0.0,0.0,0.0,0.0,0.0,0.0,0.0,0.0,0.0,0.0,0.0,0.0,0.0,0.0,0.0,0.0,0.0,0.0,0.0,0.0,0.0,0.0,0.0,0.0,0.0,0.0,0.0,0.0,0.0,-1.4476,-1.378,-1.4152,-1.5139,-1.6399,-1.749,-1.8117,-1.889,-2.0695,-2.1707,-2.2317,-2.2479,-2.2173,-2.1564,-2.0809,-2.0199,-1.9491,-1.8289,0.0,-1.8684,-1.7758,-1.7693,-1.7925,-1.8499,0.0,-1.9516,-2.125,-2.2577,-2.378,-2.5014,-2.6086,-2.7022,-2.7699,-2.8657,-2.9524,-3.0185,-2.8825,-2.8091,-2.8414,-2.8426,-2.8586,-2.8867,-2.7825,-2.7232,-2.7151,-2.6653,-2.6356,-2.6313,-2.5784,-2.5217,-2.4668,-2.4554,-2.4181,-2.363,-2.3533,-2.3484,-2.3484,-2.3103,-2.3088,-2.3274,-2.353,-2.3437,-2.3281,-2.3855,-2.3702,-2.323,0.0,0.0,0.0,0.0,0.0,0.0,0.0,0.0,0.0,0.0,0.0,0.0,0.0,0.0,0.0,0.0,0.0,0.0,0.0,0.0,0.0,0.0,0.0,0.0,0.0,0.0,0.0,0.0,0.0,0.0,0.0,0.0,0.0,0.0,0.0,0.0,0.0,0.0,0.0,0.0,0.0,0.0,0.0,0.0,0.0,0.0,0.0,0.0,0.0,0.0,-1.6011,-1.6248,-1.7687,-1.8441,-1.9156,-2.1188,-2.1737,-2.1874,-2.3173,-2.4249,-2.4989,-2.4554,-2.4132,-2.3592,-2.2471,-2.0774,0.0,0.0,0.0,-1.737,-1.7568,-1.7873,-1.8349,-1.8963,0.0,0.0,0.0,0.0,-2.6376,0.0,0.0,0.0,0.0,0.0,0.0,0.0,0.0,-3.0842,-2.9739,-2.9555,-2.9444,-2.9312,-2.9091,-2.9132,-2.952,-2.9392,-2.8769,-2.7599,-2.7437,-2.6701,-2.5473,-2.4798,-2.4457,-2.4294,-2.3744,0.0,-2.3484,-2.3416,-2.4078,-2.5125,-2.518,-2.5679,-2.634,-2.6466,-2.5812,-2.4783,0.0,0.0,0.0,0.0,0.0,0.0,0.0,0.0,0.0,0.0,-0.4293,-0.5176,0.0,0.0,0.0,0.0,0.0,0.0,0.0,0.0,0.0,0.0,0.0,0.0,0.0,0.0,0.0,0.0,0.0,0.0,0.0,0.0,0.0,0.0,0.0,0.0,0.0,0.0,0.0,0.0,0.0,0.0,0.0,0.0,0.0,0.0,0.0,0.0,0.0,0.0,-1.7329,-1.8105,-1.9361,-2.0501,-2.1658,-2.3135,-2.3644,-2.3954,-2.4505,-2.5335,-2.5749,-2.4843,-2.4019,-2.308,-2.2153,0.0,0.0,0.0,-1.8659,-1.8631,-1.8865,0.0,0.0,0.0,0.0,0.0,0.0,0.0,0.0,0.0,0.0,0.0,0.0,0.0,0.0,0.0,0.0,-3.2819,-3.1166,-3.1272,-3.11,-3.0477,-3.0368,-3.0456,-3.0674,-3.0297,-2.9478,-2.8202,-2.818,-2.7528,-2.6349,-2.5947,-2.5746,-2.5729,-2.5329,0.0,-2.5162,-2.4941,-2.5478,-2.6409,-2.6184,-2.6654,-2.7419,-2.6992,-2.6477,-2.5851,0.0,0.0,0.0,0.0,0.0,0.0,0.0,-0.2767,-0.3604,-0.4211,-0.5346,-0.6378,-0.7104,-0.8263,0.0,0.0,0.0,0.0,0.0,0.0,0.0,0.0,0.0,0.0,0.0,0.0,0.0,0.0,0.0,0.0,0.0,0.0,0.0,0.0,0.0,0.0,0.0,0.0,0.0,0.0,0.0,0.0,0.0,0.0,0.0,0.0,0.0,0.0,0.0,0.0,-1.8377,-1.9298,-2.0069,-2.1485,-2.3032,-2.3838,-2.4617,-2.5284,-2.5419,-2.6041,-2.6354,-2.5135,-2.388,-2.2612,-2.1657,-2.0452,0.0,0.0,-1.9578,-1.9938,-1.9938,0.0,0.0,0.0,0.0,0.0,0.0,0.0,0.0,0.0,0.0,0.0,0.0,0.0,0.0,0.0,0.0,0.0,-3.256,-3.2796,-3.2667,-3.1845,-3.1586,-3.1487,-3.1573,-3.0817,-2.9859,-2.869,-2.8706,-2.8093,-2.7007,-2.6942,-2.6926,-2.6926,-2.6825,0.0,0.0,-2.6436,-2.6731,-2.7378,-2.7212,-2.747,-2.7905,-2.7424,-2.6987,-2.6529,0.0,0.0,0.0,0.0,0.0,0.0,0.0,-0.3179,-0.4244,-0.5164,-0.5951,-0.7051,-0.8611,-0.9383,0.0,0.0,0.0,0.0,0.0,0.0,0.0,0.0,0.0,0.0,0.0,0.0,0.0,0.0,0.0,0.0,0.0,0.0,0.0,0.0,0.0,0.0,0.0,0.0,0.0,0.0,0.0,0.0,0.0,0.0,0.0,0.0,0.0,0.0,0.0,0.0,0.0,-1.9483,-2.0194,-2.0999,-2.1979,-2.3231,0.0,0.0,-2.6283,-2.734,-2.7997,-2.6683,-2.5435,-2.4023,-2.2322,0.0,0.0,-1.9383,-1.9332,-1.9362,-1.9362,-2.0213,0.0,0.0,0.0,0.0,0.0,0.0,0.0,0.0,0.0,0.0,0.0,0.0,0.0,0.0,0.0,0.0,-3.367,-3.368,-3.3556,-3.3246,-3.257,-3.2377,-3.2732,-3.1994,-3.0898,-2.9403,-2.9368,-2.8545,-2.7103,-2.704,-2.6975,-2.6975,-2.6975,0.0,0.0,-2.6942,-2.7334,-2.8066,-2.873,-2.8766,-2.851,-2.9165,-2.8285,-2.6771,0.0,0.0,0.0,0.0,0.0,0.0,0.0,-0.5461,-0.6387,-0.6631,-0.7306,-0.8135,-0.913,-0.9851,-1.0689,0.0,0.0,0.0,0.0,0.0,0.0,0.0,0.0,0.0,0.0,0.0,0.0,0.0,0.0,0.0,0.0,0.0,0.0,0.0,0.0,0.0,0.0,0.0,0.0,0.0,0.0,0.0,0.0,0.0,0.0,0.0,0.0,0.0,0.0,0.0,0.0,0.0,-1.8917,-1.9405,0.0,0.0,-2.3778,-2.5213,-2.5485,-2.6967,-2.8142,-2.692,-2.5711,-2.4526,-2.3354,0.0,-2.0897,-2.0681,-2.0651,-2.0701,-2.0701,-2.1134,-2.1728,0.0,0.0,0.0,0.0,0.0,0.0,0.0,0.0,0.0,0.0,0.0,0.0,0.0,0.0,0.0,-3.5873,-3.4771,-3.4126,-3.4103,-3.3166,-3.2848,-3.3206,-3.1823,-3.0923,-3.0522,-2.9497,-2.8809,-2.8393,-2.7701,-2.7355,-2.7355,-2.7105,0.0,0.0,-2.7007,-2.7451,-2.8135,-2.8425,-2.8696,-2.8926,-2.8791,-2.8243,-2.7494,0.0,0.0,0.0,0.0,0.0,0.0,-0.5632,-0.6843,-0.7658,-0.7675,-0.8182,-0.8801,-0.9444,-1.0225,-1.1092,-1.2055,0.0,0.0,0.0,0.0,0.0,0.0,0.0,0.0,0.0,0.0,0.0,0.0,0.0,0.0,0.0,0.0,0.0,0.0,0.0,0.0,0.0,0.0,0.0,0.0,0.0,0.0,0.0,0.0,0.0,0.0,0.0,0.0,0.0,0.0,0.0,0.0,0.0,0.0,0.0,0.0,-2.2599,-2.423,-2.4411,-2.6123,-2.7611,-2.6287,-2.5413,-2.4601,0.0,0.0,-2.1538,-2.1584,-2.1645,-2.1688,-2.1658,-2.1947,-2.2554,0.0,0.0,0.0,0.0,0.0,0.0,0.0,0.0,0.0,0.0,0.0,0.0,0.0,0.0,-3.7268,-3.7342,-3.5671,-3.4853,-3.5135,-3.3932,-3.3406,-3.3634,-3.1898,-3.1159,-3.1402,-3.0008,-2.9349,-2.9329,-2.8539,-2.8023,-2.78,-2.8037,0.0,0.0,-2.7535,-2.7747,-2.7958,-2.7876,-2.8031,-2.822,-2.7706,-2.7518,-2.7399,0.0,0.0,0.0,0.0,0.0,0.0,0.0,-0.6612,-0.7494,-0.8022,-0.8272,-0.8759,-0.9685,-1.0632,-1.151,-1.2324,0.0,0.0,0.0,0.0,0.0,0.0,0.0,0.0,0.0,0.0,0.0,0.0,0.0,0.0,0.0,0.0,0.0,0.0,0.0,0.0,0.0,0.0,0.0,0.0,0.0,0.0,0.0,0.0,0.0,0.0,0.0,0.0,0.0,0.0,0.0,0.0,0.0,0.0,0.0,0.0,-2.104,-2.2831,-2.3305,-2.5041,-2.6363,-2.4915,-2.4629,-2.4323,0.0,0.0,-2.1628,-2.1781,-2.184,-2.1899,-2.1811,-2.2452,-2.3229,-2.3979,0.0,0.0,0.0,0.0,0.0,0.0,0.0,0.0,0.0,0.0,0.0,0.0,0.0,0.0,-3.7701,-3.6245,-3.5708,-3.6463,-3.5008,-3.4199,-3.4199,-3.257,-3.181,-3.1869,-3.1078,-3.0286,-2.9494,-2.9476,-2.9062,-2.8388,0.0,0.0,0.0,-2.8752,-2.847,-2.7689,-2.7407,-2.6833,-2.6143,-2.6126,-2.6126,-2.6126,0.0,0.0,0.0,0.0,0.0,0.0,0.0,-0.8298,-0.9312,-0.8846,-0.9281,-0.9526,-0.9276,-1.05,-1.146,-1.1759,0.0,0.0,0.0,0.0,0.0,0.0,0.0,0.0,0.0,0.0,0.0,0.0,0.0,0.0,0.0,0.0,0.0,0.0,0.0,0.0,0.0,0.0,0.0,0.0,0.0,0.0,0.0,0.0,0.0,0.0,0.0,0.0,0.0,0.0,0.0,0.0,0.0,0.0,0.0,0.0,0.0,0.0,-2.1903,-2.3441,-2.4696,-2.3849,-2.388,-2.3913,-2.2943,0.0,-2.25,-2.2544,-2.2571,-2.2571,-2.2544,-2.276,-2.3354,-2.4643,-2.4626,0.0,0.0,0.0,0.0,0.0,0.0,0.0,0.0,0.0,0.0,0.0,-3.7084,-3.7171,-3.6692,-3.6439,-3.5988,-3.5271,-3.4037,-3.3226,-3.2879,-3.2209,-3.2245,-3.2954,-3.1111,-3.0469,-3.0876,-2.9551,-2.8796,0.0,0.0,0.0,0.0,-2.8461,-2.8371,-2.8049,-2.7423,-2.6886,-2.642,-2.59,-2.5575,-2.5409,0.0,0.0,0.0,0.0,0.0,0.0,0.0,-0.8579,-0.9767,-0.9474,-0.9798,-0.9969,-0.9779,-1.0603,-1.1186,-1.1232,0.0,0.0,0.0,0.0,0.0,0.0,0.0,0.0,0.0,0.0,0.0,0.0,0.0,0.0,0.0,0.0,0.0,0.0,0.0,0.0,0.0,0.0,0.0,0.0,0.0,0.0,-1.7402,0.0,0.0,0.0,0.0,0.0,0.0,0.0,0.0,0.0,0.0,0.0,0.0,0.0,-1.9377,0.0,0.0,-2.2017,-2.3153,-2.2563,-2.3085,0.0,0.0,0.0,-2.3164,-2.3164,-2.3188,-2.3188,-2.3164,-2.3206,-2.3749,-2.5279,-2.5181,0.0,0.0,0.0,0.0,0.0,0.0,0.0,0.0,0.0,0.0,0.0,-3.6801,-3.6897,-3.6491,-3.6363,-3.5651,-3.4173,-3.3689,-3.3168,-3.2559,-3.2391,-3.2793,-3.3742,-3.1985,-3.1328,-3.1631,-3.042,-2.954,0.0,0.0,0.0,0.0,-2.8898,-2.8768,-2.8345,-2.7119,-2.6537,-2.6267,-2.5166,-2.4829,-2.4846,0.0,0.0,0.0,0.0,0.0,0.0,0.0,0.0,0.0,0.0,-0.986,-1.0057,-1.0978,-1.0928,-1.0837,0.0,0.0,0.0,0.0,0.0,0.0,0.0,0.0,0.0,0.0,0.0,0.0,-1.4398,-1.4338,-1.4748,-1.5587,0.0,0.0,0.0,0.0,0.0,0.0,-1.5645,-1.5645,-1.5681,-1.6543,-1.734,0.0,0.0,0.0,0.0,0.0,0.0,0.0,0.0,0.0,0.0,0.0,0.0,0.0,0.0,0.0,0.0,0.0,0.0,0.0,0.0,0.0,0.0,0.0,0.0,0.0,0.0,0.0,-2.371,-2.3703,-2.3825,-2.4411,-2.5977,0.0,0.0,0.0,0.0,0.0,0.0,0.0,0.0,0.0,0.0,0.0,-3.5693,-3.6384,-3.6758,-3.6646,-3.5936,-3.4759,-3.3075,-3.3692,-3.3682,-3.2939,-3.2994,-3.3403,-3.4128,-3.331,-3.2511,-3.173,-3.1656,-3.082,0.0,0.0,0.0,0.0,-2.9853,-2.9514,-2.8469,-2.6669,-2.5919,-2.5685,-2.419,-2.3943,-2.4346,0.0,0.0,0.0,0.0,0.0,0.0,0.0,0.0,0.0,0.0,0.0,-0.9649,-1.1626,-1.1251,0.0,0.0,0.0,0.0,0.0,0.0,0.0,0.0,0.0,0.0,0.0,0.0,0.0,-1.4549,-1.4422,-1.4794,-1.5595,-1.5595,0.0,0.0,0.0,-1.5262,-1.4751,-1.6005,-1.6155,-1.5736,-1.7201,-1.791,0.0,0.0,0.0,0.0,-1.936,-1.9375,0.0,0.0,0.0,0.0,0.0,0.0,0.0,0.0,-1.913,-1.9166,-1.935,0.0,-1.9738,-2.0226,-2.1092,0.0,0.0,0.0,0.0,0.0,0.0,0.0,0.0,0.0,0.0,0.0,0.0,0.0,0.0,0.0,0.0,0.0,0.0,0.0,0.0,0.0,0.0,-3.5749,-3.588,-3.5432,-3.412,-3.39,-3.3022,-3.1341,-3.2104,-3.2437,-3.2232,-3.2847,-3.3258,-3.3444,-3.2624,-3.1784,-3.0945,-3.0311,-2.9826,0.0,0.0,0.0,-2.9451,-2.9535,-2.9084,-2.8211,-2.7112,-2.6195,-2.539,-2.4365,-2.3928,-2.3853,0.0,0.0,0.0,0.0,0.0,0.0,0.0,0.0,0.0,0.0,0.0,0.0,0.0,0.0,0.0,0.0,0.0,0.0,0.0,0.0,0.0,0.0,0.0,0.0,0.0,0.0,0.0,0.0,0.0,-1.5662,0.0,0.0,0.0,0.0,0.0,-1.5943,-1.4688,-1.6232,-1.6691,-1.6405,-1.7317,0.0,0.0,0.0,0.0,0.0,-1.942,-1.9479,0.0,-1.9574,-1.9587,-1.9601,0.0,0.0,0.0,0.0,-1.9365,-1.9409,-1.9365,-1.9499,-1.982,-2.0342,-2.1363,-2.239,0.0,0.0,0.0,0.0,0.0,0.0,0.0,0.0,0.0,0.0,0.0,0.0,0.0,0.0,0.0,0.0,0.0,0.0,0.0,0.0,-3.5777,-3.4945,-3.4848,-3.443,-3.3524,-3.3068,-3.2596,-3.2089,-3.1788,-3.1747,-3.1995,-3.2443,-3.3022,-3.3751,-3.2574,-3.1752,-3.1267,-3.0426,-2.9847,0.0,0.0,0.0,-2.9492,-2.9453,-2.8986,-2.8146,-2.7308,-2.6395,-2.5467,-2.4635,-2.4173,-2.3979,0.0,0.0,0.0,0.0,0.0,0.0,0.0,0.0,0.0,0.0,0.0,0.0,0.0,0.0,0.0,0.0,0.0,0.0,0.0,0.0,0.0,0.0,0.0,0.0,0.0,0.0,0.0,0.0,0.0,0.0,0.0,0.0,-1.8334,0.0,0.0,-1.7071,-1.5292,-1.6655,-1.7294,-1.7412,-1.7536,0.0,0.0,0.0,0.0,0.0,0.0,0.0,0.0,-1.9701,-1.9726,-1.975,-1.9804,0.0,0.0,0.0,0.0,0.0,-1.9509,-2.0059,-2.0756,-2.1036,-2.2279,-2.3438,0.0,0.0,0.0,0.0,0.0,0.0,0.0,0.0,0.0,0.0,0.0,0.0,0.0,0.0,0.0,0.0,0.0,0.0,0.0,-3.4975,-3.4702,-3.3959,-3.385,-3.3748,-3.3653,-3.287,-3.2743,-3.3349,-3.1851,-3.1313,-3.1897,-3.1873,-3.262,-3.4083,-3.2582,-3.1873,-3.1856,-3.0994,-3.0226,-2.9551,0.0,0.0,-2.9512,-2.9512,-2.8951,-2.8054,-2.7382,-2.6485,-2.5533,-2.4841,-2.4479,-2.4339,0.0,0.0,0.0,0.0,0.0,0.0,0.0,0.0,0.0,0.0,0.0,0.0,0.0,0.0,0.0,0.0,0.0,0.0,0.0,0.0,0.0,0.0,0.0,0.0,0.0,0.0,0.0,0.0,0.0,0.0,-1.7453,-1.7476,-1.7866,0.0,0.0,-1.7903,-1.7056,-1.7917,-1.832,-1.844,-1.9126,0.0,0.0,0.0,0.0,0.0,0.0,0.0,0.0,-1.9869,-1.9861,-1.989,-1.9941,0.0,0.0,0.0,0.0,0.0,-1.9726,-2.0364,-2.1199,-2.1896,-2.2741,-2.3599,0.0,0.0,0.0,0.0,0.0,0.0,0.0,0.0,0.0,0.0,0.0,0.0,0.0,0.0,0.0,0.0,0.0,0.0,-3.4218,-3.4127,-3.4036,-3.3921,-3.3906,-3.3585,-3.2896,-3.2728,-3.2403,-3.1842,-3.0871,-3.071,-3.1469,-3.1379,-3.1786,-3.2694,-3.1767,-3.1364,-3.1385,-3.05,-3.0013,-2.9832,0.0,-2.9771,-2.9664,-2.9607,-2.8671,-2.7267,-2.7157,-2.6149,-2.4767,-2.4636,-2.4582,-2.4547,0.0,0.0,0.0,0.0,0.0,0.0,0.0,0.0,0.0,0.0,0.0,0.0,0.0,0.0,0.0,0.0,0.0,0.0,0.0,0.0,0.0,0.0,0.0,0.0,0.0,0.0,0.0,0.0,0.0,-1.7056,-1.8715,-1.8736,-1.8762,-1.8755,-1.8575,-1.7888,-1.6903,-1.7605,-1.7974,-1.8127,0.0,0.0,0.0,0.0,0.0,0.0,0.0,0.0,0.0,0.0,-2.0059,-2.0078,-2.0133,0.0,0.0,0.0,0.0,0.0,-1.9934,-2.0601,-2.1365,-2.177,-2.2749,-2.3739,0.0,0.0,0.0,0.0,0.0,0.0,0.0,0.0,0.0,0.0,0.0,0.0,0.0,0.0,0.0,0.0,0.0,-3.368,-3.4212,-3.3854,-3.3379,-3.2916,-3.2847,-3.2662,-3.2295,-3.1783,-3.1763,-3.2304,-3.103,-3.0779,-3.1618,-3.1095,-3.141,-3.2553,-3.1272,-3.0901,-3.1322,-3.0486,-3.0089,-3.0061,0.0,-2.9965,-2.9784,-2.9317,-2.8344,-2.7114,-2.6684,-2.5749,-2.4645,-2.4645,-2.4663,-2.465,0.0,0.0,0.0,0.0,0.0,0.0,0.0,0.0,0.0,0.0,0.0,0.0,0.0,0.0,0.0,0.0,0.0,0.0,0.0,0.0,0.0,0.0,0.0,0.0,0.0,0.0,-1.5641,-1.8469,-1.7243,-1.7693,-1.9687,-1.9735,-1.9554,0.0,-1.8802,-1.8012,-1.7034,-1.7553,-1.783,-1.8002,0.0,0.0,0.0,0.0,0.0,0.0,0.0,0.0,0.0,0.0,0.0,0.0,0.0,0.0,0.0,-2.0122,-2.0096,-2.0031,-2.0129,-2.0636,-2.1201,-2.1478,0.0,0.0,0.0,0.0,0.0,0.0,0.0,0.0,0.0,0.0,0.0,0.0,0.0,0.0,0.0,0.0,-3.103,-3.2984,-3.2687,-3.2807,-3.4089,-3.3476,-3.2725,-3.2038,-3.196,-3.1953,-3.1945,-3.1258,-3.1464,-3.2749,-3.1348,-3.0882,-3.1554,-3.0901,-3.1207,-3.2448,-3.0957,-3.0701,-3.1469,-3.0643,-3.0163,-2.9978,-3.0164,-2.992,-2.933,-2.8916,-2.8032,-2.6911,-2.629,-2.5506,-2.4707,-2.4707,-2.4711,-2.4698,0.0,0.0,0.0,0.0,0.0,0.0,0.0,0.0,0.0,0.0,0.0,0.0,0.0,0.0,0.0,0.0,0.0,0.0,0.0,0.0,0.0,0.0,0.0,0.0,0.0,-1.5824,-1.6718,-1.7773,-1.7729,-1.8165,-1.9066,-1.9011,-1.9375,-2.0068,-1.9312,-1.8916,-1.8823,-1.8866,-1.8893,-1.8984,-1.9842,0.0,0.0,0.0,0.0,0.0,0.0,0.0,0.0,0.0,0.0,0.0,0.0,0.0,-2.028,-2.0287,-2.0188,-2.0129,-2.0246,-2.0325,-2.0597,-2.1462,0.0,0.0,0.0,0.0,0.0,0.0,0.0,0.0,0.0,0.0,0.0,0.0,0.0,0.0,0.0,0.0,-3.3099,-3.3266,-3.3235,-3.3254,-3.3371,-3.2603,-3.2059,-3.2,-3.2044,-3.2099,-3.2099,-3.2021,-3.204,-3.2152,-3.1261,-3.0813,-3.0867,-3.0813,-3.1112,-3.1757,-3.0878,-3.0936,-3.1739,-3.0878,-3.0047,-2.9303,-3.0055,-2.939,-2.7816,-2.8587,-2.7847,-2.6257,-2.62,-2.5588,-2.4707,-2.4707,-2.4707,-2.4692,0.0,0.0,0.0,0.0,0.0,0.0,0.0,0.0,0.0,0.0,0.0,0.0,0.0,0.0,0.0,0.0,0.0,0.0,0.0,0.0,0.0,0.0,0.0,-1.373,-1.6024,-1.5794,-1.6323,-1.7709,-1.8261,-1.8747,-1.9128,-1.9618,0.0,0.0,0.0,-1.9054,-1.906,-1.906,-1.9057,-1.9137,-1.998,-2.0292,0.0,0.0,0.0,0.0,0.0,0.0,0.0,0.0,-2.0396,-2.0408,0.0,-2.0371,-2.0354,-2.0365,-2.0321,-2.0314,-2.039,-2.0795,-2.1272,-2.1668,0.0,0.0,0.0,0.0,0.0,0.0,0.0,0.0,0.0,0.0,0.0,0.0,0.0,0.0,-3.1884,-3.2279,-3.2694,-3.3239,-3.2849,-3.2558,-3.2558,-3.1771,-3.1251,-3.1251,-3.128,-3.1293,-3.1293,-3.1285,-3.1289,-3.1289,-3.0977,-3.0801,-3.0801,-3.0801,-3.0642,-3.0327,-3.0562,-3.0853,-3.1164,-3.0834,-3.0212,-2.9426,-3.0238,-2.9833,-2.8576,-2.8364,-2.7827,-2.7033,-2.5939,-2.5228,-2.4818,-2.4818,-2.4779,-2.4707,0.0,0.0,0.0,0.0,0.0,0.0,0.0,0.0,0.0,0.0,0.0,0.0,0.0,0.0,0.0,0.0,0.0,0.0,0.0,0.0,0.0,0.0,0.0,-1.3361,-1.5757,-1.5451,-1.6212,-1.8164,-1.8747,-1.9241,-1.9624,0.0,0.0,0.0,0.0,0.0,0.0,-1.9394,-1.9357,-1.9167,-1.9989,-2.0321,0.0,0.0,0.0,0.0,0.0,0.0,0.0,0.0,-2.0433,0.0,0.0,0.0,0.0,0.0,-2.0422,-2.0448,-2.0488,-2.1099,-2.1808,0.0,0.0,0.0,0.0,0.0,0.0,0.0,0.0,0.0,0.0,0.0,0.0,0.0,-2.9316,-3.0211,-3.1081,-3.1446,-3.1732,-3.2065,-3.1851,-3.1695,-3.1695,-3.1159,-3.0793,-3.0793,-3.0794,-3.0807,-3.0827,-3.0836,-3.0704,-3.0431,-3.0684,-3.0567,-3.0021,-3.0274,-2.9977,-2.9127,-2.9991,-3.0408,-3.039,-3.039,-2.9913,-2.9118,-2.9672,-2.9214,-2.8036,-2.7726,-2.7342,-2.6851,-2.5614,-2.5084,-2.4987,-2.4987,-2.4915,-2.479,0.0,0.0,0.0,0.0,0.0,0.0,0.0,0.0,0.0,0.0,0.0,0.0,0.0,0.0,0.0,0.0,0.0,0.0,0.0,0.0,0.0,0.0,0.0,-1.2327,-1.4079,-1.4988,-1.6685,-1.9192,-1.9134,-1.958,-2.0508,-2.0434,0.0,0.0,0.0,0.0,0.0,-2.0035,-1.9899,-1.9184,-2.005,-2.04,-2.0402,0.0,0.0,0.0,0.0,0.0,0.0,0.0,-2.0492,-2.0497,0.0,0.0,0.0,-2.0501,-2.05,-2.0495,-2.0495,-2.1141,-2.2001,0.0,0.0,0.0,0.0,0.0,0.0,0.0,0.0,0.0,0.0,0.0,0.0,-2.9074,-2.8782,-2.8536,-2.9383,-3.026,-3.0472,-2.9615,-3.0278,-3.0804,-3.0804,-3.0806,-3.0801,-3.0798,-3.0794,-3.0821,-3.0899,-3.0899,-3.0489,-2.9632,-3.0431,-3.006,-2.8323,-2.9162,-2.9162,-2.8303,-2.9181,-2.9559,-2.9498,-2.9518,-2.9031,-2.8193,-2.8227,-2.7234,-2.5699,-2.6556,-2.631,-2.5398,-2.5255,-2.5192,-2.5192,-2.5192,-2.5118,-2.5005,0.0,0.0,0.0,0.0,0.0,0.0,0.0,0.0,0.0,0.0,0.0,0.0,0.0,0.0,0.0,0.0,0.0,0.0,0.0,0.0,0.0,0.0,0.0,0.0,0.0,0.0,-1.9088,-1.9266,-1.9208,-1.9659,0.0,0.0,0.0,-2.0536,0.0,0.0,0.0,-2.0438,-2.0363,-2.0118,-2.0371,-2.0428,-2.0405,0.0,0.0,0.0,0.0,0.0,0.0,0.0,0.0,0.0,0.0,0.0,0.0,-2.0503,-2.0502,-2.05,-2.05,-2.1142,0.0,0.0,0.0,0.0,0.0,0.0,0.0,0.0,0.0,0.0,0.0,0.0,0.0,-2.9466,-2.9755,-3.0068,-3.0367,-3.0632,-3.0706,-3.0447,-3.0639,-3.0808,-3.0808,-3.08,-3.082,-3.0877,-3.0838,-3.0839,-3.0899,-3.032,-2.9876,-2.9602,-2.9805,-2.9394,-2.8301,-2.912,-2.912,-2.8303,-2.9181,-2.9277,-2.87,-2.9871,-2.9637,-2.8349,-2.9526,-2.9043,-2.7394,-2.7043,-2.6364,-2.5546,-2.5506,-2.5422,-2.5329,-2.5302,-2.5225,-2.5118,0.0,0.0,0.0,0.0,0.0,0.0,0.0,0.0,0.0,0.0,0.0,0.0,0.0,0.0,0.0,0.0,0.0,0.0,0.0,0.0,0.0,0.0,0.0,0.0,0.0,-1.8924,-2.0272,0.0,0.0,0.0,0.0,0.0,0.0,-2.0593,0.0,-2.0596,0.0,0.0,-2.0573,-2.054,-2.054,-2.0528,-2.049,0.0,0.0,0.0,0.0,0.0,0.0,0.0,0.0,0.0,0.0,0.0,0.0,-2.0507,-2.0507,-2.0507,-2.0527,0.0,0.0,0.0,0.0,0.0,0.0,0.0,0.0,0.0,0.0,0.0,0.0,-2.9877,0.0,-2.9957,-3.0115,-3.0233,-3.024,-3.0231,-3.0116,-2.9773,-3.0033,-3.0115,-2.9803,-3.0376,-3.063,-3.0332,-3.0268,-3.0268,-3.0291,-2.9805,-2.9374,-2.9056,-2.9313,-2.891,-2.7754,-2.8216,-2.8216,-2.7754,-2.8594,-2.8749,-2.8311,-2.9693,-2.9769,-2.8847,-2.9523,-2.9006,-2.767,-2.7156,-2.6428,-2.5644,-2.5619,-2.554,-2.548,-2.5427,-2.5387,-2.5302,0.0,0.0,0.0,0.0,0.0,0.0,0.0,0.0,0.0,0.0,0.0,0.0,0.0,0.0,0.0,0.0,0.0,0.0,0.0,0.0,0.0,0.0,0.0,0.0,0.0,0.0,0.0,0.0,0.0,0.0,0.0,0.0,-2.0597,-2.0597,0.0,-2.0582,0.0,-2.0585,-2.0586,-2.0586,-2.0586,-2.0585,-2.0599,-2.058,0.0,0.0,0.0,0.0,0.0,0.0,0.0,0.0,-2.0519,-2.0538,-2.056,-2.0528,-2.0509,-2.0514,-2.0562,0.0,0.0,0.0,0.0,0.0,0.0,0.0,0.0,0.0,0.0,0.0,0.0,-2.9491,-2.8925,-3.0451,-3.0017,-2.9471,-2.941,-2.9332,-2.8984,-2.8197,-2.8808,-2.8987,-2.8268,-2.9565,-3.0147,-2.9357,-2.9292,-2.9279,-2.9296,-2.9213,-2.8837,-2.8101,-2.886,-2.8506,-2.6919,-2.7043,-2.7121,-2.7133,-2.7874,-2.8259,-2.834,-2.9275,-2.9718,-2.9652,-2.8715,-2.7895,-2.7212,-2.6983,-2.6451,-2.5807,-2.5652,-2.5605,-2.5601,-2.56,-2.5565,-2.5505,0.0,0.0,0.0,0.0,0.0,0.0,0.0,0.0,0.0,0.0,0.0,0.0,0.0,0.0,0.0,0.0,0.0,0.0,0.0,0.0,0.0,0.0,0.0,0.0,0.0,0.0,0.0,0.0,0.0,0.0,0.0,0.0,0.0,-2.0527,0.0,-2.0525,-2.0521,-2.0521,-2.0516,-2.0525,-2.0516,-2.0515,-2.0523,-2.0455,-2.0441,0.0,0.0,0.0,0.0,0.0,0.0,0.0,-2.0506,-2.0464,-2.0448,-2.0497,-2.0467,-2.0437,0.0,-2.0648,0.0,0.0,0.0,0.0,0.0,0.0,0.0,0.0,0.0,0.0,-3.0614,-3.0419,-3.0277,-3.0652,-2.9971,-2.9413,-2.9389,-2.8812,-2.8301,-2.8129,-2.8272,-2.8314,-2.8139,-2.8454,-2.8598,-2.8471,-2.8418,-2.8395,-2.8456,-2.7802,-2.7348,-2.7195,-2.7962,-2.7892,-2.6919,-2.8206,-2.8853,-2.8861,-2.904,-2.9133,-2.9169,-3.0113,-3.0547,-3.0468,-2.8944,-2.8552,-2.8806,-2.6804,-2.6271,-2.6642,-2.5944,-2.5684,-2.5662,-2.5621,-2.5589,-2.5576,0.0,0.0,0.0,0.0,0.0,0.0,0.0,0.0,0.0,0.0,0.0,0.0,0.0,0.0,0.0,0.0,0.0,0.0,0.0,0.0,0.0,0.0,0.0,0.0,0.0,0.0,0.0,0.0,0.0,0.0,0.0,0.0,0.0,-2.0504,0.0,-2.0498,-2.0504,-2.0504,-2.0506,-2.0492,-2.0506,-2.0488,-2.0459,-2.0404,-2.039,-2.0405,-2.0394,0.0,0.0,0.0,0.0,0.0,0.0,0.0,-2.04,-2.0445,-2.0405,-2.0376,0.0,0.0,0.0,0.0,0.0,0.0,0.0,0.0,0.0,0.0,0.0,0.0,-2.9382,-2.946,-2.9467,-2.9453,-2.9077,-2.8759,-2.8725,-2.799,-2.7434,-2.7438,-2.7427,-2.7265,-2.6851,-2.7559,-2.7892,-2.7503,-2.7442,-2.7447,-2.7473,-2.7047,-2.6787,-2.6799,-2.7215,-2.7235,-2.6818,-2.729,-2.7724,-2.812,-2.8113,-2.8122,-2.8194,-2.9528,-2.994,-2.9586,-2.9099,-2.8652,-2.8202,-2.687,-2.6337,-2.6371,-2.6347,-2.6071,-2.5757,-2.613,-2.6006,-2.5632,0.0,0.0,0.0,0.0,0.0,0.0,0.0,0.0,0.0,0.0,0.0,0.0,0.0,0.0,0.0,0.0,0.0,0.0,0.0,0.0,0.0,0.0,0.0,0.0,0.0,0.0,0.0,0.0,0.0,0.0,0.0,0.0,0.0,-2.05,0.0,0.0,-2.0497,-2.0497,-2.0484,-2.0477,-2.0471,-2.0437,-2.0404,-2.039,-2.0386,-2.0385,-2.0379,-2.0383,-2.0371,-2.0371,0.0,0.0,0.0,0.0,-2.0388,-2.0376,-2.0344,-2.0302,0.0,0.0,0.0,0.0,0.0,0.0,0.0,0.0,0.0,0.0,0.0,-2.7913,-2.8068,-2.81,-2.8094,-2.807,-2.7966,-2.7842,-2.7782,-2.7031,-2.6489,-2.6489,-2.6481,-2.6183,-2.547,-2.6706,-2.7238,-2.6534,-2.6485,-2.6474,-2.6474,-2.6472,-2.6481,-2.6481,-2.6616,-2.6693,-2.6693,-2.6172,-2.6249,-2.6915,-2.6779,-2.666,-2.6626,-2.8081,-2.8476,-2.8093,-2.8764,-2.8351,-2.7187,-2.6894,-2.6442,-2.5987,-2.6552,-2.6433,-2.5982,-2.6576,-2.6415,-2.5924,0.0,0.0,0.0,0.0,0.0,0.0,0.0,0.0,0.0,0.0,0.0,0.0,0.0,0.0,0.0,0.0,0.0,0.0,0.0,0.0,0.0,0.0,0.0,0.0,0.0,0.0,0.0,0.0,0.0,0.0,0.0,0.0,0.0,-2.0509,0.0,0.0,-2.0511,-2.0511,-2.0473,-2.0411,-2.0341,-2.036,-2.0392,-2.0345,-2.0306,-2.0301,-2.0304,-2.0315,-2.0304,-2.0304,-2.0308,0.0,0.0,0.0,-2.0314,-2.0308,-2.0269,-2.0227,0.0,0.0,0.0,0.0,0.0,0.0,0.0,0.0,0.0,0.0,-2.6292,-2.7207,-2.7957,-2.8105,-2.807,-2.8031,-2.7376,-2.6884,-2.6857,-2.6114,-2.5575,-2.5575,-2.5567,-2.553,-2.5415,-2.5608,-2.5704,-2.558,-2.5569,-2.5569,-2.5569,-2.5567,-2.5567,-2.5569,-2.6301,-2.6706,-2.6688,-2.7286,-2.7662,-2.7816,-2.7061,-2.6331,-2.5684,-2.5909,-2.6417,-2.7082,-2.7199,-2.7557,-2.7939,-2.6478,-2.6248,-2.6757,-2.6113,-2.6267,-2.6755,-2.6101,-2.6271,-2.6837,0.0,0.0,0.0,0.0,0.0,0.0,0.0,0.0,0.0,0.0,0.0,0.0,0.0,0.0,0.0,0.0,0.0,0.0,0.0,0.0,0.0,-1.5342,-1.7807,-1.9494,0.0,0.0,0.0,0.0,0.0,0.0,0.0,-2.0376,-2.0437,0.0,0.0,0.0,0.0,0.0,-2.0408,-2.0334,-2.0354,-2.0334,-2.0272,-2.025,-2.0242,-2.0246,-2.0249,-2.0269,-2.0312,-2.0312,-2.0296,-2.0299,-2.0262,0.0,0.0,0.0,-2.0208,0.0,0.0,0.0,0.0,0.0,0.0,0.0,0.0,0.0,0.0,0.0,-2.5281,-2.603,-2.6462,-2.6539,-2.6511,-2.6494,-2.6176,-2.5934,-2.6025,-2.5696,-2.5456,-2.5456,-2.5468,-2.544,-2.5412,-2.5404,-2.5395,-2.5397,-2.5406,-2.5406,-2.5397,-2.5395,-2.5395,-2.5387,-2.5762,-2.5974,-2.5965,-2.6313,-2.6524,-2.6522,-2.5699,-2.5116,-2.4752,-2.4281,-2.4561,-2.5473,-2.5929,-2.6359,-2.6692,-2.5949,-2.5886,-2.6286,-2.6386,-2.6367,-2.6287,-2.6383,-2.6358,-2.6273,0.0,0.0,0.0,0.0,0.0,0.0,0.0,0.0,0.0,0.0,0.0,0.0,0.0,0.0,0.0,0.0,0.0,0.0,0.0,0.0,0.0,-1.1247,-1.5484,-1.8039,-1.856,0.0,0.0,0.0,0.0,0.0,-2.0276,-2.0255,-2.0326,0.0,-2.041,0.0,0.0,0.0,0.0,0.0,-1.9699,-1.9765,-2.0137,-1.9558,-1.9684,-2.0161,-2.0162,-2.018,-2.0216,-2.0208,-2.0199,-2.0199,-2.0162,-2.0153,0.0,0.0,0.0,0.0,0.0,0.0,0.0,0.0,0.0,0.0,0.0,0.0,0.0,0.0,-2.4446,-2.4954,-2.5177,-2.5245,-2.5265,-2.5265,-2.5265,-2.5312,-2.544,-2.544,-2.5459,-2.5459,-2.5468,-2.544,-2.5387,-2.5395,-2.5395,-2.5398,-2.5388,-2.536,-2.537,-2.5388,-2.5397,-2.5388,-2.5397,-2.5397,-2.5369,-2.5397,-2.5406,-2.5385,-2.4803,-2.4405,-2.4188,-2.3538,-2.3605,-2.4303,-2.4917,-2.5329,-2.5589,-2.5601,-2.5626,-2.5748,-2.6418,-2.6403,-2.6074,-2.6504,-2.6403,-2.6025,0.0,0.0,0.0,0.0,0.0,0.0,0.0,0.0,0.0,0.0,0.0,0.0,0.0,0.0,0.0,-0.0771,-0.2722,-0.4616,-0.6227,-0.6547,-0.7042,-0.7924,-1.2015,0.0,-1.4127,0.0,0.0,0.0,0.0,0.0,-2.0196,-2.0133,-2.0184,-2.0314,-2.0315,-2.0269,-2.0215,0.0,0.0,0.0,-1.7871,-1.827,-1.996,0.0,0.0,0.0,0.0,-2.0011,-2.0011,-1.995,-1.9928,-1.9939,-1.9991,-2.0011,-2.0021,0.0,0.0,0.0,0.0,0.0,0.0,0.0,0.0,0.0,0.0,0.0,0.0,0.0,-2.3932,-2.426,-2.4892,-2.5122,-2.5222,-2.5222,-2.5222,-2.5234,-2.5293,-2.5313,-2.5313,-2.5313,-2.536,-2.5388,-2.5302,-2.537,-2.5398,-2.5398,-2.5351,-2.5313,-2.5313,-2.5361,-2.5361,-2.5313,-2.5361,-2.5361,-2.5313,-2.5361,-2.5398,-2.5398,-2.5365,-2.4938,-2.4212,-2.415,-2.4157,-2.4203,-2.4258,-2.4736,-2.5512,-2.5571,-2.5595,-2.5624,-2.5726,-2.6249,-2.6837,-2.6069,-2.6269,-2.6931,0.0,0.0,0.0,0.0,0.0,0.0,0.0,0.0,0.0,0.0,0.0,0.0,0.0,0.0,0.3179,0.2802,0.2078,0.1415,0.0954,-0.1656,-0.446,-0.7313,-1.1584,-1.5033,-1.753,-1.9119,0.0,0.0,0.0,-2.003,-2.0208,-2.0135,-2.0125,-2.0175,-2.0222,-2.0208,-2.02,-2.0192,0.0,0.0,-1.8049,-1.8412,-1.9658,0.0,0.0,0.0,0.0,0.0,-2.0001,-1.9981,-1.9939,-1.9888,-1.9928,-1.9918,-1.9877,-1.9843,0.0,0.0,0.0,0.0,0.0,0.0,0.0,0.0,0.0,0.0,0.0,-2.2194,-2.3034,-2.3871,-2.406,-2.4626,-2.5031,-2.4956,-2.4943,-2.4981,-2.5096,-2.5115,-2.5103,-2.5103,-2.5126,-2.5126,-2.5111,-2.5134,-2.5149,-2.5194,-2.5184,-2.5214,-2.5303,-2.5322,-2.5322,-2.5303,-2.5322,-2.5322,-2.5303,-2.5322,-2.5361,-2.5398,-2.5406,-2.5258,-2.4957,-2.4443,-2.4509,-2.5008,-2.4447,-2.4689,-2.5499,-2.5525,-2.5554,-2.5591,-2.5632,-2.5853,-2.613,-2.5824,-2.5892,-2.6171,0.0,0.0,0.0,0.0,0.0,0.0,0.0,0.0,0.0,0.0,0.0,0.0,0.0,0.0,0.5295,0.5259,0.5238,0.5324,0.5491,0.1367,-0.2267,-0.4847,-1.0588,-1.4933,-1.753,-1.9018,0.0,0.0,0.0,0.0,0.0,-2.001,-2.001,-2.0021,-2.0069,-2.0088,0.0,0.0,0.0,-1.9762,0.0,-1.7783,-1.9484,0.0,0.0,0.0,0.0,0.0,0.0,0.0,-1.955,-1.9326,-1.9663,0.0,0.0,0.0,0.0,0.0,0.0,0.0,0.0,0.0,0.0,0.0,0.0,0.0,-2.1566,-2.1263,-2.2066,-2.288,-2.3097,-2.386,-2.453,-2.4733,-2.4771,-2.4814,-2.4923,-2.4936,-2.4936,-2.4936,-2.4962,-2.4994,-2.4936,-2.4949,-2.4981,-2.5022,-2.5022,0.0,-2.516,-2.5179,-2.5179,-2.5179,-2.5179,-2.5179,-2.5179,-2.5179,-2.519,-2.5241,-2.5224,-2.5225,-2.5226,-2.4744,-2.4857,-2.5376,-2.4808,-2.4927,-2.5498,-2.5492,-2.5525,-2.5565,-2.5581,-2.5632,-2.5662,-2.5687,-2.5701,-2.5696,0.0,0.0,0.0,0.0,0.0,0.0,0.0,0.0,0.0,0.0,0.0,0.0,0.0,0.0,0.0,0.6313,0.6289,0.638,0.6477,0.2233,-0.0321,-0.0285,-0.8727,-1.3423,-1.341,-1.7532,0.0,0.0,0.0,0.0,0.0,0.0,-1.9828,-1.9877,-1.9832,-1.9866,-1.9991,0.0,-1.9896,-1.956,0.0,-1.635,-1.9442,0.0,0.0,0.0,-1.9521,-1.9444,0.0,-1.9344,0.0,0.0,0.0,0.0,0.0,0.0,0.0,0.0,0.0,0.0,0.0,0.0,0.0,0.0,0.0,0.0,-2.021,-2.0986,-2.1121,-2.1325,-2.2023,-2.2828,-2.364,-2.4485,-2.4654,-2.4719,-2.478,-2.4776,-2.4776,-2.4776,-2.491,-2.4923,-2.479,-2.4845,-2.4885,-2.4885,-2.4896,-2.4902,-2.4902,-2.4902,-2.4902,-2.4902,-2.4902,-2.4902,-2.4902,-2.4902,-2.4902,-2.4902,-2.4904,-2.4898,-2.4898,-2.5107,-2.5203,-2.5186,-2.5274,-2.536,-2.5484,-2.549,-2.5492,-2.5499,-2.5565,-2.5605,-2.561,-2.5671,-2.5697,-2.5698,0.0,0.0,0.0,0.0,0.0,0.0,0.0,0.0,0.0,0.0,0.0,0.0,0.0,0.0,0.0,0.6465,0.6435,0.6513,0.6641,0.5007,0.2733,-0.0179,-0.5903,-1.0411,-1.3351,-1.7443,0.0,0.0,0.0,0.0,0.0,0.0,0.0,0.0,-1.9688,-1.9676,-1.9726,-1.9861,0.0,0.0,-1.7195,-1.759,0.0,0.0,0.0,0.0,0.0,-1.8097,-1.9409,0.0,-1.9176,-1.9005,0.0,0.0,0.0,0.0,0.0,0.0,-1.955,0.0,0.0,0.0,0.0,0.0,0.0,0.0,0.0,-2.0064,-2.0514,-2.0961,-2.1282,-2.1948,-2.2525,-2.2722,-2.3766,-2.4566,-2.458,-2.4596,-2.4596,-2.4596,-2.4613,-2.4629,-2.4596,-2.4613,-2.4657,0.0,-2.4764,-2.4808,-2.4902,-2.4902,-2.4902,-2.4902,-2.4902,-2.4902,-2.4902,-2.4902,-2.4902,-2.4902,-2.4904,-2.4962,-2.5038,-2.5106,-2.5157,-2.5203,-2.5212,-2.5252,-2.5284,-2.5339,-2.5382,-2.5434,-2.5499,-2.5554,-2.561,-2.5615,-2.5652,-2.5691,0.0,0.0,0.0,0.0,0.0,0.0,0.0,0.0,0.0,0.0,0.0,0.0,0.0,0.0,0.0,0.7034,0.6992,0.707,0.7196,0.505,0.2733,0.0388,-0.4208,-0.7844,-1.0209,-1.4488,0.0,0.0,0.0,0.0,0.0,0.0,0.0,0.0,0.0,0.0,0.0,0.0,0.0,0.0,-1.7673,0.0,0.0,-1.6577,-1.7311,0.0,0.0,0.0,-1.9769,-1.974,-1.9709,0.0,0.0,0.0,0.0,0.0,0.0,0.0,0.0,0.0,0.0,0.0,0.0,0.0,-1.8655,-1.852,-1.8366,0.0,-1.8004,-1.8316,-1.8413,-1.955,-2.0509,-2.047,-2.2142,-2.3572,-2.3906,-2.3665,-2.3572,-2.3925,-2.3665,-2.3591,-2.3925,-2.3962,-2.4143,-2.4578,-2.4631,-2.4645,-2.4734,-2.4734,-2.4734,-2.4734,-2.4734,-2.4734,-2.4734,-2.4734,-2.4734,-2.4734,-2.4775,-2.4818,-2.4898,-2.4993,-2.505,-2.5122,-2.5149,-2.5172,-2.5157,-2.5192,-2.5254,-2.5321,-2.543,-2.5473,-2.5529,-2.561,-2.5671,-2.5699,0.0,0.0,0.0,0.0,0.0,0.0,0.0,0.0,0.0,0.0,0.0,0.0,0.0,0.0,0.0,0.0,0.7712,0.781,0.7964,0.396,0.1675,0.1822,-0.2703,-0.5211,-0.5182,-0.968,-1.228,0.0,0.0,0.0,0.0,0.0,0.0,0.0,0.0,0.0,0.0,0.0,0.0,-1.9182,-1.742,-1.8161,0.0,0.0,-1.9063,-2.0662,-2.1351,-2.108,-2.0426,-2.0354,-2.0318,0.0,0.0,0.0,0.0,0.0,-2.0543,0.0,0.0,0.0,0.0,0.0,0.0,0.0,-1.7646,-1.7362,-1.7,0.0,-1.5278,-1.5287,-1.5327,-1.7014,-1.8437,-1.8451,-2.0303,-2.2049,-2.2943,-2.2442,-2.2274,-2.298,-2.2442,-2.2274,-2.2998,-2.3073,-2.3388,-2.4165,-2.4314,-2.4407,-2.4481,-2.45,-2.45,-2.45,-2.45,-2.45,-2.45,-2.45,-2.45,-2.4517,-2.4566,-2.4615,-2.4631,-2.4823,-2.4934,-2.5012,-2.5057,-2.5082,-2.5088,-2.5088,-2.513,-2.5192,-2.5335,-2.5372,-2.5413,-2.56,-2.5667,-2.5671,0.0,0.0,0.0,0.0,0.0,0.0,0.0,0.0,0.0,0.0,0.0,0.0,0.0,0.0,0.0,0.0,0.0,0.8025,0.8374,0.6886,0.612,0.6471,0.17,-0.0908,-0.0737,-0.4954,-0.8973,0.0,0.0,0.0,0.0,0.0,0.0,0.0,0.0,0.0,0.0,0.0,0.0,-1.8856,-1.733,0.0,-1.9275,-1.8286,-1.8939,-2.0462,-2.1243,-2.1406,-2.126,-2.1204,-2.1168,-2.1151,0.0,0.0,0.0,0.0,0.0,0.0,0.0,0.0,0.0,0.0,0.0,0.0,-1.8783,-1.8679,-1.8588,0.0,-1.8301,-1.8331,-1.854,-1.892,-1.9224,-1.9328,-1.9787,-2.0653,-2.2049,-2.2107,-2.2052,-2.2219,-2.2107,-2.2052,-2.2219,-2.2237,-2.2293,-2.246,-2.3091,-2.3758,-2.4462,-2.45,-2.45,-2.45,-2.45,-2.45,-2.45,-2.45,-2.4534,-2.4582,-2.4599,-2.466,-2.4749,-2.4794,-2.4884,-2.4991,-2.5004,-2.5023,-2.5018,-2.5018,-2.5051,-2.513,-2.5203,-2.5274,-2.5337,-2.542,-2.5492,-2.5546,0.0,0.0,0.0,0.0,0.0,0.0,0.0,0.0,0.0,0.0,0.0,0.0,0.0,0.0,0.0,0.0,0.0,0.0,0.0,0.0,0.7954,0.8239,0.5919,0.4577,0.45,0.0396,-0.426,0.0,0.0,0.0,0.0,0.0,0.0,0.0,0.0,0.0,0.0,0.0,-1.8878,-1.8807,-1.8516,0.0,-1.8366,-1.9758,-2.0789,-2.1604,-2.2365,-2.2419,-2.1852,-2.0305,-2.077,0.0,0.0,-2.1141,-2.2373,0.0,-2.1598,-2.1709,0.0,0.0,0.0,-1.983,0.0,0.0,0.0,-1.791,-1.7799,-1.7427,-1.7046,-1.6911,-1.7417,-1.7825,-1.81,-1.8232,-1.83,-1.8901,-2.0474,-2.0098,-2.0099,-2.1295,-2.0369,-2.008,-2.1272,-2.1402,-2.1569,-2.1977,-2.2367,-2.2961,-2.3814,-2.3851,-2.4036,-2.4481,-2.45,-2.45,-2.45,-2.45,-2.4515,-2.4599,-2.4599,-2.4645,-2.4734,-2.4779,-2.4842,-2.4903,-2.4964,-2.501,-2.501,-2.501,-2.5018,-2.5051,-2.5126,-2.5165,-2.5216,-2.5354,-2.5418,-2.5473,0.0,0.0,0.0,0.0,0.0,0.0,0.0,0.0,0.0,0.0,0.0,0.0,0.0,0.0,0.0,0.0,0.0,0.0,0.0,0.0,0.0,0.8783,0.8934,0.8926,0.8721,0.5331,0.0346,0.0,0.0,0.0,0.0,0.0,0.0,0.0,0.0,0.0,0.0,0.0,0.0,-1.852,0.0,-1.9022,-1.8141,-2.1038,-2.2339,-2.2625,-2.2787,-2.2826,-2.2314,-1.9371,-2.0246,-2.2246,-2.0144,-2.1383,0.0,0.0,0.0,0.0,0.0,0.0,0.0,0.0,0.0,-1.9432,0.0,0.0,0.0,-1.6331,-1.5692,0.0,0.0,0.0,0.0,0.0,0.0,0.0,0.0,-1.7727,0.0,-2.0322,-1.8484,-1.7956,-2.0354,-2.0596,-2.0931,-2.173,-2.1789,-2.2126,-2.2924,-2.3128,-2.3518,-2.4239,-2.4407,-2.45,-2.45,-2.45,-2.4515,-2.4599,-2.4599,-2.4647,-2.4707,-2.4764,-2.4794,-2.4813,-2.495,-2.501,-2.501,-2.501,-2.501,-2.5023,-2.5056,-2.5077,-2.5099,-2.5274,-2.5348,-2.5374,0.5675,0.6501,0.0,0.0,0.0,0.0,0.0,0.0,0.0,0.0,0.0,0.0,0.0,0.0,0.0,0.0,0.0,0.0,0.9026,0.0,0.0,0.9156,0.8882,0.8954,0.9374,0.8511,0.3416,0.0,0.0,0.0,0.0,0.0,0.0,0.0,-1.929,0.0,0.0,0.0,-1.8217,0.0,-1.8322,-1.9182,0.0,-2.0032,-2.1046,-2.2074,-2.0079,-2.0956,-2.2652,0.0,-2.0791,-2.3041,0.0,-2.3181,-2.3177,-2.23,0.0,0.0,0.0,0.0,0.0,0.0,-1.9967,0.0,0.0,0.0,-1.8797,-1.8639,0.0,0.0,0.0,0.0,0.0,0.0,0.0,0.0,-1.6479,-1.6017,-1.6798,-1.9287,-1.7707,-1.7299,-1.9599,-1.9823,-2.0159,-2.0961,-2.0964,-2.1291,-2.2089,-2.2813,-2.3258,-2.3333,-2.4092,-2.45,-2.45,-2.45,-2.4515,-2.4599,-2.4599,-2.4647,-2.4707,-2.4764,-2.4794,-2.4813,-2.495,-2.501,-2.501,-2.501,-2.501,-2.501,-2.5004,-2.5012,-2.5013,-2.5099,-2.5175,-2.5245,0.0,0.0,0.0,0.0,0.0,0.0,0.0,0.0,0.0,0.0,0.0,0.0,0.0,0.0,0.0,0.0,0.0,0.8017,0.0,0.0,0.0,0.0,0.9427,0.947,0.9451,0.957,0.6007,-0.1496,-0.0914,0.0,0.0,0.0,0.0,0.0,-1.7877,0.0,-1.6546,0.0,-1.654,0.0,0.0,0.0,0.0,-1.8051,-1.7855,-1.7683,-1.6538,-1.8052,-2.0171,0.0,-1.941,0.0,0.0,0.0,0.0,0.0,0.0,0.0,0.0,0.0,0.0,0.0,0.0,0.0,-2.0305,0.0,-1.9591,0.0,0.0,0.0,0.0,0.0,0.0,0.0,-1.7206,0.0,0.0,0.0,-1.5129,0.0,0.0,0.0,-1.7992,-1.7758,-1.7428,-1.731,-1.8583,-1.9509,-1.9843,-2.1105,-2.2237,-2.3165,-2.3537,-2.3981,-2.45,-2.45,-2.4515,-2.4599,-2.4549,-2.4599,-2.4707,-2.4738,-2.4749,-2.4813,-2.495,-2.501,-2.501,-2.501,-2.501,-2.501,-2.501,-2.4991,-2.5018,-2.5069,-2.5087,-2.5103,0.0,0.0,0.0,0.0,0.0,0.0,0.0,0.0,0.0,0.0,0.0,0.0,0.9644,0.9444,0.0,0.0,0.8001,0.7871,0.0,0.0,0.8447,0.0,0.0,0.0,0.0,0.9717,0.7282,0.1641,0.0,0.0,0.0,0.0,0.0,0.0,0.0,-1.633,-1.5301,0.0,0.0,-1.5582,-1.6802,-1.6212,-1.4688,-1.5539,-1.5237,-1.4248,-1.3276,-1.487,-1.7108,-1.5035,-1.7689,0.0,-2.0387,0.0,0.0,0.0,0.0,0.0,-2.279,0.0,0.0,0.0,0.0,0.0,0.0,0.0,0.0,0.0,0.0,0.0,0.0,0.0,0.0,0.0,0.0,-1.5987,0.0,-1.434,0.0,0.0,0.0,0.0,0.0,-1.6232,-1.5852,-1.5057,-1.662,-1.772,-1.7924,-1.9309,-2.0864,-2.2497,-2.298,-2.3516,-2.418,-2.4335,-2.4464,-2.4547,-2.4479,-2.4479,-2.4564,-2.4645,-2.4676,-2.4673,-2.4783,-2.4846,-2.4846,-2.4846,-2.4861,-2.4922,-2.4922,-2.495,-2.501,-2.5063,-2.5057,-2.5051,0.8513,0.792,0.0,0.0,0.0,0.0,0.0,0.0,0.0,0.0,0.0,0.0,0.0,0.0,0.0,0.0,0.0,0.7481,0.8357,0.0,0.8195,0.0,0.0,0.8689,0.0,0.0,0.6745,0.133,0.0,0.0,0.0,0.0,0.0,0.0,0.0,-1.9174,-1.6256,-1.9529,-1.8607,-1.4924,-1.4995,-1.1992,-0.8032,0.0,-1.407,-1.3457,-1.0659,0.0,0.0,-1.4069,-1.5943,0.0,0.0,0.0,0.0,0.0,0.0,0.0,0.0,0.0,0.0,-2.1788,0.0,0.0,0.0,0.0,-2.0473,0.0,0.0,0.0,0.0,0.0,0.0,0.0,0.0,0.0,0.0,0.0,0.0,0.0,0.0,0.0,0.0,-1.5968,-1.6546,-1.582,-1.5845,-1.6233,-1.7002,-1.7887,-1.9156,-2.0827,-2.2386,-2.327,-2.3438,-2.395,-2.4284,-2.4407,-2.4336,-2.4284,-2.4228,-2.4481,-2.4497,-2.4321,-2.4391,-2.4424,-2.4424,-2.4424,-2.4526,-2.4707,-2.4707,-2.4832,-2.501,-2.501,-2.505,-2.5101,0.0,0.0,0.0,0.0,0.0,0.0,0.0,0.9111,0.0,0.0,0.0,0.0,0.0,0.8098,0.7914,0.0,0.0,0.7051,0.7629,0.7605,0.0,0.0,0.0,0.8916,0.0,0.0,0.0,0.0,0.0,0.0,0.0,0.0,0.0,0.0,0.0,-1.6818,0.0,0.0,0.0,0.0,0.0,-1.0628,-0.9609,0.0,-0.8247,-0.805,-0.7066,-0.853,0.0,-1.3247,-1.5814,-1.8732,-2.1596,-2.2659,-2.279,-2.2569,-2.2596,0.0,0.0,0.0,-2.2473,-2.2243,0.0,0.0,0.0,0.0,0.0,0.0,0.0,0.0,0.0,0.0,0.0,0.0,0.0,0.0,0.0,0.0,0.0,0.0,0.0,0.0,0.0,0.0,0.0,-1.2573,-1.3963,-1.4995,-1.5337,-1.7638,-1.9775,-2.1529,-2.1992,-2.2804,-2.405,-2.4155,-2.4228,-2.4284,-2.4247,-2.4266,-2.4266,-2.4357,-2.4393,-2.4373,-2.4389,-2.4389,-2.4389,-2.4389,-2.4476,-2.4561,-2.451,-2.4642,-2.4879,-2.4959,-2.5012,-2.5038,0.8149,0.0,0.0,0.0,0.0,0.0,0.0,0.0,0.0,0.0,0.813,0.0,0.7336,0.0,0.6968,0.0,0.6349,0.6386,0.6784,0.6892,0.0,0.7115,0.7868,0.0,0.0,0.0,0.0,0.0,0.0,0.6666,0.0,0.0,0.0,0.0,0.0,0.0,-1.3629,0.0,-1.4027,0.0,0.0,-0.9371,0.0,0.0,-0.6215,-0.6554,0.0,-0.6822,-0.8612,-1.2498,-1.5096,-1.7374,-2.1116,-2.2487,-2.2632,-2.2432,-2.246,-2.2552,-2.2542,-2.2515,0.0,-2.2525,-2.2515,0.0,-2.2605,0.0,-2.1632,0.0,0.0,0.0,0.0,0.0,0.0,0.0,0.0,0.0,0.0,-1.4748,0.0,0.0,0.0,0.0,0.0,0.0,-1.2506,-1.0494,-1.2848,-1.4514,0.0,-1.7151,-1.9239,-2.097,-2.1467,-2.2294,-2.3501,-2.3897,-2.4113,-2.4171,-2.4134,-2.4134,-2.4115,-2.4192,-2.4211,-2.4192,-2.4192,-2.4192,-2.4192,-2.4192,-2.4247,-2.4355,-2.4338,-2.4478,-2.4711,-2.4842,-2.494,-2.5006,0.0,0.0,0.0,0.0,0.8167,0.0,0.0,0.0,0.8036,0.0,0.7328,0.6777,0.6424,0.6016,0.5691,0.5345,0.5282,0.5445,0.5891,0.5946,0.0,0.0,0.6305,0.612,0.5946,0.0,0.0,0.0,0.0,0.0,0.0,0.0,0.0,0.0,-1.7695,0.0,-1.3974,-1.6785,-1.4437,-0.8859,-0.8725,-0.8016,-0.7039,-0.6973,-0.7797,-0.878,-0.7457,-0.6263,-0.616,-1.1719,-1.367,-1.4773,-2.0336,-2.2169,-2.231,-2.231,-2.231,-2.2338,-2.2525,-2.2487,-2.2432,-2.2552,-2.2487,0.0,0.0,0.0,-2.1967,0.0,0.0,0.0,0.0,0.0,0.0,0.0,0.0,0.0,0.0,0.0,0.0,0.0,0.0,0.0,0.0,-1.3971,-1.2711,-0.9897,-1.2649,-1.4795,0.0,-1.6501,-1.7734,-1.9323,-2.0886,-2.1765,-2.1939,-2.3232,-2.3959,-2.4079,-2.402,-2.3921,-2.3816,-2.3999,-2.3979,-2.3795,-2.3795,-2.3795,-2.3795,-2.3795,-2.3901,-2.4097,-2.4173,-2.4321,-2.4512,-2.4642,-2.4842,-2.5012,0.8414,0.7785,0.7306,0.0,0.7442,0.7599,0.0,0.0,0.0,0.0,0.5668,0.5222,0.4625,0.4606,0.4596,0.4504,0.4711,0.0,0.0,0.0,0.0,0.5038,0.586,0.6075,0.5496,0.722,0.0,0.7581,0.0,0.0,0.2281,0.0,0.0,0.0,0.0,0.0,-1.3945,-1.6486,-1.4,-0.8187,-0.6109,-0.6178,-0.7448,0.0,-0.7345,-0.8419,-0.7368,-0.6263,-0.5839,-0.9388,-1.2045,-1.4424,-1.7977,-2.0586,-2.231,-2.231,-2.231,-2.231,-2.2349,-2.2366,-2.2338,-2.2366,-2.2192,-2.2003,0.0,0.0,0.0,0.0,0.0,0.0,0.0,0.0,0.0,0.0,0.0,0.0,0.0,0.0,0.0,-1.5522,0.0,0.0,-1.4171,-1.2018,-1.1085,-1.2039,-1.4936,-1.6334,-1.5578,0.0,-1.8986,-2.0165,-2.1078,-2.1899,-2.2646,-2.3429,-2.3837,-2.3878,-2.3858,-2.3819,-2.3795,-2.3858,-2.3858,-2.3795,-2.3795,-2.3795,-2.3795,-2.3795,-2.3858,-2.3958,-2.3919,-2.4058,-2.432,-2.4704,-2.4884,-2.494,0.8227,0.0,0.0,0.6487,0.0,0.0,0.6684,0.6435,0.0,0.5018,0.4498,0.0,0.3676,0.363,0.3583,0.364,0.3842,0.0,0.4015,0.0,0.0,0.3901,0.4491,0.4594,0.4165,0.5711,0.0,0.5946,0.0,0.0,0.2563,0.0,0.0,0.0,0.0,-1.9677,0.0,-1.4,-1.148,-0.8228,-0.4984,-0.4945,0.0,-0.6231,-0.6576,-0.724,-0.6706,-0.5985,-0.5909,-1.0026,-1.2455,-1.4496,-1.8588,-2.101,-2.231,-2.231,-2.231,-2.231,-2.231,-2.231,-2.231,-2.231,-2.218,-2.2061,-2.202,-2.1886,-2.1738,0.0,-2.1302,-2.0999,0.0,0.0,0.0,0.0,0.0,0.0,0.0,0.0,0.0,0.0,-1.5436,0.0,-1.4018,-1.2192,-1.1862,-1.3729,-1.5472,-1.6438,-1.6381,0.0,-1.9093,-1.987,-2.0807,-2.1638,-2.2282,-2.3293,-2.3792,-2.3795,-2.3795,-2.3795,-2.3795,-2.3795,-2.3795,-2.3795,-2.3795,-2.3795,-2.3795,-2.3795,-2.3816,-2.3876,-2.3855,-2.3939,-2.4154,-2.4512,-2.4689,-2.4783,0.0,0.0,0.0,0.0,0.0,0.0,0.0,0.541,0.0,0.431,0.0,0.3283,0.3251,0.3068,0.2973,0.3016,0.0,0.3183,0.3121,0.3128,0.3072,0.301,0.2734,0.2625,0.2625,0.3715,0.422,0.0,0.0,0.0,0.0,0.0,0.0,0.0,0.0,0.0,0.0,-1.011,-0.7702,-0.7725,-0.4432,-0.4003,-0.5313,-0.539,-0.5484,-0.5611,-0.568,-0.5491,-0.593,-1.0906,-1.3071,-1.4602,-1.9576,-2.1673,-2.231,-2.231,-2.231,-2.231,-2.231,-2.231,-2.231,-2.231,-2.2282,-2.2237,-2.2237,-2.2209,-2.2094,-2.1781,-2.1961,-2.1864,0.0,0.0,0.0,0.0,0.0,0.0,0.0,0.0,0.0,0.0,0.0,0.0,-1.4055,-1.3648,-1.3898,-1.49,-1.5208,-1.5987,-1.74,0.0,-1.8582,-1.9002,-2.0342,-2.1164,-2.1381,-2.2929,-2.3725,-2.3735,-2.3732,-2.3753,-2.3795,-2.3774,-2.3753,-2.3753,-2.3795,-2.3774,-2.371,-2.3753,-2.3753,-2.3774,-2.3816,-2.3896,-2.4016,-2.4191,-2.4357,-2.453,0.0,0.0,0.0,0.0,0.0,0.4427,0.402,0.3906,0.3701,0.3299,0.3016,0.2841,0.2874,0.334,0.3632,0.3655,0.3778,0.0,0.0,0.0,0.0,0.2404,0.2294,0.2294,0.2294,0.287,0.3085,0.0,0.0,0.0,0.0,0.0,0.0,0.0,0.0,0.0,-0.9497,-0.5521,0.0,-0.3164,-0.2496,-0.2633,-0.327,-0.3783,-0.3983,-0.4046,-0.4486,-0.4614,-0.4698,-0.5696,-0.9344,-1.3645,-1.4637,-1.8344,-2.231,-2.231,-2.231,-2.231,-2.231,-2.231,-2.231,-2.231,-2.2077,-2.1886,-2.1886,-2.1661,-2.1462,-2.1401,-2.1432,-2.1491,-2.1556,0.0,0.0,0.0,0.0,0.0,0.0,0.0,0.0,0.0,0.0,-1.6058,0.0,-1.5313,-1.5245,-1.4865,-1.6009,-1.69,0.0,0.0,-1.8408,0.0,-2.0061,0.0,0.0,0.0,-2.3283,-2.3392,-2.3289,-2.3445,-2.3795,-2.3642,-2.3553,-2.3553,-2.3732,-2.3584,-2.3236,-2.3463,-2.3553,-2.3553,-2.3571,-2.3707,-2.3917,-2.3958,-2.4018,-2.4154,0.0,0.0,0.0,0.0,0.0,0.0,0.0,0.3456,0.3319,0.315,0.3124,0.3097,0.3097,0.3255,0.342,0.3428,0.3432,0.3297,0.2905,0.2905,0.2683,0.224,0.2296,0.2184,0.1902,0.2214,0.2157,0.1677,0.0,0.0,0.0,0.0,0.0,0.0,0.0,-1.1823,0.0,0.0,0.0,-0.4304,-0.2563,-0.2165,-0.2646,-0.2929,-0.3236,-0.3516,-0.3791,-0.3945,-0.4277,-0.6018,-0.8567,-1.1221,-1.2698,-1.5116,-1.7737,-1.9386,-1.9862,-2.0209,-2.1852,-2.231,-2.231,-2.231,-2.218,-2.2049,-2.2049,-2.1915,-2.1827,-2.1827,-2.1827,-2.1886,-2.202,-2.1502,0.0,0.0,0.0,0.0,0.0,0.0,0.0,0.0,0.0,0.0,0.0,0.0,0.0,0.0,0.0,0.0,0.0,0.0,-1.8293,0.0,0.0,0.0,-2.1324,0.0,-2.3109,-2.3259,-2.314,-2.3212,-2.3427,-2.3348,-2.3301,-2.3301,-2.3399,-2.3307,-2.3091,-2.3253,-2.3301,-2.3301,-2.3301,-2.3463,-2.3685,-2.3685,-2.3792,-2.3978,0.0,0.5031,0.0,0.0,0.4292,0.0,0.3748,0.3541,0.3354,0.3155,0.3324,0.3411,0.3329,0.3273,0.3255,0.3289,0.3241,0.3072,0.2792,0.285,0.2627,0.224,0.2352,0.224,0.1734,0.1908,0.163,0.0,0.0,0.0,0.0,0.0,0.0,0.0,0.0,0.0,0.0,0.0,-0.5635,-0.546,-0.2839,-0.2016,-0.2464,-0.2509,-0.2818,-0.3279,-0.3383,-0.342,-0.3851,-0.6645,-0.8044,-0.9013,-1.1219,-1.235,-1.3399,-1.587,-1.6605,-1.727,-2.0367,-2.118,-2.1335,-2.1924,-2.2152,-2.218,-2.218,-2.2254,-2.231,-2.231,-2.231,-2.231,-2.231,-2.1585,0.0,0.0,0.0,0.0,0.0,0.0,0.0,0.0,0.0,0.0,-1.5249,0.0,0.0,0.0,0.0,0.0,-1.7007,0.0,0.0,0.0,0.0,-2.0904,-2.1736,0.0,-2.2944,-2.3077,-2.296,-2.2968,-2.3067,-2.3017,-2.2968,-2.2968,-2.3025,-2.3042,-2.3035,-2.296,-2.2985,-2.3035,-2.3035,-2.3182,-2.3435,-2.3435,-2.3598,-2.3837,0.0,0.0,0.0,0.0,0.0,0.3816,0.3965,0.3959,0.3705,0.3013,0.3167,0.3281,0.3161,0.3613,0.3898,0.391,0.4024,0.3802,0.313,0.3244,0.3021,0.224,0.224,0.2184,0.2127,0.2169,0.1995,0.0,0.0,0.1023,0.0,0.0,0.0,0.0,0.0,0.0,0.0,-0.2471,-0.2228,-0.2374,-0.1845,-0.188,-0.2254,-0.2573,-0.2704,-0.2847,-0.3363,-0.3226,-0.2899,-0.3802,-0.5953,-0.84,-0.8669,-1.0669,-1.2973,-1.3264,-1.3346,-1.3964,-1.6812,-1.7598,-1.8183,-2.0767,-2.1631,-2.1857,-2.1857,-2.2077,-2.231,-2.231,-2.231,-2.231,-2.2394,-2.1712,-2.0982,0.0,0.0,0.0,0.0,0.0,-1.6889,-1.603,0.0,0.0,0.0,-1.6669,0.0,0.0,-1.555,0.0,0.0,0.0,0.0,-1.8822,-2.022,-2.0925,-2.0927,-2.1894,-2.247,-2.2651,-2.247,-2.2571,-2.2898,-2.2721,-2.2563,-2.2476,-2.2772,-2.2883,-2.2799,-2.2515,-2.2552,-2.2816,-2.2764,-2.2884,-2.314,-2.3199,-2.3353,-2.3544,0.0,0.0,0.0,0.0,0.0,0.0,0.0,0.3999,0.3949,0.3479,0.3696,0.3799,0.3683,0.3855,0.4024,0.4024,0.3965,0.3855,0.3519,0.3574,0.3466,0.3079,0.313,0.3019,0.2629,0.2629,0.2373,0.0,0.0,0.0,0.0,0.0,0.0,0.0,0.0,-0.1484,-0.1714,-0.1542,-0.1655,-0.1874,-0.177,-0.2008,-0.2376,-0.2287,-0.2473,-0.27,-0.2717,-0.2629,-0.2462,-0.2687,-0.3512,-0.4442,-0.482,-0.5522,-0.6591,-0.836,-0.886,-0.9604,-1.3014,-1.3586,-1.3733,-1.576,-1.5306,-1.456,-1.5201,-1.6772,-1.8106,-1.8355,-2.0497,-2.231,-2.2338,-2.1613,-2.083,-2.0244,0.0,0.0,0.0,0.0,0.0,0.0,0.0,0.0,0.0,0.0,0.0,0.0,0.0,0.0,0.0,0.0,0.0,-2.0006,0.0,-2.1299,-2.1698,-2.2102,-2.2349,-2.247,-2.2349,-2.2388,-2.2544,-2.247,-2.2388,-2.2343,-2.249,-2.2535,-2.2487,-2.2366,-2.2394,-2.2515,-2.2515,-2.2685,-2.2927,-2.2995,-2.3157,-2.3399,0.4264,0.0,0.4122,0.0,0.3907,0.3946,0.3886,0.4006,0.3993,0.3818,0.3963,0.4024,0.3913,0.3858,0.3858,0.3858,0.3855,0.3796,0.3744,0.3796,0.3688,0.3471,0.3522,0.0,0.2961,0.2961,0.2768,0.2335,0.1774,0.0,0.0,0.0,0.0,0.0,-0.0422,-0.0582,-0.0815,-0.0949,-0.1286,-0.179,-0.1679,-0.1959,-0.2408,-0.224,-0.2352,-0.2635,-0.2519,-0.2294,-0.2127,-0.2296,-0.1903,-0.1511,-0.2235,-0.2181,-0.227,-0.4303,-0.4856,-0.5608,-0.9043,-0.9578,-0.9634,-1.1489,-1.0771,-0.9767,-1.0349,-1.2016,-1.3888,-1.5335,-1.8057,-2.0649,-2.2046,-2.1585,-2.0881,-2.0562,0.0,0.0,0.0,-1.7793,0.0,0.0,-1.6661,-1.6334,-1.6521,-1.636,0.0,0.0,0.0,0.0,0.0,0.0,0.0,0.0,0.0,0.0,-2.2192,-2.2265,-2.2338,-2.2366,-2.2338,-2.2282,-2.2254,-2.2237,-2.2237,-2.2254,-2.2254,-2.2282,-2.2338,-2.231,-2.231,-2.2338,-2.2366,-2.2487,-2.2659,-2.2764,-2.2952,-2.3199,0.4512,0.4341,0.4194,0.4187,0.3961,0.3865,0.3955,0.3869,0.3812,0.3776,0.3793,0.3744,0.3638,0.3585,0.3585,0.3585,0.3744,0.3744,0.3638,0.3744,0.3574,0.0,0.0,0.313,0.3074,0.3074,0.3138,0.3171,0.0,0.0,0.2272,0.0,0.0863,0.0506,0.0598,0.0378,-0.0101,-0.0054,-0.0727,-0.179,-0.1454,-0.1677,-0.224,-0.241,-0.2521,-0.2577,-0.2963,-0.2516,-0.1902,-0.2465,-0.1681,-0.0617,-0.168,-0.2015,-0.1958,-0.19,-0.1732,-0.2261,-0.5015,-0.5664,-0.6261,-0.9044,-0.9949,-0.9952,-0.9134,-0.9207,-1.0554,-1.4394,-1.5256,-1.6723,-2.1441,-2.1701,-2.1332,-2.1707,0.0,0.0,0.0,0.0,0.0,-1.7947,-1.8049,-1.7805,-1.7133,-1.7395,0.0,0.0,0.0,0.0,0.0,0.0,0.0,-2.0467,-2.1282,0.0,-2.1998,-2.2192,-2.231,-2.231,-2.231,-2.2271,-2.2214,-2.2044,-2.2089,-2.2214,-2.2214,-2.2282,-2.2377,-2.2338,-2.2338,-2.2377,-2.2338,-2.231,-2.231,-2.246,-2.2668,-2.2892,0.4224,0.4118,0.4004,0.3808,0.3776,0.3819,0.3866,0.3896,0.3917,0.379,0.3796,0.3685,0.3299,0.3471,0.3585,0.0,0.3638,0.3638,0.0,0.3638,0.3583,0.3469,0.3413,0.3357,0.313,0.3074,0.3044,0.2873,0.0,0.0,0.0,0.1892,0.1545,0.129,0.1066,0.0609,-0.0054,0.0,-0.0392,-0.1062,-0.095,-0.1062,-0.1285,-0.112,-0.1344,-0.1679,-0.1624,-0.168,-0.1846,-0.2015,-0.1624,-0.1066,-0.1289,-0.1177,-0.084,-0.0616,-0.056,-0.0781,-0.1971,-0.1796,-0.1732,-0.3673,-0.2935,-0.187,-0.2443,-0.4273,-0.6883,-1.0483,-1.1242,-1.1496,-1.2384,-1.4401,-1.5984,-1.6132,-1.7932,0.0,-1.8814,0.0,-1.9002,-1.8339,-1.8749,-1.8771,-1.8051,-1.8244,0.0,0.0,0.0,0.0,0.0,0.0,0.0,0.0,-2.1194,0.0,-2.1306,-2.1751,-2.1961,-2.1945,-2.218,-2.2282,-2.2254,-2.2237,-2.2237,-2.2254,-2.2254,-2.2282,-2.2338,-2.231,-2.231,-2.2338,-2.2366,-2.2366,-2.2394,-2.246,-2.2579,-2.2721,0.4076,0.4006,0.3924,0.3789,0.3788,0.3785,0.3785,0.3802,0.3802,0.3744,0.3744,0.3633,0.3302,0.3471,0.0,0.3413,0.3527,0.3585,0.3585,0.3585,0.3527,0.3413,0.3413,0.3302,0.313,0.3074,0.0,0.2856,0.2521,0.2379,0.231,0.231,0.2079,0.1732,0.1585,0.1177,0.0617,0.0617,0.028,-0.028,-0.028,-0.0503,-0.0782,-0.0616,-0.0783,-0.1119,-0.0952,-0.1064,-0.1287,-0.1287,-0.1233,-0.1122,-0.0898,-0.0785,-0.0673,-0.028,-0.0056,-0.0056,-0.0336,0.0056,0.0336,-0.0616,0.0335,0.1452,0.106,-0.016,-0.2405,-0.6389,-0.7235,-0.7598,-0.8797,-1.0617,-1.2498,-1.4175,-1.6035,-1.7675,-1.8898,0.0,-1.9214,0.0,0.0,0.0,0.0,-1.9176,-1.9351,0.0,0.0,0.0,0.0,0.0,0.0,-2.078,-2.0991,-2.1119,-2.1103,-2.1462,-2.1584,-2.1538,-2.1869,-2.2032,-2.202,-2.2209,-2.2282,-2.2254,-2.2282,-2.231,-2.2338,-2.2338,-2.2366,-2.2394,-2.2405,-2.2405,-2.2422,-2.2569,-2.2605,-2.2659,0.4132,0.4024,0.3965,0.3968,0.3855,0.3796,0.3796,0.3691,0.3585,0.3585,0.3585,0.3583,0.3583,0.3583,0.3471,0.313,0.0,0.0,0.353,0.3527,0.3413,0.313,0.313,0.313,0.3074,0.3074,0.3074,0.3077,0.2807,0.2531,0.2247,0.2531,0.2363,0.1859,0.2076,0.1962,0.1628,0.1628,0.1178,0.0505,0.0505,0.0056,-0.0559,-0.0559,-0.0671,-0.0783,-0.0783,-0.0615,-0.0392,-0.0392,-0.0561,-0.0729,-0.0449,-0.0729,-0.1009,-0.0561,-0.0224,-0.0056,-0.0056,0.0168,0.0393,0.0393,0.0393,0.0672,0.1673,0.2672,0.2115,-0.2307,-0.3216,-0.4518,-0.8885,-0.9308,-1.0321,-1.4449,-1.4011,-1.4727,-1.9185,-1.863,-1.8383,0.0,0.0,0.0,-2.0116,-2.018,-2.018,0.0,0.0,0.0,0.0,0.0,-2.0512,-2.053,-2.0679,-2.0877,-2.1214,-2.1245,-2.1197,-2.1134,-2.143,-2.1568,-2.1554,-2.202,-2.2225,-2.2214,-2.2225,-2.231,-2.2405,-2.2377,-2.2405,-2.247,-2.2487,-2.246,-2.2405,-2.2685,-2.2764,-2.2712,0.0,0.0,0.3799,0.3694,0.3694,0.3638,0.3638,0.3638,0.3585,0.3585,0.3585,0.3527,0.3244,0.3469,0.3471,0.313,0.3188,0.3132,0.2914,0.3079,0.3188,0.313,0.3357,0.3357,0.313,0.3074,0.3021,0.28,0.2586,0.2559,0.2729,0.2559,0.2385,0.2267,0.1986,0.1853,0.1741,0.1741,0.1572,0.1291,0.1291,0.1122,0.084,0.084,0.0504,0.0112,0.0112,-0.0112,-0.0391,-0.0391,-0.0168,0.0112,0.0168,0.0447,0.0503,-0.0392,-0.0561,-0.0505,-0.0336,-0.0112,0.0112,0.0112,0.0224,0.0449,0.0728,0.1119,0.1277,0.0759,0.0756,0.0697,0.0314,-0.2411,-0.4935,-0.596,-0.8319,-1.1345,-1.5229,-1.5613,-1.6655,0.0,-2.0548,-2.0807,-2.0876,-2.0845,-2.0845,0.0,0.0,0.0,-2.0894,-2.0648,-2.0361,-1.9995,-2.0115,-2.0235,-2.0323,-2.0597,-2.0942,-2.126,-2.1323,-2.1493,-2.1721,-2.1601,-2.1827,-2.2254,-2.1751,-2.1886,-2.2377,-2.2118,-2.2101,-2.2226,-2.2415,-2.2388,-2.2198,-2.2453,-2.2659,-2.279,0.4629,0.4239,0.3907,0.3638,0.3585,0.3585,0.3585,0.3585,0.3585,0.3585,0.3585,0.3527,0.3357,0.3471,0.3471,0.313,0.3244,0.319,0.2912,0.3065,0.3088,0.2972,0.3145,0.3204,0.3145,0.3098,0.3021,0.291,0.2508,0.2416,0.2584,0.2416,0.2244,0.2129,0.2035,0.1908,0.1797,0.1797,0.1741,0.1685,0.1685,0.1572,0.1459,0.1459,0.1178,0.0785,0.0785,0.0616,0.0392,0.0392,0.0392,0.0448,0.056,0.0727,0.0783,0.0224,0.0056,0.0056,-0.0224,-0.0112,0.0056,-0.0056,0.0056,0.0224,0.028,0.0449,0.0672,0.1174,0.1341,0.1509,0.2063,0.0541,-0.1413,-0.3476,-0.5158,-0.7632,-1.1706,-1.2098,-1.2853,-1.532,-1.5996,-1.6937,-1.8612,-1.9195,-1.9875,-2.0805,-2.0805,0.0,-2.0289,-1.9924,-1.9825,-2.0104,-2.0045,-2.0005,-2.0005,-2.015,-2.0361,-2.0614,-2.0845,-2.1007,-2.115,-2.1276,-2.1462,-2.1768,-2.1432,-2.1554,-2.1915,-2.1751,-2.1735,-2.1866,-2.2186,-2.2215,-2.2096,-2.2535,-2.2738,-2.2816,0.4901,0.4512,0.4181,0.3694,0.3585,0.3585,0.3585,0.3585,0.3585,0.3585,0.3585,0.3585,0.3585,0.3585,0.3471,0.3188,0.3413,0.3413,0.3074,0.3115,0.3047,0.2797,0.2811,0.2928,0.3092,0.3065,0.3021,0.3021,0.2462,0.2184,0.2184,0.2184,0.2018,0.1797,0.2018,0.2018,0.1797,0.1797,0.1797,0.1797,0.1797,0.1741,0.1628,0.1628,0.1515,0.1403,0.1403,0.1403,0.1403,0.1403,0.1065,0.0728,0.1009,0.0952,0.0782,0.1062,0.1229,0.1174,0.028,0.0224,0.0336,0.0112,0.0168,0.028,0.0224,0.0336,0.0449,0.0336,0.0393,0.0393,0.0393,0.1119,0.0548,-0.3185,-0.299,-0.3886,-0.8264,0.0,-0.8424,-0.9952,-1.0164,-1.1531,-1.4951,-1.6005,-1.734,-1.9331,-1.9284,-1.9103,-1.8945,-1.867,-1.9107,-2.0476,-2.0153,-2.0024,-2.0061,-1.9975,-1.994,-1.994,-2.0311,-2.0548,-2.063,-2.1087,-2.1308,-2.1355,-2.1276,-2.1308,-2.1479,-2.1386,-2.137,-2.1477,-2.1924,-2.2039,-2.2056,-2.2651,-2.2876,-2.2893,0.5723,0.5226,0.4515,0.3749,0.3585,0.3585,0.3585,0.3585,0.3585,0.3585,0.3585,0.3585,0.3585,0.3585,0.3583,0.3527,0.3583,0.336,0.2802,0.2828,0.2842,0.2713,0.2779,0.2783,0.277,0.2753,0.2745,0.2745,0.2408,0.2184,0.2184,0.1964,0.1853,0.1797,0.1853,0.1853,0.1797,0.1797,0.1797,0.1797,0.1797,0.1797,0.1797,0.1797,0.1741,0.1741,0.1741,0.1741,0.1741,0.1741,0.1794,0.1903,0.1961,0.2184,0.2352,0.2296,0.2352,0.224,0.1342,0.123,0.1343,0.1119,0.1286,0.1287,0.0392,0.0617,0.0842,0.0168,0.0224,0.0393,0.0393,0.056,0.0502,-0.0055,0.0605,-0.0322,-0.4634,0.0,-0.54,-0.9296,-0.9777,-1.0362,-1.1823,-1.1643,-1.2127,-1.3737,-1.3376,-1.4158,-1.6653,-1.701,-1.8152,-2.0424,-2.0127,-2.0082,-2.0413,-2.0462,-2.0462,-2.0462,-2.0563,-2.0942,-2.157,-2.1401,-2.1601,-2.2094,-2.123,-2.1245,-2.1764,-2.1214,-2.1039,-2.1228,-2.179,-2.194,-2.1928,-2.2642,-2.2995,-2.3168,0.6539,0.6055,0.5454,0.5073,0.4739,0.446,0.4298,0.4187,0.3968,0.3638,0.3585,0.3585,0.3585,0.3585,0.3618,0.3705,0.3689,0.3587,0.3358,0.3116,0.2917,0.276,0.2795,0.2777,0.2693,0.2691,0.2691,0.2691,0.2352,0.2184,0.2184,0.2074,0.1964,0.1797,0.1964,0.1908,0.1797,0.1797,0.1797,0.1797,0.1797,0.1797,0.1797,0.1797,0.1908,0.2018,0.2018,0.2018,0.2018,0.2244,0.2132,0.2018,0.2354,0.2465,0.2465,0.2577,0.241,0.2127,0.179,0.1566,0.1454,0.1454,0.1566,0.1567,0.1175,0.1288,0.14,0.1064,0.0952,0.084,0.0785,0.0673,0.0561,0.0561,0.0896,0.0,-0.1562,-0.1475,-0.1995,-0.4028,-0.4566,-0.5535,-0.756,-0.7938,-0.883,-1.0667,-1.1003,-1.1423,-1.2123,-1.2897,-1.3994,-1.5489,-1.878,-2.0591,-2.0764,-2.0416,-2.0226,-2.0226,-2.0258,-2.0478,-2.0831,-2.116,-2.1462,-2.1721,-2.1276,-2.1276,-2.1554,-2.1245,-2.1166,-2.1244,-2.1748,-2.1911,-2.1928,-2.248,-2.2738,-2.2842,0.7085,0.6603,0.6178,0.6178,0.5946,0.555,0.5007,0.4901,0.4629,0.3968,0.4135,0.4289,0.4062,0.4062,0.4125,0.4342,0.424,0.4189,0.4293,0.3906,0.35,0.2968,0.2907,0.2809,0.2723,0.2719,0.2711,0.2691,0.2352,0.2184,0.2184,0.2128,0.2018,0.1797,0.2074,0.2074,0.1797,0.1852,0.1853,0.1797,0.1797,0.1797,0.1797,0.1797,0.1908,0.2128,0.2128,0.2128,0.224,0.2521,0.2355,0.2077,0.2579,0.2521,0.2352,0.2689,0.2464,0.2125,0.2238,0.2014,0.1733,0.19,0.2014,0.2014,0.1902,0.1958,0.1958,0.179,0.1566,0.1399,0.1289,0.1121,0.0897,0.0784,0.0,0.0561,0.0617,0.0438,0.0376,0.0373,0.0,-0.1231,-0.3579,-0.4292,-0.5376,-0.7316,-0.7964,-0.8123,-0.7826,-0.8891,-1.0085,-1.1363,-1.657,-1.9313,-1.9214,-1.9137,-1.9077,-1.9108,-1.9617,-2.0,-2.0297,-2.0956,-2.136,-2.1524,-2.1462,-2.1432,-2.1401,-2.1339,-2.1308,-2.1339,-2.1735,-2.1899,-2.1957,-2.2388,-2.2569,-2.2579,0.7085,0.6603,0.6178,0.6178,0.6603,0.6485,0.5117,0.5563,0.5786,0.4901,0.581,0.6263,0.5472,0.5355,0.5525,0.5964,0.562,0.5374,0.5389,0.5378,0.4766,0.3498,0.3129,0.2961,0.287,0.2868,0.2828,0.2691,0.2352,0.2184,0.2184,0.1964,0.1797,0.1797,0.2074,0.2074,0.1797,0.2074,0.2018,0.1797,0.1797,0.1797,0.1797,0.1797,0.1797,0.1853,0.1853,0.1962,0.2184,0.224,0.241,0.2635,0.2691,0.2691,0.2691,0.2965,0.3019,0.3019,0.3019,0.3019,0.2963,0.2963,0.3244,0.319,0.2183,0.2348,0.2458,0.1733,0.1679,0.1734,0.1734,0.1734,0.1734,0.1847,0.0,0.0,0.1178,0.0671,0.0276,0.0374,0.0361,0.005,-0.0761,-0.0367,-0.0625,-0.1905,-0.1545,-0.2477,-0.5298,-0.6587,-0.8617,-1.1578,-1.3527,-1.43,-1.389,-1.5716,-1.6641,-1.6673,-1.8559,-2.0025,-2.1123,-2.1174,-2.1579,-2.2209,-2.1886,-2.1751,-2.1721,-2.1432,-2.1308,-2.1323,-2.1691,-2.184,-2.194,-2.248,-2.2712,-2.2816,0.6845,0.6519,0.6178,0.6178,0.6391,0.6332,0.5786,0.6009,0.6156,0.6111,0.6588,0.6917,0.6759,0.6262,0.6071,0.633,0.5884,0.5653,0.5758,0.5762,0.542,0.4793,0.4479,0.4273,0.4282,0.4037,0.3859,0.3686,0.3108,0.2963,0.3186,0.2408,0.2184,0.235,0.2238,0.2074,0.1797,0.1908,0.1962,0.2018,0.1852,0.1908,0.2018,0.1852,0.1908,0.2074,0.2074,0.2128,0.224,0.2465,0.2355,0.2244,0.2798,0.2687,0.2464,0.2745,0.2856,0.291,0.3074,0.2965,0.2968,0.3302,0.3357,0.3246,0.3021,0.3132,0.3188,0.291,0.274,0.2571,0.2516,0.2237,0.2015,0.2015,0.0,0.1606,0.1629,0.1287,0.094,0.0855,0.0773,0.0501,0.0,0.0292,0.0287,-0.0374,-0.0476,-0.084,-0.168,-0.2805,-0.4134,-0.5702,-0.6609,-0.8556,-1.1723,-1.2353,-1.288,-1.3243,-1.3933,-1.4406,-1.4697,-1.4742,-1.4623,-1.4367,-1.4135,-1.4063,-1.4014,-1.3445,-1.5069,-1.7863,-1.7552,-1.7403,-1.7439,-1.7482,-1.7622,-1.7776,0.6601,0.637,0.6178,0.6178,0.6178,0.6178,0.6178,0.6282,0.6442,0.662,0.6894,0.7192,0.7378,0.6922,0.6621,0.6728,0.6427,0.6282,0.6408,0.6412,0.6173,0.5619,0.5424,0.5337,0.5287,0.4969,0.4689,0.4445,0.3862,0.3626,0.3849,0.3125,0.2847,0.3014,0.2903,0.2629,0.2354,0.2465,0.2464,0.235,0.2242,0.213,0.2074,0.1964,0.1962,0.2074,0.2074,0.2128,0.224,0.2465,0.2355,0.2188,0.2798,0.2742,0.2519,0.2745,0.28,0.2912,0.3188,0.2968,0.2858,0.3474,0.3413,0.3302,0.3527,0.3638,0.3635,0.3585,0.3466,0.3297,0.3183,0.2932,0.2671,0.2612,0.2373,0.2158,0.2166,0.1801,0.1498,0.1356,0.1258,0.0974,0.0462,0.0609,0.0549,0.0146,-0.0099,-0.0147,0.0092,-0.0411,-0.0995,-0.1558,-0.1734,-0.3577,-0.7251,-0.8388,-0.912,-0.9476,-1.0064,-1.0326,-1.0354,-1.0113,-0.9817,-0.9435,-0.9213,-0.9123,-0.9073,-0.8766,-1.0538,-1.3386,-1.29,-1.2564,-1.2313,-1.2125,-1.2113,-1.2148,0.6341,0.6178,0.6178,0.6232,0.6232,0.6178,0.6178,0.6554,0.6657,0.6232,0.6714,0.7121,0.7121,0.7364,0.7521,0.7521,0.7521,0.7521,0.7521,0.7521,0.7003,0.5958,0.5892,0.5875,0.5709,0.5441,0.516,0.4796,0.4507,0.4203,0.4012,0.4012,0.3956,0.3799,0.4073,0.3959,0.3627,0.391,0.3519,0.2736,0.3019,0.2575,0.1853,0.2128,0.2074,0.1797,0.1797,0.1962,0.224,0.224,0.241,0.2691,0.2691,0.291,0.313,0.313,0.313,0.3188,0.3527,0.3137,0.2858,0.3474,0.3585,0.3585,0.3585,0.3691,0.3744,0.3638,0.3691,0.3796,0.3796,0.3786,0.387,0.399,0.3226,0.27,0.2876,0.217,0.168,0.1792,0.1791,0.1595,0.0959,0.0929,0.0656,0.005,0.0101,0.0,-0.0477,0.0095,0.014,-0.0493,0.009,0.0405,0.0405,-0.3645,-0.5576,-0.5487,-0.7553,-0.8894,-0.9507,-0.8628,-0.8607,-0.9282,-0.884,-0.8625,-0.8633,-0.9048,-0.8815,-0.8232,-0.8232,-0.7803,-0.7141,-0.7141,-0.6922,-0.6653,0.7177,0.6707,0.6445,0.7257,0.6717,0.6178,0.6178,0.6287,0.6404,0.6487,0.6747,0.6969,0.7173,0.7388,0.7521,0.7521,0.7521,0.7521,0.7521,0.7521,0.733,0.7068,0.7003,0.6972,0.6979,0.6716,0.6599,0.6476,0.5728,0.5517,0.5827,0.488,0.4647,0.5008,0.4647,0.4354,0.4098,0.4098,0.3928,0.3732,0.3516,0.3408,0.3355,0.3352,0.3297,0.3241,0.3294,0.3403,0.3456,0.3456,0.3289,0.3128,0.3019,0.319,0.3471,0.3471,0.3471,0.3471,0.3583,0.3471,0.3363,0.3527,0.3413,0.3302,0.3527,0.3638,0.3638,0.3585,0.3638,0.3635,0.3635,0.3792,0.3903,0.3868,0.3844,0.3827,0.3661,0.3266,0.2934,0.2875,0.2512,0.2171,0.1824,0.1719,0.1398,0.0682,0.0256,0.0,-0.0155,0.0,0.0048,-0.0141,0.0137,0.0315,0.0405,-0.118,-0.2154,-0.2497,-0.2953,-0.3204,-0.3174,-0.2318,-0.174,-0.1388,-0.1161,-0.0669,-0.0051,0.0357,-0.1129,-0.3536,-0.2756,-0.266,-0.2801,-0.19,-0.1992,-0.2368,0.7873,0.7029,0.6396,0.709,0.6874,0.65,0.6232,0.6413,0.6646,0.6837,0.7012,0.7206,0.7399,0.7466,0.7521,0.7521,0.7521,0.7521,0.7521,0.7521,0.7521,0.7521,0.7521,0.7521,0.7521,0.7396,0.726,0.704,0.6471,0.6272,0.6427,0.5603,0.5424,0.5661,0.5304,0.5078,0.488,0.4819,0.465,0.4453,0.4291,0.4073,0.391,0.391,0.3796,0.3738,0.3846,0.3901,0.3956,0.4009,0.3785,0.3566,0.3458,0.3685,0.3968,0.3968,0.4024,0.4079,0.391,0.3855,0.3799,0.3638,0.3469,0.3357,0.3527,0.3638,0.3705,0.3696,0.3707,0.3767,0.3767,0.3865,0.398,0.3961,0.4148,0.4247,0.4088,0.3914,0.3732,0.3564,0.3362,0.3046,0.2696,0.2594,0.2249,0.1471,0.0852,0.0475,0.0426,0.0205,0.005,0.0,0.0096,0.0142,0.0235,-0.0094,-0.0279,-0.0412,-0.0321,-0.0139,0.0234,0.1065,0.1835,0.2469,0.2739,0.3243,0.3824,0.4191,0.3084,0.1217,0.1937,0.2087,0.2014,0.3048,0.3048,0.2605,0.8452,0.7459,0.6437,0.6349,0.6737,0.6923,0.6337,0.6728,0.71,0.7219,0.7435,0.7608,0.7608,0.7477,0.7469,0.7469,0.7483,0.7497,0.7497,0.7512,0.7521,0.7521,0.7521,0.7521,0.7521,0.7461,0.7277,0.6848,0.6848,0.6655,0.6341,0.6322,0.6197,0.6082,0.6064,0.5995,0.5876,0.5876,0.5529,0.5007,0.5124,0.468,0.3962,0.4076,0.4018,0.3793,0.3962,0.4018,0.4018,0.4119,0.4119,0.4119,0.4119,0.4288,0.4519,0.4519,0.4736,0.4787,0.4398,0.4288,0.4181,0.3802,0.3694,0.3694,0.3641,0.3691,0.3772,0.3773,0.3865,0.399,0.399,0.3974,0.3997,0.4183,0.4195,0.4203,0.4203,0.4222,0.4161,0.405,0.4125,0.401,0.3544,0.3467,0.3065,0.2357,0.1682,0.1274,0.1125,0.0535,0.0158,0.0,0.0,0.0,0.0,0.0051,0.03,0.0769,0.0624,0.0831,0.126,0.1987,0.2576,0.3066,0.3465,0.3789,0.4007,0.3831,0.4347,0.5295,0.5624,0.5928,0.6362,0.7187,0.7348,0.7343,0.8703,0.8794,0.8516,0.7528,0.7221,0.6977,0.6712,0.6752,0.6678,0.6478,0.6635,0.6784,0.6784,0.6856,0.6922,0.6922,0.713,0.7288,0.7288,0.7436,0.7521,0.7521,0.7521,0.7521,0.7521,0.733,0.7288,0.7329,0.72,0.7158,0.7187,0.7031,0.6955,0.6946,0.673,0.6508,0.6351,0.6246,0.6039,0.5727,0.5563,0.5399,0.5234,0.5234,0.5293,0.5348,0.5454,0.5563,0.5622,0.534,0.523,0.5175,0.4842,0.4732,0.4791,0.4791,0.4842,0.4897,0.4787,0.4732,0.4732,0.4625,0.4625,0.4463,0.3749,0.3638,0.3644,0.3615,0.3749,0.387,0.387,0.3974,0.4122,0.4186,0.427,0.4336,0.4273,0.4184,0.419,0.4449,0.4182,0.4055,0.4338,0.38,0.3237,0.2914,0.1947,0.1318,0.1108,0.0554,0.0218,0.0,0.0105,0.0158,0.0158,0.0271,0.0319,0.0349,0.0399,0.055,0.0756,0.1048,0.135,0.1714,0.1813,0.2425,0.3414,0.3479,0.4007,0.4922,0.5672,0.5629,0.5386,0.6701,0.7074,0.7063,0.9875,0.967,0.9277,0.8457,0.7862,0.7373,0.7106,0.7176,0.7141,0.687,0.7124,0.7308,0.7072,0.6883,0.6763,0.6693,0.7024,0.7191,0.7012,0.7111,0.7173,0.7173,0.7173,0.7173,0.7173,0.7203,0.725,0.7378,0.725,0.7203,0.7168,0.7059,0.7012,0.7002,0.6735,0.6581,0.6468,0.6323,0.6221,0.6059,0.5896,0.5782,0.5786,0.5736,0.5736,0.5795,0.595,0.6059,0.6178,0.5955,0.5896,0.5841,0.5618,0.5508,0.5508,0.5508,0.5508,0.5454,0.5285,0.523,0.5175,0.4952,0.4897,0.4754,0.4103,0.4005,0.3926,0.3873,0.3887,0.3928,0.3928,0.4041,0.4151,0.4151,0.433,0.4437,0.4313,0.4377,0.4501,0.4504,0.4376,0.4358,0.4553,0.4309,0.3994,0.3754,0.2928,0.2387,0.2231,0.1577,0.0998,0.0654,0.0708,0.06,0.0273,0.0389,0.0389,0.0436,0.0321,0.0526,0.088,0.088,0.1128,0.161,0.1779,0.2278,0.2968,0.3368,0.3897,0.4554,0.5333,0.5371,0.5062,0.6426,0.6918,0.7074,1.0982,1.0358,0.975,0.9327,0.8828,0.8285,0.7851,0.7999,0.7998,0.7672,0.798,0.7979,0.7511,0.7106,0.6754,0.6573,0.69,0.6988,0.6735,0.6773,0.6791,0.6791,0.6791,0.6791,0.6791,0.7054,0.7221,0.7221,0.7254,0.7121,0.6894,0.6862,0.6824,0.6782,0.6571,0.6454,0.6412,0.6248,0.6178,0.6178,0.6059,0.6,0.6005,0.5845,0.5795,0.585,0.595,0.6059,0.6178,0.6178,0.6178,0.6178,0.6178,0.6178,0.6182,0.6215,0.6229,0.6179,0.5874,0.5832,0.5716,0.5322,0.5206,0.514,0.4841,0.4663,0.4526,0.4353,0.4356,0.4371,0.4243,0.4226,0.4163,0.4143,0.4304,0.4417,0.4338,0.4601,0.4741,0.447,0.4556,0.4686,0.4626,0.4756,0.4763,0.443,0.3898,0.3536,0.3399,0.2683,0.2021,0.1453,0.1469,0.1248,0.0734,0.0625,0.0692,0.0824,0.0403,0.0616,0.1246,0.1077,0.1369,0.2027,0.2344,0.2594,0.2866,0.3374,0.381,0.4184,0.4895,0.5099,0.5066,0.6322,0.6923,0.7139,1.0982,1.1108,1.1071,1.0504,1.0516,1.034,0.9579,0.9246,0.8912,0.83,0.7883,0.7367,0.6507,0.6814,0.6848,0.6284,0.6303,0.6388,0.6506,0.6688,0.6791,0.6791,0.6791,0.6791,0.6791,0.7054,0.7221,0.7221,0.7397,0.7469,0.7371,0.7196,0.7021,0.6782,0.6571,0.6379,0.6215,0.6187,0.6178,0.6178,0.6059,0.6,0.6005,0.5845,0.5845,0.595,0.6,0.6059,0.6178,0.6178,0.6178,0.6178,0.6178,0.6178,0.6211,0.6384,0.6435,0.6473,0.6601,0.6652,0.6648,0.6529,0.6529,0.646,0.6224,0.5596,0.5144,0.5264,0.5414,0.5322,0.4874,0.4715,0.4531,0.4306,0.4096,0.4096,0.4246,0.4472,0.4617,0.455,0.4864,0.4941,0.4623,0.4756,0.4826,0.4616,0.3975,0.3498,0.3343,0.2743,0.2357,0.2066,0.2242,0.2216,0.1982,0.1619,0.1383,0.1234,0.0723,0.0839,0.1565,0.152,0.191,0.2584,0.2644,0.2908,0.3329,0.3525,0.3684,0.3934,0.4544,0.4886,0.5234,0.6539,0.7085,0.7085,1.1864,1.174,1.1512,1.1136,1.0921,1.0614,1.0163,0.9685,0.92,0.8727,0.8154,0.7354,0.6337,0.6445,0.6495,0.6232,0.7025,0.7372,0.702,0.7462,0.7589,0.7397,0.7392,0.7392,0.7392,0.7333,0.7395,0.7466,0.7492,0.7464,0.735,0.7264,0.705,0.6782,0.6571,0.6426,0.6337,0.6225,0.6178,0.6178,0.6059,0.6059,0.6119,0.595,0.6009,0.6119,0.6119,0.6173,0.6178,0.6178,0.6178,0.6178,0.6178,0.6178,0.6215,0.6412,0.6473,0.652,0.6735,0.6791,0.6791,0.6791,0.6791,0.6787,0.6862,0.6586,0.6206,0.5824,0.5792,0.5715,0.5517,0.5399,0.5335,0.5206,0.4855,0.464,0.4631,0.4458,0.4394,0.4397,0.4513,0.4575,0.451,0.4637,0.4674,0.461,0.4424,0.4275,0.4216,0.3974,0.3649,0.3245,0.3271,0.3114,0.2711,0.2462,0.2282,0.2232,0.2019,0.1637,0.1119,0.1144,0.1552,0.2196,0.2404,0.2778,0.3263,0.3482,0.3678,0.3831,0.4406,0.4849,0.5285,0.5882,0.6213,0.644]}]]